<?xml version="1.0" encoding="utf-8"?>
<gpx xmlns:xsi="http://www.w3.org/2001/XMLSchema-instance" xmlns:xsd="http://www.w3.org/2001/XMLSchema" version="1.1" creator="Shapelink.com" xmlns="http://www.topografix.com/GPX/1/1" xmlns:gpxtpx="http://www.garmin.com/xmlschemas/TrackPointExtension/v1">
  <metadata>
    <name>Cykling - Mtb 26.30 km, 2012-09-15</name>
    <desc></desc>
    <author><name>Alexander Engvall</name></author> 
    <time>2012-09-15T17:49:10Z</time>
  </metadata>
  <trk>
    <name>Cykling - Mtb 26.30 km, 2012-09-15</name>
    <trkseg>
      <trkpt lat="59.4592928074" lon="17.8043269705">
        <ele>123.6</ele>
        <time>2012-09-15T17:49:10Z</time>
      </trkpt>
      <trkpt lat="59.4592900414" lon="17.8043528706">
        <ele>123.8</ele>
        <time>2012-09-15T17:49:11Z</time>
      </trkpt>
      <trkpt lat="59.4593048773" lon="17.804389248">
        <ele>123.8</ele>
        <time>2012-09-15T17:49:13Z</time>
      </trkpt>
      <trkpt lat="59.4593418415" lon="17.8044729832">
        <ele>123.8</ele>
        <time>2012-09-15T17:49:17Z</time>
      </trkpt>
      <trkpt lat="59.4593595273" lon="17.8044789344">
        <ele>124.2</ele>
        <time>2012-09-15T17:49:19Z</time>
      </trkpt>
      <trkpt lat="59.4593709267" lon="17.8044787667">
        <ele>124.6</ele>
        <time>2012-09-15T17:49:20Z</time>
      </trkpt>
      <trkpt lat="59.4593832481" lon="17.8044878192">
        <ele>125.2</ele>
        <time>2012-09-15T17:49:21Z</time>
      </trkpt>
      <trkpt lat="59.4593960724" lon="17.804493016">
        <ele>125.6</ele>
        <time>2012-09-15T17:49:22Z</time>
      </trkpt>
      <trkpt lat="59.4594104055" lon="17.8044880706">
        <ele>126</ele>
        <time>2012-09-15T17:49:23Z</time>
      </trkpt>
      <trkpt lat="59.4594431787" lon="17.804458734">
        <ele>126.6</ele>
        <time>2012-09-15T17:49:25Z</time>
      </trkpt>
      <trkpt lat="59.4594608645" lon="17.8044407129">
        <ele>127</ele>
        <time>2012-09-15T17:49:26Z</time>
      </trkpt>
      <trkpt lat="59.4594850882" lon="17.804420764">
        <ele>127.4</ele>
        <time>2012-09-15T17:49:27Z</time>
      </trkpt>
      <trkpt lat="59.4595110721" lon="17.8043939419">
        <ele>127.8</ele>
        <time>2012-09-15T17:49:28Z</time>
      </trkpt>
      <trkpt lat="59.4595342899" lon="17.8043664493">
        <ele>128.2</ele>
        <time>2012-09-15T17:49:29Z</time>
      </trkpt>
      <trkpt lat="59.4596903609" lon="17.8041308341">
        <ele>128.2</ele>
        <time>2012-09-15T17:49:35Z</time>
      </trkpt>
      <trkpt lat="59.4597935421" lon="17.8039750145">
        <ele>128.2</ele>
        <time>2012-09-15T17:49:38Z</time>
      </trkpt>
      <trkpt lat="59.4598947955" lon="17.8038064545">
        <ele>128.2</ele>
        <time>2012-09-15T17:49:41Z</time>
      </trkpt>
      <trkpt lat="59.4601578195" lon="17.8034113318">
        <ele>128.2</ele>
        <time>2012-09-15T17:49:48Z</time>
      </trkpt>
      <trkpt lat="59.4603067658" lon="17.8033383254">
        <ele>128.2</ele>
        <time>2012-09-15T17:49:52Z</time>
      </trkpt>
      <trkpt lat="59.4604434746" lon="17.803232462">
        <ele>128.2</ele>
        <time>2012-09-15T17:49:55Z</time>
      </trkpt>
      <trkpt lat="59.4604967835" lon="17.8032004432">
        <ele>128.2</ele>
        <time>2012-09-15T17:49:56Z</time>
      </trkpt>
      <trkpt lat="59.4605916666" lon="17.8031199769">
        <ele>128.2</ele>
        <time>2012-09-15T17:49:58Z</time>
      </trkpt>
      <trkpt lat="59.4606754018" lon="17.8029932426">
        <ele>128.2</ele>
        <time>2012-09-15T17:50:00Z</time>
      </trkpt>
      <trkpt lat="59.4607654234" lon="17.8028168874">
        <ele>128.2</ele>
        <time>2012-09-15T17:50:02Z</time>
      </trkpt>
      <trkpt lat="59.4608713706" lon="17.8026664323">
        <ele>127.8</ele>
        <time>2012-09-15T17:50:04Z</time>
      </trkpt>
      <trkpt lat="59.4609378391" lon="17.8025958567">
        <ele>127.4</ele>
        <time>2012-09-15T17:50:05Z</time>
      </trkpt>
      <trkpt lat="59.4610038885" lon="17.802537854">
        <ele>127</ele>
        <time>2012-09-15T17:50:06Z</time>
      </trkpt>
      <trkpt lat="59.4610704407" lon="17.8024943519">
        <ele>126.6</ele>
        <time>2012-09-15T17:50:07Z</time>
      </trkpt>
      <trkpt lat="59.4611298684" lon="17.8024729781">
        <ele>126</ele>
        <time>2012-09-15T17:50:08Z</time>
      </trkpt>
      <trkpt lat="59.4611784834" lon="17.8024560466">
        <ele>125.6</ele>
        <time>2012-09-15T17:50:09Z</time>
      </trkpt>
      <trkpt lat="59.4612330496" lon="17.8024423003">
        <ele>125</ele>
        <time>2012-09-15T17:50:10Z</time>
      </trkpt>
      <trkpt lat="59.4612823352" lon="17.8024386123">
        <ele>124.6</ele>
        <time>2012-09-15T17:50:11Z</time>
      </trkpt>
      <trkpt lat="59.4613279327" lon="17.8024158135">
        <ele>124.2</ele>
        <time>2012-09-15T17:50:12Z</time>
      </trkpt>
      <trkpt lat="59.4614299404" lon="17.8023182482">
        <ele>124.2</ele>
        <time>2012-09-15T17:50:16Z</time>
      </trkpt>
      <trkpt lat="59.4614122546" lon="17.8021504426">
        <ele>124.2</ele>
        <time>2012-09-15T17:50:18Z</time>
      </trkpt>
      <trkpt lat="59.4613695069" lon="17.8016498755">
        <ele>124.2</ele>
        <time>2012-09-15T17:50:23Z</time>
      </trkpt>
      <trkpt lat="59.4613484684" lon="17.8013572634">
        <ele>123.6</ele>
        <time>2012-09-15T17:50:26Z</time>
      </trkpt>
      <trkpt lat="59.4613447803" lon="17.8012775515">
        <ele>123</ele>
        <time>2012-09-15T17:50:27Z</time>
      </trkpt>
      <trkpt lat="59.4613404217" lon="17.8011913856">
        <ele>121.8</ele>
        <time>2012-09-15T17:50:28Z</time>
      </trkpt>
      <trkpt lat="59.4613441098" lon="17.8011024536">
        <ele>121.2</ele>
        <time>2012-09-15T17:50:29Z</time>
      </trkpt>
      <trkpt lat="59.461359281" lon="17.8010338897">
        <ele>120.6</ele>
        <time>2012-09-15T17:50:30Z</time>
      </trkpt>
      <trkpt lat="59.4613869413" lon="17.8009715283">
        <ele>120</ele>
        <time>2012-09-15T17:50:31Z</time>
      </trkpt>
      <trkpt lat="59.4614173676" lon="17.8009293674">
        <ele>119.4</ele>
        <time>2012-09-15T17:50:32Z</time>
      </trkpt>
      <trkpt lat="59.4615558366" lon="17.800963817">
        <ele>119.4</ele>
        <time>2012-09-15T17:50:35Z</time>
      </trkpt>
      <trkpt lat="59.4616725964" lon="17.8010007811">
        <ele>119.4</ele>
        <time>2012-09-15T17:50:37Z</time>
      </trkpt>
      <trkpt lat="59.4617274141" lon="17.8010000268">
        <ele>119.4</ele>
        <time>2012-09-15T17:50:38Z</time>
      </trkpt>
      <trkpt lat="59.4618492869" lon="17.8010334706">
        <ele>119.4</ele>
        <time>2012-09-15T17:50:40Z</time>
      </trkpt>
      <trkpt lat="59.4621984769" lon="17.8010935688">
        <ele>119</ele>
        <time>2012-09-15T17:50:45Z</time>
      </trkpt>
      <trkpt lat="59.4622710641" lon="17.8011118413">
        <ele>118.6</ele>
        <time>2012-09-15T17:50:46Z</time>
      </trkpt>
      <trkpt lat="59.4624112095" lon="17.8011169543">
        <ele>117.8</ele>
        <time>2012-09-15T17:50:47Z</time>
      </trkpt>
      <trkpt lat="59.4624759177" lon="17.8011214805">
        <ele>117.4</ele>
        <time>2012-09-15T17:50:50Z</time>
      </trkpt>
      <trkpt lat="59.4625425538" lon="17.8011462071">
        <ele>117.4</ele>
        <time>2012-09-15T17:50:51Z</time>
      </trkpt>
      <trkpt lat="59.4626611577" lon="17.8011588638">
        <ele>117.4</ele>
        <time>2012-09-15T17:50:53Z</time>
      </trkpt>
      <trkpt lat="59.4628505049" lon="17.8011668266">
        <ele>117.4</ele>
        <time>2012-09-15T17:50:56Z</time>
      </trkpt>
      <trkpt lat="59.4629790832" lon="17.8011576065">
        <ele>117</ele>
        <time>2012-09-15T17:50:58Z</time>
      </trkpt>
      <trkpt lat="59.4630406902" lon="17.8011553434">
        <ele>116.6</ele>
        <time>2012-09-15T17:50:59Z</time>
      </trkpt>
      <trkpt lat="59.4631021295" lon="17.801154589">
        <ele>116.2</ele>
        <time>2012-09-15T17:51:00Z</time>
      </trkpt>
      <trkpt lat="59.4631602161" lon="17.8011613784">
        <ele>115.8</ele>
        <time>2012-09-15T17:51:01Z</time>
      </trkpt>
      <trkpt lat="59.4632152013" lon="17.8011711014">
        <ele>115.4</ele>
        <time>2012-09-15T17:51:02Z</time>
      </trkpt>
      <trkpt lat="59.4632691808" lon="17.8011673295">
        <ele>115.4</ele>
        <time>2012-09-15T17:51:03Z</time>
      </trkpt>
      <trkpt lat="59.4633711047" lon="17.8011285213">
        <ele>115.4</ele>
        <time>2012-09-15T17:51:05Z</time>
      </trkpt>
      <trkpt lat="59.4634202226" lon="17.8010895455">
        <ele>115.4</ele>
        <time>2012-09-15T17:51:06Z</time>
      </trkpt>
      <trkpt lat="59.4636661475" lon="17.8009125197">
        <ele>115.4</ele>
        <time>2012-09-15T17:51:10Z</time>
      </trkpt>
      <trkpt lat="59.4638020181" lon="17.8009276072">
        <ele>115</ele>
        <time>2012-09-15T17:51:12Z</time>
      </trkpt>
      <trkpt lat="59.4638660559" lon="17.8009655772">
        <ele>114.6</ele>
        <time>2012-09-15T17:51:13Z</time>
      </trkpt>
      <trkpt lat="59.4639297583" lon="17.8009840173">
        <ele>114.2</ele>
        <time>2012-09-15T17:51:14Z</time>
      </trkpt>
      <trkpt lat="59.4639936284" lon="17.8010055588">
        <ele>113.6</ele>
        <time>2012-09-15T17:51:15Z</time>
      </trkpt>
      <trkpt lat="59.4640560735" lon="17.8010328838">
        <ele>113.2</ele>
        <time>2012-09-15T17:51:16Z</time>
      </trkpt>
      <trkpt lat="59.4641223744" lon="17.8010201433">
        <ele>113.2</ele>
        <time>2012-09-15T17:51:17Z</time>
      </trkpt>
      <trkpt lat="59.4641951293" lon="17.8010287767">
        <ele>112.8</ele>
        <time>2012-09-15T17:51:18Z</time>
      </trkpt>
      <trkpt lat="59.4642726618" lon="17.8010358175">
        <ele>112.4</ele>
        <time>2012-09-15T17:51:19Z</time>
      </trkpt>
      <trkpt lat="59.4643515355" lon="17.8010413495">
        <ele>111.8</ele>
        <time>2012-09-15T17:51:20Z</time>
      </trkpt>
      <trkpt lat="59.4644329238" lon="17.8010599574">
        <ele>111.4</ele>
        <time>2012-09-15T17:51:21Z</time>
      </trkpt>
      <trkpt lat="59.4645165751" lon="17.8010811636">
        <ele>110.8</ele>
        <time>2012-09-15T17:51:22Z</time>
      </trkpt>
      <trkpt lat="59.4646030763" lon="17.8010659923">
        <ele>110.4</ele>
        <time>2012-09-15T17:51:23Z</time>
      </trkpt>
      <trkpt lat="59.4646858895" lon="17.8010504858">
        <ele>110</ele>
        <time>2012-09-15T17:51:24Z</time>
      </trkpt>
      <trkpt lat="59.4647667748" lon="17.8010324647">
        <ele>109.2</ele>
        <time>2012-09-15T17:51:25Z</time>
      </trkpt>
      <trkpt lat="59.4648429663" lon="17.8009880407">
        <ele>108.4</ele>
        <time>2012-09-15T17:51:26Z</time>
      </trkpt>
      <trkpt lat="59.4649173976" lon="17.8009484781">
        <ele>107.8</ele>
        <time>2012-09-15T17:51:27Z</time>
      </trkpt>
      <trkpt lat="59.4649964389" lon="17.80093557">
        <ele>107</ele>
        <time>2012-09-15T17:51:28Z</time>
      </trkpt>
      <trkpt lat="59.4650723789" lon="17.800951747">
        <ele>106.2</ele>
        <time>2012-09-15T17:51:29Z</time>
      </trkpt>
      <trkpt lat="59.4651468102" lon="17.8009752164">
        <ele>105.8</ele>
        <time>2012-09-15T17:51:30Z</time>
      </trkpt>
      <trkpt lat="59.4652209062" lon="17.8009898847">
        <ele>105.4</ele>
        <time>2012-09-15T17:51:31Z</time>
      </trkpt>
      <trkpt lat="59.4652913141" lon="17.801002709">
        <ele>105</ele>
        <time>2012-09-15T17:51:32Z</time>
      </trkpt>
      <trkpt lat="59.465361303" lon="17.8010156171">
        <ele>104.6</ele>
        <time>2012-09-15T17:51:33Z</time>
      </trkpt>
      <trkpt lat="59.4654338903" lon="17.8010288605">
        <ele>104.2</ele>
        <time>2012-09-15T17:51:34Z</time>
      </trkpt>
      <trkpt lat="59.4656413423" lon="17.8010420201">
        <ele>104.2</ele>
        <time>2012-09-15T17:51:37Z</time>
      </trkpt>
      <trkpt lat="59.4657142648" lon="17.8010316265">
        <ele>104.2</ele>
        <time>2012-09-15T17:51:38Z</time>
      </trkpt>
      <trkpt lat="59.4659202081" lon="17.8009366596">
        <ele>104.2</ele>
        <time>2012-09-15T17:51:41Z</time>
      </trkpt>
      <trkpt lat="59.4661139138" lon="17.800986029">
        <ele>104.2</ele>
        <time>2012-09-15T17:51:44Z</time>
      </trkpt>
      <trkpt lat="59.4664507824" lon="17.8009998591">
        <ele>104.2</ele>
        <time>2012-09-15T17:51:50Z</time>
      </trkpt>
      <trkpt lat="59.4667633434" lon="17.8009329716">
        <ele>104.2</ele>
        <time>2012-09-15T17:51:56Z</time>
      </trkpt>
      <trkpt lat="59.467152515" lon="17.8008155412">
        <ele>104.2</ele>
        <time>2012-09-15T17:52:03Z</time>
      </trkpt>
      <trkpt lat="59.4674207358" lon="17.8006922434">
        <ele>104.2</ele>
        <time>2012-09-15T17:52:08Z</time>
      </trkpt>
      <trkpt lat="59.4675316284" lon="17.8006417006">
        <ele>104.6</ele>
        <time>2012-09-15T17:52:10Z</time>
      </trkpt>
      <trkpt lat="59.4675786508" lon="17.8006119448">
        <ele>105.2</ele>
        <time>2012-09-15T17:52:11Z</time>
      </trkpt>
      <trkpt lat="59.4676251704" lon="17.8005790878">
        <ele>105.6</ele>
        <time>2012-09-15T17:52:12Z</time>
      </trkpt>
      <trkpt lat="59.4676724443" lon="17.8005429618">
        <ele>106.2</ele>
        <time>2012-09-15T17:52:13Z</time>
      </trkpt>
      <trkpt lat="59.4677187962" lon="17.8005022257">
        <ele>106.6</ele>
        <time>2012-09-15T17:52:14Z</time>
      </trkpt>
      <trkpt lat="59.4678641383" lon="17.8003618289">
        <ele>106.6</ele>
        <time>2012-09-15T17:52:17Z</time>
      </trkpt>
      <trkpt lat="59.4680057924" lon="17.800188575">
        <ele>106.6</ele>
        <time>2012-09-15T17:52:20Z</time>
      </trkpt>
      <trkpt lat="59.468244509" lon="17.7997536382">
        <ele>106.6</ele>
        <time>2012-09-15T17:52:25Z</time>
      </trkpt>
      <trkpt lat="59.4684487759" lon="17.7993885227">
        <ele>106.6</ele>
        <time>2012-09-15T17:52:29Z</time>
      </trkpt>
      <trkpt lat="59.4685245482" lon="17.7993725133">
        <ele>106.6</ele>
        <time>2012-09-15T17:52:30Z</time>
      </trkpt>
      <trkpt lat="59.4687598282" lon="17.7993766204">
        <ele>106.2</ele>
        <time>2012-09-15T17:52:33Z</time>
      </trkpt>
      <trkpt lat="59.4688410488" lon="17.7994368024">
        <ele>105.6</ele>
        <time>2012-09-15T17:52:34Z</time>
      </trkpt>
      <trkpt lat="59.4689093613" lon="17.7995159276">
        <ele>105.2</ele>
        <time>2012-09-15T17:52:35Z</time>
      </trkpt>
      <trkpt lat="59.4689745724" lon="17.799581474">
        <ele>104.6</ele>
        <time>2012-09-15T17:52:36Z</time>
      </trkpt>
      <trkpt lat="59.4690329105" lon="17.799647691">
        <ele>104.2</ele>
        <time>2012-09-15T17:52:37Z</time>
      </trkpt>
      <trkpt lat="59.4691373489" lon="17.7997610143">
        <ele>104.2</ele>
        <time>2012-09-15T17:52:39Z</time>
      </trkpt>
      <trkpt lat="59.4692315615" lon="17.7998780256">
        <ele>104.2</ele>
        <time>2012-09-15T17:52:41Z</time>
      </trkpt>
      <trkpt lat="59.469310519" lon="17.8000542132">
        <ele>104.2</ele>
        <time>2012-09-15T17:52:43Z</time>
      </trkpt>
      <trkpt lat="59.4694574537" lon="17.8003174048">
        <ele>104.2</ele>
        <time>2012-09-15T17:52:46Z</time>
      </trkpt>
      <trkpt lat="59.4696012871" lon="17.8005540259">
        <ele>104.2</ele>
        <time>2012-09-15T17:52:49Z</time>
      </trkpt>
      <trkpt lat="59.4697073181" lon="17.8006807602">
        <ele>104.2</ele>
        <time>2012-09-15T17:52:51Z</time>
      </trkpt>
      <trkpt lat="59.4697673326" lon="17.8006877172">
        <ele>104.2</ele>
        <time>2012-09-15T17:52:52Z</time>
      </trkpt>
      <trkpt lat="59.4699516505" lon="17.8005924988">
        <ele>104.2</ele>
        <time>2012-09-15T17:52:55Z</time>
      </trkpt>
      <trkpt lat="59.4701345436" lon="17.8007617294">
        <ele>104.2</ele>
        <time>2012-09-15T17:52:58Z</time>
      </trkpt>
      <trkpt lat="59.4702427539" lon="17.800944371">
        <ele>104.2</ele>
        <time>2012-09-15T17:53:00Z</time>
      </trkpt>
      <trkpt lat="59.4704433328" lon="17.8013616219">
        <ele>104.2</ele>
        <time>2012-09-15T17:53:04Z</time>
      </trkpt>
      <trkpt lat="59.4705123158" lon="17.8016026854">
        <ele>104.2</ele>
        <time>2012-09-15T17:53:06Z</time>
      </trkpt>
      <trkpt lat="59.4705693966" lon="17.8018423239">
        <ele>104.2</ele>
        <time>2012-09-15T17:53:08Z</time>
      </trkpt>
      <trkpt lat="59.4707128947" lon="17.8022174978">
        <ele>104.2</ele>
        <time>2012-09-15T17:53:12Z</time>
      </trkpt>
      <trkpt lat="59.4707540498" lon="17.8022896659">
        <ele>104.2</ele>
        <time>2012-09-15T17:53:13Z</time>
      </trkpt>
      <trkpt lat="59.4708939437" lon="17.8024693738">
        <ele>104.2</ele>
        <time>2012-09-15T17:53:16Z</time>
      </trkpt>
      <trkpt lat="59.4709949456" lon="17.8025601498">
        <ele>104.6</ele>
        <time>2012-09-15T17:53:18Z</time>
      </trkpt>
      <trkpt lat="59.4710432254" lon="17.8026113632">
        <ele>105</ele>
        <time>2012-09-15T17:53:19Z</time>
      </trkpt>
      <trkpt lat="59.4710891582" lon="17.8026591401">
        <ele>105.4</ele>
        <time>2012-09-15T17:53:20Z</time>
      </trkpt>
      <trkpt lat="59.471136013" lon="17.8027109402">
        <ele>106</ele>
        <time>2012-09-15T17:53:21Z</time>
      </trkpt>
      <trkpt lat="59.4711850471" lon="17.8027549452">
        <ele>106.4</ele>
        <time>2012-09-15T17:53:22Z</time>
      </trkpt>
      <trkpt lat="59.4713255278" lon="17.802914788">
        <ele>106.4</ele>
        <time>2012-09-15T17:53:25Z</time>
      </trkpt>
      <trkpt lat="59.4715556947" lon="17.8031727829">
        <ele>106.8</ele>
        <time>2012-09-15T17:53:30Z</time>
      </trkpt>
      <trkpt lat="59.471601879" lon="17.8032146086">
        <ele>107.2</ele>
        <time>2012-09-15T17:53:31Z</time>
      </trkpt>
      <trkpt lat="59.4716490691" lon="17.8032649">
        <ele>107.6</ele>
        <time>2012-09-15T17:53:32Z</time>
      </trkpt>
      <trkpt lat="59.4716962592" lon="17.8033130121">
        <ele>108</ele>
        <time>2012-09-15T17:53:33Z</time>
      </trkpt>
      <trkpt lat="59.4717410185" lon="17.8033668239">
        <ele>108.4</ele>
        <time>2012-09-15T17:53:34Z</time>
      </trkpt>
      <trkpt lat="59.4719799865" lon="17.8036394033">
        <ele>108.4</ele>
        <time>2012-09-15T17:53:39Z</time>
      </trkpt>
      <trkpt lat="59.4722623727" lon="17.8039600109">
        <ele>108.4</ele>
        <time>2012-09-15T17:53:45Z</time>
      </trkpt>
      <trkpt lat="59.4724823138" lon="17.8042278126">
        <ele>108.8</ele>
        <time>2012-09-15T17:53:50Z</time>
      </trkpt>
      <trkpt lat="59.4725293362" lon="17.8042726558">
        <ele>109.2</ele>
        <time>2012-09-15T17:53:51Z</time>
      </trkpt>
      <trkpt lat="59.4725762749" lon="17.8043233663">
        <ele>109.8</ele>
        <time>2012-09-15T17:53:52Z</time>
      </trkpt>
      <trkpt lat="59.4726223753" lon="17.8043764237">
        <ele>110.2</ele>
        <time>2012-09-15T17:53:53Z</time>
      </trkpt>
      <trkpt lat="59.4726707389" lon="17.8044362705">
        <ele>110.6</ele>
        <time>2012-09-15T17:53:54Z</time>
      </trkpt>
      <trkpt lat="59.472808705" lon="17.8045871447">
        <ele>110.6</ele>
        <time>2012-09-15T17:53:57Z</time>
      </trkpt>
      <trkpt lat="59.4728532129" lon="17.8046348377">
        <ele>110.6</ele>
        <time>2012-09-15T17:53:58Z</time>
      </trkpt>
      <trkpt lat="59.4728979722" lon="17.8046656831">
        <ele>110.6</ele>
        <time>2012-09-15T17:53:59Z</time>
      </trkpt>
      <trkpt lat="59.4729966272" lon="17.8047445568">
        <ele>111</ele>
        <time>2012-09-15T17:54:01Z</time>
      </trkpt>
      <trkpt lat="59.4730449069" lon="17.8047714627">
        <ele>111.4</ele>
        <time>2012-09-15T17:54:02Z</time>
      </trkpt>
      <trkpt lat="59.4730984672" lon="17.8047852928">
        <ele>111.8</ele>
        <time>2012-09-15T17:54:03Z</time>
      </trkpt>
      <trkpt lat="59.473151357" lon="17.8047868854">
        <ele>112.2</ele>
        <time>2012-09-15T17:54:04Z</time>
      </trkpt>
      <trkpt lat="59.4732039116" lon="17.8047907411">
        <ele>112.6</ele>
        <time>2012-09-15T17:54:05Z</time>
      </trkpt>
      <trkpt lat="59.4733584738" lon="17.804776408">
        <ele>112.6</ele>
        <time>2012-09-15T17:54:08Z</time>
      </trkpt>
      <trkpt lat="59.4734108607" lon="17.8047670203">
        <ele>112.6</ele>
        <time>2012-09-15T17:54:09Z</time>
      </trkpt>
      <trkpt lat="59.4735567895" lon="17.8047292179">
        <ele>113.2</ele>
        <time>2012-09-15T17:54:12Z</time>
      </trkpt>
      <trkpt lat="59.4736096793" lon="17.8047374322">
        <ele>113.6</ele>
        <time>2012-09-15T17:54:13Z</time>
      </trkpt>
      <trkpt lat="59.4736525947" lon="17.8047865501">
        <ele>114</ele>
        <time>2012-09-15T17:54:14Z</time>
      </trkpt>
      <trkpt lat="59.4736983598" lon="17.8048203292">
        <ele>114.4</ele>
        <time>2012-09-15T17:54:15Z</time>
      </trkpt>
      <trkpt lat="59.4737463043" lon="17.8048334887">
        <ele>114.8</ele>
        <time>2012-09-15T17:54:16Z</time>
      </trkpt>
      <trkpt lat="59.4738839351" lon="17.8048586344">
        <ele>114.8</ele>
        <time>2012-09-15T17:54:19Z</time>
      </trkpt>
      <trkpt lat="59.4741469591" lon="17.8049104346">
        <ele>114.8</ele>
        <time>2012-09-15T17:54:25Z</time>
      </trkpt>
      <trkpt lat="59.4742440215" lon="17.8049297968">
        <ele>114.8</ele>
        <time>2012-09-15T17:54:27Z</time>
      </trkpt>
      <trkpt lat="59.4744087259" lon="17.8049369214">
        <ele>114.8</ele>
        <time>2012-09-15T17:54:30Z</time>
      </trkpt>
      <trkpt lat="59.4746355401" lon="17.8048193233">
        <ele>114.8</ele>
        <time>2012-09-15T17:54:34Z</time>
      </trkpt>
      <trkpt lat="59.4747385536" lon="17.804768529">
        <ele>115.2</ele>
        <time>2012-09-15T17:54:36Z</time>
      </trkpt>
      <trkpt lat="59.4747923654" lon="17.8047317325">
        <ele>115.6</ele>
        <time>2012-09-15T17:54:37Z</time>
      </trkpt>
      <trkpt lat="59.4748446685" lon="17.8046855482">
        <ele>116.2</ele>
        <time>2012-09-15T17:54:38Z</time>
      </trkpt>
      <trkpt lat="59.4748984803" lon="17.8046669404">
        <ele>116.6</ele>
        <time>2012-09-15T17:54:39Z</time>
      </trkpt>
      <trkpt lat="59.4749465924" lon="17.804687979">
        <ele>117</ele>
        <time>2012-09-15T17:54:40Z</time>
      </trkpt>
      <trkpt lat="59.475007445" lon="17.8049056569">
        <ele>117</ele>
        <time>2012-09-15T17:54:43Z</time>
      </trkpt>
      <trkpt lat="59.4749785274" lon="17.8052375801">
        <ele>117</ele>
        <time>2012-09-15T17:54:46Z</time>
      </trkpt>
      <trkpt lat="59.474971319" lon="17.805352496">
        <ele>117</ele>
        <time>2012-09-15T17:54:47Z</time>
      </trkpt>
      <trkpt lat="59.4749187645" lon="17.8058959784">
        <ele>117</ele>
        <time>2012-09-15T17:54:52Z</time>
      </trkpt>
      <trkpt lat="59.475025969" lon="17.8061111418">
        <ele>117</ele>
        <time>2012-09-15T17:54:55Z</time>
      </trkpt>
      <trkpt lat="59.4752028271" lon="17.8061667138">
        <ele>117.4</ele>
        <time>2012-09-15T17:54:58Z</time>
      </trkpt>
      <trkpt lat="59.4752630091" lon="17.8062025045">
        <ele>117.8</ele>
        <time>2012-09-15T17:54:59Z</time>
      </trkpt>
      <trkpt lat="59.4753196707" lon="17.8062292427">
        <ele>118.2</ele>
        <time>2012-09-15T17:55:00Z</time>
      </trkpt>
      <trkpt lat="59.475374656" lon="17.806255059">
        <ele>119</ele>
        <time>2012-09-15T17:55:01Z</time>
      </trkpt>
      <trkpt lat="59.475496445" lon="17.806314319">
        <ele>119</ele>
        <time>2012-09-15T17:55:03Z</time>
      </trkpt>
      <trkpt lat="59.4757485726" lon="17.8063813742">
        <ele>119</ele>
        <time>2012-09-15T17:55:07Z</time>
      </trkpt>
      <trkpt lat="59.4758106825" lon="17.8064066037">
        <ele>119</ele>
        <time>2012-09-15T17:55:08Z</time>
      </trkpt>
      <trkpt lat="59.4761421028" lon="17.8065286442">
        <ele>119</ele>
        <time>2012-09-15T17:55:13Z</time>
      </trkpt>
      <trkpt lat="59.4765524806" lon="17.8066853857">
        <ele>119</ele>
        <time>2012-09-15T17:55:20Z</time>
      </trkpt>
      <trkpt lat="59.4766644628" lon="17.8067538659">
        <ele>119</ele>
        <time>2012-09-15T17:55:22Z</time>
      </trkpt>
      <trkpt lat="59.4767729246" lon="17.806820502">
        <ele>119</ele>
        <time>2012-09-15T17:55:24Z</time>
      </trkpt>
      <trkpt lat="59.4768270716" lon="17.8068437198">
        <ele>119</ele>
        <time>2012-09-15T17:55:25Z</time>
      </trkpt>
      <trkpt lat="59.4768828951" lon="17.8068707095">
        <ele>120</ele>
        <time>2012-09-15T17:55:26Z</time>
      </trkpt>
      <trkpt lat="59.4769438315" lon="17.8069105236">
        <ele>120.4</ele>
        <time>2012-09-15T17:55:27Z</time>
      </trkpt>
      <trkpt lat="59.476998733" lon="17.8069470686">
        <ele>120.8</ele>
        <time>2012-09-15T17:55:28Z</time>
      </trkpt>
      <trkpt lat="59.4770518742" lon="17.8069938396">
        <ele>121.2</ele>
        <time>2012-09-15T17:55:29Z</time>
      </trkpt>
      <trkpt lat="59.4772100407" lon="17.8071258546">
        <ele>121.2</ele>
        <time>2012-09-15T17:55:32Z</time>
      </trkpt>
      <trkpt lat="59.477576162" lon="17.8074548441">
        <ele>121.2</ele>
        <time>2012-09-15T17:55:39Z</time>
      </trkpt>
      <trkpt lat="59.4778253559" lon="17.8077908745">
        <ele>121.6</ele>
        <time>2012-09-15T17:55:44Z</time>
      </trkpt>
      <trkpt lat="59.4778718755" lon="17.8078412497">
        <ele>122</ele>
        <time>2012-09-15T17:55:45Z</time>
      </trkpt>
      <trkpt lat="59.4779157966" lon="17.807895313">
        <ele>122.4</ele>
        <time>2012-09-15T17:55:46Z</time>
      </trkpt>
      <trkpt lat="59.477959634" lon="17.8079432575">
        <ele>122.8</ele>
        <time>2012-09-15T17:55:47Z</time>
      </trkpt>
      <trkpt lat="59.4779951732" lon="17.8079870948">
        <ele>123.2</ele>
        <time>2012-09-15T17:55:48Z</time>
      </trkpt>
      <trkpt lat="59.4780806686" lon="17.8080941317">
        <ele>124.2</ele>
        <time>2012-09-15T17:55:50Z</time>
      </trkpt>
      <trkpt lat="59.4781238354" lon="17.8081455127">
        <ele>124.6</ele>
        <time>2012-09-15T17:55:51Z</time>
      </trkpt>
      <trkpt lat="59.4781548484" lon="17.8082008332">
        <ele>125</ele>
        <time>2012-09-15T17:55:52Z</time>
      </trkpt>
      <trkpt lat="59.4781844365" lon="17.8082569082">
        <ele>125.4</ele>
        <time>2012-09-15T17:55:53Z</time>
      </trkpt>
      <trkpt lat="59.4782809122" lon="17.8084332633">
        <ele>125.4</ele>
        <time>2012-09-15T17:55:56Z</time>
      </trkpt>
      <trkpt lat="59.4783094107" lon="17.8085022464">
        <ele>125.4</ele>
        <time>2012-09-15T17:55:57Z</time>
      </trkpt>
      <trkpt lat="59.4784275116" lon="17.808732581">
        <ele>125.8</ele>
        <time>2012-09-15T17:56:01Z</time>
      </trkpt>
      <trkpt lat="59.4784529088" lon="17.8088030728">
        <ele>126.2</ele>
        <time>2012-09-15T17:56:02Z</time>
      </trkpt>
      <trkpt lat="59.4784762105" lon="17.8088777555">
        <ele>126.8</ele>
        <time>2012-09-15T17:56:03Z</time>
      </trkpt>
      <trkpt lat="59.4785024458" lon="17.8089483311">
        <ele>127.2</ele>
        <time>2012-09-15T17:56:04Z</time>
      </trkpt>
      <trkpt lat="59.478527843" lon="17.8090244387">
        <ele>127.6</ele>
        <time>2012-09-15T17:56:05Z</time>
      </trkpt>
      <trkpt lat="59.4786365562" lon="17.8092971019">
        <ele>127.6</ele>
        <time>2012-09-15T17:56:09Z</time>
      </trkpt>
      <trkpt lat="59.4787528132" lon="17.8095794882">
        <ele>128</ele>
        <time>2012-09-15T17:56:13Z</time>
      </trkpt>
      <trkpt lat="59.478788101" lon="17.8096364013">
        <ele>128.6</ele>
        <time>2012-09-15T17:56:14Z</time>
      </trkpt>
      <trkpt lat="59.4788262386" lon="17.8096964995">
        <ele>129.4</ele>
        <time>2012-09-15T17:56:15Z</time>
      </trkpt>
      <trkpt lat="59.4788595986" lon="17.8097586094">
        <ele>129.8</ele>
        <time>2012-09-15T17:56:16Z</time>
      </trkpt>
      <trkpt lat="59.4790278233" lon="17.8100140897">
        <ele>129.8</ele>
        <time>2012-09-15T17:56:21Z</time>
      </trkpt>
      <trkpt lat="59.4791315912" lon="17.8101304304">
        <ele>130.2</ele>
        <time>2012-09-15T17:56:24Z</time>
      </trkpt>
      <trkpt lat="59.4791667114" lon="17.8101844099">
        <ele>130.8</ele>
        <time>2012-09-15T17:56:25Z</time>
      </trkpt>
      <trkpt lat="59.4791983112" lon="17.8102398981">
        <ele>131.2</ele>
        <time>2012-09-15T17:56:26Z</time>
      </trkpt>
      <trkpt lat="59.4792296595" lon="17.8102867529">
        <ele>131.6</ele>
        <time>2012-09-15T17:56:27Z</time>
      </trkpt>
      <trkpt lat="59.479261343" lon="17.8103359546">
        <ele>132</ele>
        <time>2012-09-15T17:56:28Z</time>
      </trkpt>
      <trkpt lat="59.4793453297" lon="17.8104693107">
        <ele>132.4</ele>
        <time>2012-09-15T17:56:31Z</time>
      </trkpt>
      <trkpt lat="59.4793676255" lon="17.810517758">
        <ele>132.8</ele>
        <time>2012-09-15T17:56:32Z</time>
      </trkpt>
      <trkpt lat="59.4793922683" lon="17.8105657863">
        <ele>133.2</ele>
        <time>2012-09-15T17:56:33Z</time>
      </trkpt>
      <trkpt lat="59.4794091998" lon="17.8106389603">
        <ele>133.8</ele>
        <time>2012-09-15T17:56:34Z</time>
      </trkpt>
      <trkpt lat="59.4794166597" lon="17.810705345">
        <ele>134.2</ele>
        <time>2012-09-15T17:56:35Z</time>
      </trkpt>
      <trkpt lat="59.4794272208" lon="17.8108108731">
        <ele>134.2</ele>
        <time>2012-09-15T17:56:37Z</time>
      </trkpt>
      <trkpt lat="59.4794315794" lon="17.8108628409">
        <ele>134.6</ele>
        <time>2012-09-15T17:56:38Z</time>
      </trkpt>
      <trkpt lat="59.4794116305" lon="17.8109014814">
        <ele>135</ele>
        <time>2012-09-15T17:56:39Z</time>
      </trkpt>
      <trkpt lat="59.4794070205" lon="17.8109610767">
        <ele>135.8</ele>
        <time>2012-09-15T17:56:40Z</time>
      </trkpt>
      <trkpt lat="59.4793991415" lon="17.8110159782">
        <ele>136.2</ele>
        <time>2012-09-15T17:56:41Z</time>
      </trkpt>
      <trkpt lat="59.4794068528" lon="17.8112301357">
        <ele>136.2</ele>
        <time>2012-09-15T17:56:45Z</time>
      </trkpt>
      <trkpt lat="59.4793985547" lon="17.811522664">
        <ele>136.2</ele>
        <time>2012-09-15T17:56:50Z</time>
      </trkpt>
      <trkpt lat="59.4793994768" lon="17.8115859474">
        <ele>136.6</ele>
        <time>2012-09-15T17:56:51Z</time>
      </trkpt>
      <trkpt lat="59.4794045059" lon="17.8116434472">
        <ele>137</ele>
        <time>2012-09-15T17:56:52Z</time>
      </trkpt>
      <trkpt lat="59.4794089483" lon="17.8117074011">
        <ele>137.4</ele>
        <time>2012-09-15T17:56:53Z</time>
      </trkpt>
      <trkpt lat="59.4794148995" lon="17.8117773062">
        <ele>137.8</ele>
        <time>2012-09-15T17:56:54Z</time>
      </trkpt>
      <trkpt lat="59.4794161567" lon="17.8118389969">
        <ele>138.2</ele>
        <time>2012-09-15T17:56:55Z</time>
      </trkpt>
      <trkpt lat="59.4794239519" lon="17.8119670724">
        <ele>138.2</ele>
        <time>2012-09-15T17:56:57Z</time>
      </trkpt>
      <trkpt lat="59.4794983832" lon="17.8123293381">
        <ele>138.6</ele>
        <time>2012-09-15T17:57:02Z</time>
      </trkpt>
      <trkpt lat="59.47952948" lon="17.8124089661">
        <ele>139</ele>
        <time>2012-09-15T17:57:03Z</time>
      </trkpt>
      <trkpt lat="59.4795603254" lon="17.8124794579">
        <ele>140</ele>
        <time>2012-09-15T17:57:04Z</time>
      </trkpt>
      <trkpt lat="59.4795908355" lon="17.8125403943">
        <ele>140.4</ele>
        <time>2012-09-15T17:57:05Z</time>
      </trkpt>
      <trkpt lat="59.4796778397" lon="17.8126530471">
        <ele>140.4</ele>
        <time>2012-09-15T17:57:07Z</time>
      </trkpt>
      <trkpt lat="59.4797161449" lon="17.8127135644">
        <ele>140.4</ele>
        <time>2012-09-15T17:57:08Z</time>
      </trkpt>
      <trkpt lat="59.4799368404" lon="17.8130349264">
        <ele>140.4</ele>
        <time>2012-09-15T17:57:14Z</time>
      </trkpt>
      <trkpt lat="59.4799619861" lon="17.8130914204">
        <ele>140.4</ele>
        <time>2012-09-15T17:57:15Z</time>
      </trkpt>
      <trkpt lat="59.4800702802" lon="17.8134572904">
        <ele>140.4</ele>
        <time>2012-09-15T17:57:20Z</time>
      </trkpt>
      <trkpt lat="59.4800709508" lon="17.813539433">
        <ele>140.8</ele>
        <time>2012-09-15T17:57:21Z</time>
      </trkpt>
      <trkpt lat="59.4800753094" lon="17.8136202345">
        <ele>141.2</ele>
        <time>2012-09-15T17:57:22Z</time>
      </trkpt>
      <trkpt lat="59.4800775725" lon="17.8136926541">
        <ele>141.6</ele>
        <time>2012-09-15T17:57:23Z</time>
      </trkpt>
      <trkpt lat="59.4800686038" lon="17.8137676721">
        <ele>142</ele>
        <time>2012-09-15T17:57:24Z</time>
      </trkpt>
      <trkpt lat="59.480059719" lon="17.8138430254">
        <ele>142.4</ele>
        <time>2012-09-15T17:57:25Z</time>
      </trkpt>
      <trkpt lat="59.4800195697" lon="17.8140835021">
        <ele>143</ele>
        <time>2012-09-15T17:57:28Z</time>
      </trkpt>
      <trkpt lat="59.4800015486" lon="17.8141505573">
        <ele>143.8</ele>
        <time>2012-09-15T17:57:29Z</time>
      </trkpt>
      <trkpt lat="59.4799827732" lon="17.8142201271">
        <ele>144.2</ele>
        <time>2012-09-15T17:57:30Z</time>
      </trkpt>
      <trkpt lat="59.4799696136" lon="17.8142935525">
        <ele>144.6</ele>
        <time>2012-09-15T17:57:31Z</time>
      </trkpt>
      <trkpt lat="59.4799283746" lon="17.8146878371">
        <ele>145</ele>
        <time>2012-09-15T17:57:36Z</time>
      </trkpt>
      <trkpt lat="59.4799195737" lon="17.8147731649">
        <ele>145.4</ele>
        <time>2012-09-15T17:57:37Z</time>
      </trkpt>
      <trkpt lat="59.4799114432" lon="17.8148682156">
        <ele>145.8</ele>
        <time>2012-09-15T17:57:38Z</time>
      </trkpt>
      <trkpt lat="59.4799152989" lon="17.8149710615">
        <ele>146.2</ele>
        <time>2012-09-15T17:57:39Z</time>
      </trkpt>
      <trkpt lat="59.4799158018" lon="17.815072734">
        <ele>146.6</ele>
        <time>2012-09-15T17:57:40Z</time>
      </trkpt>
      <trkpt lat="59.4799222559" lon="17.8151655216">
        <ele>146.6</ele>
        <time>2012-09-15T17:57:41Z</time>
      </trkpt>
      <trkpt lat="59.4799227588" lon="17.8152469937">
        <ele>146.6</ele>
        <time>2012-09-15T17:57:42Z</time>
      </trkpt>
      <trkpt lat="59.4799142931" lon="17.8153401166">
        <ele>146.6</ele>
        <time>2012-09-15T17:57:43Z</time>
      </trkpt>
      <trkpt lat="59.4798811007" lon="17.8157047292">
        <ele>146.6</ele>
        <time>2012-09-15T17:57:47Z</time>
      </trkpt>
      <trkpt lat="59.4798682764" lon="17.8158637339">
        <ele>146.6</ele>
        <time>2012-09-15T17:57:49Z</time>
      </trkpt>
      <trkpt lat="59.4798740599" lon="17.8160516561">
        <ele>146.6</ele>
        <time>2012-09-15T17:57:51Z</time>
      </trkpt>
      <trkpt lat="59.4798826933" lon="17.8161709305">
        <ele>146.6</ele>
        <time>2012-09-15T17:57:52Z</time>
      </trkpt>
      <trkpt lat="59.4799007982" lon="17.8162913784">
        <ele>146.6</ele>
        <time>2012-09-15T17:57:53Z</time>
      </trkpt>
      <trkpt lat="59.4799432106" lon="17.8166167638">
        <ele>146.6</ele>
        <time>2012-09-15T17:57:56Z</time>
      </trkpt>
      <trkpt lat="59.4799551967" lon="17.8167239683">
        <ele>146.6</ele>
        <time>2012-09-15T17:57:57Z</time>
      </trkpt>
      <trkpt lat="59.4799882214" lon="17.8169201047">
        <ele>146.6</ele>
        <time>2012-09-15T17:57:59Z</time>
      </trkpt>
      <trkpt lat="59.4800728786" lon="17.8171660297">
        <ele>146.6</ele>
        <time>2012-09-15T17:58:02Z</time>
      </trkpt>
      <trkpt lat="59.4801888003" lon="17.8174688677">
        <ele>147</ele>
        <time>2012-09-15T17:58:06Z</time>
      </trkpt>
      <trkpt lat="59.4802251777" lon="17.817537264">
        <ele>147.4</ele>
        <time>2012-09-15T17:58:07Z</time>
      </trkpt>
      <trkpt lat="59.4802619743" lon="17.8176152157">
        <ele>147.8</ele>
        <time>2012-09-15T17:58:08Z</time>
      </trkpt>
      <trkpt lat="59.480298687" lon="17.8176945923">
        <ele>148.2</ele>
        <time>2012-09-15T17:58:09Z</time>
      </trkpt>
      <trkpt lat="59.4803365732" lon="17.8177685206">
        <ele>148.8</ele>
        <time>2012-09-15T17:58:10Z</time>
      </trkpt>
      <trkpt lat="59.4805242439" lon="17.8181189679">
        <ele>148.8</ele>
        <time>2012-09-15T17:58:15Z</time>
      </trkpt>
      <trkpt lat="59.4807011858" lon="17.8184378154">
        <ele>148.8</ele>
        <time>2012-09-15T17:58:20Z</time>
      </trkpt>
      <trkpt lat="59.4807995893" lon="17.8185318603">
        <ele>148.8</ele>
        <time>2012-09-15T17:58:22Z</time>
      </trkpt>
      <trkpt lat="59.4809608571" lon="17.818649626">
        <ele>148.8</ele>
        <time>2012-09-15T17:58:25Z</time>
      </trkpt>
      <trkpt lat="59.4810751862" lon="17.8186998335">
        <ele>148.8</ele>
        <time>2012-09-15T17:58:27Z</time>
      </trkpt>
      <trkpt lat="59.4811327699" lon="17.8187186928">
        <ele>148.8</ele>
        <time>2012-09-15T17:58:28Z</time>
      </trkpt>
      <trkpt lat="59.4813676307" lon="17.8188349498">
        <ele>148.8</ele>
        <time>2012-09-15T17:58:32Z</time>
      </trkpt>
      <trkpt lat="59.4814138988" lon="17.8188778651">
        <ele>148.8</ele>
        <time>2012-09-15T17:58:33Z</time>
      </trkpt>
      <trkpt lat="59.4815607497" lon="17.8190468442">
        <ele>148.8</ele>
        <time>2012-09-15T17:58:36Z</time>
      </trkpt>
      <trkpt lat="59.4816765875" lon="17.8191808708">
        <ele>148.8</ele>
        <time>2012-09-15T17:58:38Z</time>
      </trkpt>
      <trkpt lat="59.4819308944" lon="17.8194105349">
        <ele>148.8</ele>
        <time>2012-09-15T17:58:43Z</time>
      </trkpt>
      <trkpt lat="59.4821877158" lon="17.819623938">
        <ele>148.8</ele>
        <time>2012-09-15T17:58:48Z</time>
      </trkpt>
      <trkpt lat="59.4822639911" lon="17.8197659274">
        <ele>148.8</ele>
        <time>2012-09-15T17:58:50Z</time>
      </trkpt>
      <trkpt lat="59.4823047271" lon="17.8198562843">
        <ele>148.8</ele>
        <time>2012-09-15T17:58:51Z</time>
      </trkpt>
      <trkpt lat="59.4824109258" lon="17.8201563563">
        <ele>148.8</ele>
        <time>2012-09-15T17:58:54Z</time>
      </trkpt>
      <trkpt lat="59.482525674" lon="17.8204306959">
        <ele>148.8</ele>
        <time>2012-09-15T17:58:57Z</time>
      </trkpt>
      <trkpt lat="59.482761373" lon="17.8208880124">
        <ele>148.8</ele>
        <time>2012-09-15T17:59:03Z</time>
      </trkpt>
      <trkpt lat="59.4828337926" lon="17.8210730847">
        <ele>148.8</ele>
        <time>2012-09-15T17:59:05Z</time>
      </trkpt>
      <trkpt lat="59.4829311903" lon="17.8213378689">
        <ele>148.8</ele>
        <time>2012-09-15T17:59:08Z</time>
      </trkpt>
      <trkpt lat="59.4830255705" lon="17.8215798544">
        <ele>148.8</ele>
        <time>2012-09-15T17:59:11Z</time>
      </trkpt>
      <trkpt lat="59.483086004" lon="17.8217056667">
        <ele>148.8</ele>
        <time>2012-09-15T17:59:13Z</time>
      </trkpt>
      <trkpt lat="59.483278201" lon="17.8220934972">
        <ele>148.8</ele>
        <time>2012-09-15T17:59:18Z</time>
      </trkpt>
      <trkpt lat="59.4834667937" lon="17.8225370674">
        <ele>148.8</ele>
        <time>2012-09-15T17:59:23Z</time>
      </trkpt>
      <trkpt lat="59.4837302368" lon="17.8230497044">
        <ele>148.2</ele>
        <time>2012-09-15T17:59:29Z</time>
      </trkpt>
      <trkpt lat="59.4837762535" lon="17.823136457">
        <ele>147.6</ele>
        <time>2012-09-15T17:59:30Z</time>
      </trkpt>
      <trkpt lat="59.4838255391" lon="17.8232201084">
        <ele>146.6</ele>
        <time>2012-09-15T17:59:31Z</time>
      </trkpt>
      <trkpt lat="59.4838744055" lon="17.8232945397">
        <ele>146</ele>
        <time>2012-09-15T17:59:32Z</time>
      </trkpt>
      <trkpt lat="59.4839650977" lon="17.8234448271">
        <ele>146</ele>
        <time>2012-09-15T17:59:34Z</time>
      </trkpt>
      <trkpt lat="59.4840258665" lon="17.8235151513">
        <ele>146</ele>
        <time>2012-09-15T17:59:35Z</time>
      </trkpt>
      <trkpt lat="59.4841883915" lon="17.8237052528">
        <ele>146</ele>
        <time>2012-09-15T17:59:38Z</time>
      </trkpt>
      <trkpt lat="59.4843729609" lon="17.8238802668">
        <ele>146</ele>
        <time>2012-09-15T17:59:41Z</time>
      </trkpt>
      <trkpt lat="59.4847025372" lon="17.8241468951">
        <ele>146</ele>
        <time>2012-09-15T17:59:46Z</time>
      </trkpt>
      <trkpt lat="59.4847575225" lon="17.8242337316">
        <ele>146</ele>
        <time>2012-09-15T17:59:47Z</time>
      </trkpt>
      <trkpt lat="59.4848643079" lon="17.8244098353">
        <ele>145.6</ele>
        <time>2012-09-15T17:59:49Z</time>
      </trkpt>
      <trkpt lat="59.4849269207" lon="17.8244938219">
        <ele>145.2</ele>
        <time>2012-09-15T17:59:50Z</time>
      </trkpt>
      <trkpt lat="59.4849722668" lon="17.8245766351">
        <ele>144.8</ele>
        <time>2012-09-15T17:59:51Z</time>
      </trkpt>
      <trkpt lat="59.485028677" lon="17.8246377391">
        <ele>144.4</ele>
        <time>2012-09-15T17:59:52Z</time>
      </trkpt>
      <trkpt lat="59.4850827402" lon="17.8246999328">
        <ele>144</ele>
        <time>2012-09-15T17:59:53Z</time>
      </trkpt>
      <trkpt lat="59.4851338698" lon="17.8247587738">
        <ele>144</ele>
        <time>2012-09-15T17:59:54Z</time>
      </trkpt>
      <trkpt lat="59.4852745181" lon="17.8249730151">
        <ele>144</ele>
        <time>2012-09-15T17:59:57Z</time>
      </trkpt>
      <trkpt lat="59.4853377176" lon="17.8251608535">
        <ele>144</ele>
        <time>2012-09-15T17:59:59Z</time>
      </trkpt>
      <trkpt lat="59.4854947106" lon="17.8256537931">
        <ele>144</ele>
        <time>2012-09-15T18:00:04Z</time>
      </trkpt>
      <trkpt lat="59.4856321738" lon="17.8260110296">
        <ele>144</ele>
        <time>2012-09-15T18:00:08Z</time>
      </trkpt>
      <trkpt lat="59.4856752567" lon="17.8260856286">
        <ele>144</ele>
        <time>2012-09-15T18:00:09Z</time>
      </trkpt>
      <trkpt lat="59.485812217" lon="17.8263057372">
        <ele>143.6</ele>
        <time>2012-09-15T18:00:12Z</time>
      </trkpt>
      <trkpt lat="59.4858541265" lon="17.82636374">
        <ele>143</ele>
        <time>2012-09-15T18:00:13Z</time>
      </trkpt>
      <trkpt lat="59.4858943596" lon="17.826428113">
        <ele>142.6</ele>
        <time>2012-09-15T18:00:14Z</time>
      </trkpt>
      <trkpt lat="59.4859350118" lon="17.826517967">
        <ele>142.2</ele>
        <time>2012-09-15T18:00:15Z</time>
      </trkpt>
      <trkpt lat="59.4859739877" lon="17.8265918115">
        <ele>141.8</ele>
        <time>2012-09-15T18:00:16Z</time>
      </trkpt>
      <trkpt lat="59.4861352554" lon="17.8269803126">
        <ele>141.8</ele>
        <time>2012-09-15T18:00:21Z</time>
      </trkpt>
      <trkpt lat="59.4863351637" lon="17.8275377089">
        <ele>141.8</ele>
        <time>2012-09-15T18:00:27Z</time>
      </trkpt>
      <trkpt lat="59.4864357465" lon="17.8278413013">
        <ele>141.8</ele>
        <time>2012-09-15T18:00:30Z</time>
      </trkpt>
      <trkpt lat="59.4865751375" lon="17.8282553672">
        <ele>141.8</ele>
        <time>2012-09-15T18:00:34Z</time>
      </trkpt>
      <trkpt lat="59.4867486429" lon="17.828855595">
        <ele>141.8</ele>
        <time>2012-09-15T18:00:40Z</time>
      </trkpt>
      <trkpt lat="59.4868671629" lon="17.8292525618">
        <ele>141.8</ele>
        <time>2012-09-15T18:00:44Z</time>
      </trkpt>
      <trkpt lat="59.4869004391" lon="17.8294713294">
        <ele>141.8</ele>
        <time>2012-09-15T18:00:46Z</time>
      </trkpt>
      <trkpt lat="59.4869470424" lon="17.829780873">
        <ele>141.8</ele>
        <time>2012-09-15T18:00:49Z</time>
      </trkpt>
      <trkpt lat="59.486988449" lon="17.8300631754">
        <ele>141.8</ele>
        <time>2012-09-15T18:00:52Z</time>
      </trkpt>
      <trkpt lat="59.4870766266" lon="17.830705648">
        <ele>141.8</ele>
        <time>2012-09-15T18:00:59Z</time>
      </trkpt>
      <trkpt lat="59.4872044506" lon="17.8312653913">
        <ele>141.8</ele>
        <time>2012-09-15T18:01:05Z</time>
      </trkpt>
      <trkpt lat="59.4874264871" lon="17.8319829658">
        <ele>141.8</ele>
        <time>2012-09-15T18:01:12Z</time>
      </trkpt>
      <trkpt lat="59.4875339431" lon="17.8324395278">
        <ele>141.8</ele>
        <time>2012-09-15T18:01:17Z</time>
      </trkpt>
      <trkpt lat="59.4876466796" lon="17.8327681821">
        <ele>141.8</ele>
        <time>2012-09-15T18:01:21Z</time>
      </trkpt>
      <trkpt lat="59.487706694" lon="17.8328934916">
        <ele>141.8</ele>
        <time>2012-09-15T18:01:23Z</time>
      </trkpt>
      <trkpt lat="59.4877403054" lon="17.8329873688">
        <ele>141.8</ele>
        <time>2012-09-15T18:01:24Z</time>
      </trkpt>
      <trkpt lat="59.4878884136" lon="17.8332925538">
        <ele>141.8</ele>
        <time>2012-09-15T18:01:28Z</time>
      </trkpt>
      <trkpt lat="59.4881065945" lon="17.8336480302">
        <ele>141.8</ele>
        <time>2012-09-15T18:01:33Z</time>
      </trkpt>
      <trkpt lat="59.4883290501" lon="17.8340623475">
        <ele>141.8</ele>
        <time>2012-09-15T18:01:38Z</time>
      </trkpt>
      <trkpt lat="59.4883780004" lon="17.8341802808">
        <ele>141.8</ele>
        <time>2012-09-15T18:01:39Z</time>
      </trkpt>
      <trkpt lat="59.4886836045" lon="17.8349364959">
        <ele>141.8</ele>
        <time>2012-09-15T18:01:47Z</time>
      </trkpt>
      <trkpt lat="59.4887876239" lon="17.8351203947">
        <ele>141.8</ele>
        <time>2012-09-15T18:01:51Z</time>
      </trkpt>
      <trkpt lat="59.4888423577" lon="17.8354456125">
        <ele>141.8</ele>
        <time>2012-09-15T18:01:56Z</time>
      </trkpt>
      <trkpt lat="59.4888483926" lon="17.8355277551">
        <ele>141.8</ele>
        <time>2012-09-15T18:01:57Z</time>
      </trkpt>
      <trkpt lat="59.4888918109" lon="17.8358076267">
        <ele>141.8</ele>
        <time>2012-09-15T18:02:00Z</time>
      </trkpt>
      <trkpt lat="59.4888939063" lon="17.8359135739">
        <ele>141.8</ele>
        <time>2012-09-15T18:02:01Z</time>
      </trkpt>
      <trkpt lat="59.4889348938" lon="17.8362228661">
        <ele>141.8</ele>
        <time>2012-09-15T18:02:04Z</time>
      </trkpt>
      <trkpt lat="59.4889576926" lon="17.8366078467">
        <ele>141.8</ele>
        <time>2012-09-15T18:02:09Z</time>
      </trkpt>
      <trkpt lat="59.4890224009" lon="17.8368840303">
        <ele>141.8</ele>
        <time>2012-09-15T18:02:13Z</time>
      </trkpt>
      <trkpt lat="59.4891738618" lon="17.837283344">
        <ele>141.8</ele>
        <time>2012-09-15T18:02:19Z</time>
      </trkpt>
      <trkpt lat="59.4892643025" lon="17.8377472822">
        <ele>141.8</ele>
        <time>2012-09-15T18:02:25Z</time>
      </trkpt>
      <trkpt lat="59.4893496302" lon="17.8379633676">
        <ele>141.8</ele>
        <time>2012-09-15T18:02:28Z</time>
      </trkpt>
      <trkpt lat="59.4893855048" lon="17.8380133237">
        <ele>141.8</ele>
        <time>2012-09-15T18:02:29Z</time>
      </trkpt>
      <trkpt lat="59.4894223013" lon="17.8380883417">
        <ele>141.8</ele>
        <time>2012-09-15T18:02:30Z</time>
      </trkpt>
      <trkpt lat="59.489522465" lon="17.8383076122">
        <ele>141.8</ele>
        <time>2012-09-15T18:02:33Z</time>
      </trkpt>
      <trkpt lat="59.489598908" lon="17.838408195">
        <ele>141.8</ele>
        <time>2012-09-15T18:02:35Z</time>
      </trkpt>
      <trkpt lat="59.4896446731" lon="17.8384225281">
        <ele>141.8</ele>
        <time>2012-09-15T18:02:36Z</time>
      </trkpt>
      <trkpt lat="59.4898257222" lon="17.838492936">
        <ele>141.8</ele>
        <time>2012-09-15T18:02:40Z</time>
      </trkpt>
      <trkpt lat="59.4899553063" lon="17.8384343465">
        <ele>141.8</ele>
        <time>2012-09-15T18:02:43Z</time>
      </trkpt>
      <trkpt lat="59.490040215" lon="17.8384217737">
        <ele>141.4</ele>
        <time>2012-09-15T18:02:45Z</time>
      </trkpt>
      <trkpt lat="59.4900782688" lon="17.8384306585">
        <ele>141</ele>
        <time>2012-09-15T18:02:46Z</time>
      </trkpt>
      <trkpt lat="59.4901143948" lon="17.838458235">
        <ele>140.6</ele>
        <time>2012-09-15T18:02:47Z</time>
      </trkpt>
      <trkpt lat="59.4901563043" lon="17.8384999768">
        <ele>140.2</ele>
        <time>2012-09-15T18:02:48Z</time>
      </trkpt>
      <trkpt lat="59.4901960345" lon="17.8385395394">
        <ele>139.8</ele>
        <time>2012-09-15T18:02:49Z</time>
      </trkpt>
      <trkpt lat="59.4902390337" lon="17.8385801916">
        <ele>139.8</ele>
        <time>2012-09-15T18:02:50Z</time>
      </trkpt>
      <trkpt lat="59.4902824519" lon="17.8386143898">
        <ele>139.8</ele>
        <time>2012-09-15T18:02:51Z</time>
      </trkpt>
      <trkpt lat="59.4904086833" lon="17.838777753">
        <ele>139.8</ele>
        <time>2012-09-15T18:02:55Z</time>
      </trkpt>
      <trkpt lat="59.4905707054" lon="17.8390313055">
        <ele>139.4</ele>
        <time>2012-09-15T18:03:00Z</time>
      </trkpt>
      <trkpt lat="59.4906055741" lon="17.8390966005">
        <ele>139</ele>
        <time>2012-09-15T18:03:01Z</time>
      </trkpt>
      <trkpt lat="59.4906308875" lon="17.8391568663">
        <ele>138.4</ele>
        <time>2012-09-15T18:03:02Z</time>
      </trkpt>
      <trkpt lat="59.4906567876" lon="17.8392170484">
        <ele>138</ele>
        <time>2012-09-15T18:03:03Z</time>
      </trkpt>
      <trkpt lat="59.4906870462" lon="17.8392841036">
        <ele>137.6</ele>
        <time>2012-09-15T18:03:04Z</time>
      </trkpt>
      <trkpt lat="59.4907199871" lon="17.8393676711">
        <ele>137.6</ele>
        <time>2012-09-15T18:03:05Z</time>
      </trkpt>
      <trkpt lat="59.490809841" lon="17.8398869298">
        <ele>137.6</ele>
        <time>2012-09-15T18:03:10Z</time>
      </trkpt>
      <trkpt lat="59.4907955918" lon="17.8403523767">
        <ele>136.6</ele>
        <time>2012-09-15T18:03:14Z</time>
      </trkpt>
      <trkpt lat="59.4907811749" lon="17.8404534624">
        <ele>136.2</ele>
        <time>2012-09-15T18:03:15Z</time>
      </trkpt>
      <trkpt lat="59.4907659199" lon="17.8405469206">
        <ele>135.4</ele>
        <time>2012-09-15T18:03:16Z</time>
      </trkpt>
      <trkpt lat="59.4907447975" lon="17.8406347629">
        <ele>134.8</ele>
        <time>2012-09-15T18:03:17Z</time>
      </trkpt>
      <trkpt lat="59.4907176401" lon="17.8407166541">
        <ele>134.2</ele>
        <time>2012-09-15T18:03:18Z</time>
      </trkpt>
      <trkpt lat="59.4906862918" lon="17.8407838769">
        <ele>133.6</ele>
        <time>2012-09-15T18:03:19Z</time>
      </trkpt>
      <trkpt lat="59.4906546083" lon="17.8408541173">
        <ele>133</ele>
        <time>2012-09-15T18:03:20Z</time>
      </trkpt>
      <trkpt lat="59.4905914087" lon="17.8410840328">
        <ele>133</ele>
        <time>2012-09-15T18:03:23Z</time>
      </trkpt>
      <trkpt lat="59.4906052389" lon="17.8414077418">
        <ele>133</ele>
        <time>2012-09-15T18:03:27Z</time>
      </trkpt>
      <trkpt lat="59.4906258583" lon="17.8416826681">
        <ele>132.4</ele>
        <time>2012-09-15T18:03:31Z</time>
      </trkpt>
      <trkpt lat="59.4906370063" lon="17.8417337977">
        <ele>132</ele>
        <time>2012-09-15T18:03:32Z</time>
      </trkpt>
      <trkpt lat="59.4906490762" lon="17.8417765454">
        <ele>131.6</ele>
        <time>2012-09-15T18:03:33Z</time>
      </trkpt>
      <trkpt lat="59.4906644151" lon="17.8418057144">
        <ele>131.2</ele>
        <time>2012-09-15T18:03:34Z</time>
      </trkpt>
      <trkpt lat="59.4906856213" lon="17.8418177843">
        <ele>130.8</ele>
        <time>2012-09-15T18:03:35Z</time>
      </trkpt>
      <trkpt lat="59.4907124434" lon="17.8418186225">
        <ele>130.8</ele>
        <time>2012-09-15T18:03:36Z</time>
      </trkpt>
      <trkpt lat="59.490908496" lon="17.8418010205">
        <ele>130.8</ele>
        <time>2012-09-15T18:03:41Z</time>
      </trkpt>
      <trkpt lat="59.4912115855" lon="17.8418203827">
        <ele>130.8</ele>
        <time>2012-09-15T18:03:47Z</time>
      </trkpt>
      <trkpt lat="59.4913865996" lon="17.8420005935">
        <ele>130.8</ele>
        <time>2012-09-15T18:03:51Z</time>
      </trkpt>
      <trkpt lat="59.4914321971" lon="17.8422501227">
        <ele>130.8</ele>
        <time>2012-09-15T18:03:54Z</time>
      </trkpt>
      <trkpt lat="59.4914218874" lon="17.8424471812">
        <ele>130.8</ele>
        <time>2012-09-15T18:03:56Z</time>
      </trkpt>
      <trkpt lat="59.491388276" lon="17.8427516956">
        <ele>130.8</ele>
        <time>2012-09-15T18:03:59Z</time>
      </trkpt>
      <trkpt lat="59.4913163593" lon="17.843345637">
        <ele>130.8</ele>
        <time>2012-09-15T18:04:05Z</time>
      </trkpt>
      <trkpt lat="59.4912674928" lon="17.8438650634">
        <ele>130.8</ele>
        <time>2012-09-15T18:04:10Z</time>
      </trkpt>
      <trkpt lat="59.4912725219" lon="17.8439643889">
        <ele>130.8</ele>
        <time>2012-09-15T18:04:11Z</time>
      </trkpt>
      <trkpt lat="59.4913173651" lon="17.8441891915">
        <ele>130.4</ele>
        <time>2012-09-15T18:04:14Z</time>
      </trkpt>
      <trkpt lat="59.4913404991" lon="17.8442526424">
        <ele>130</ele>
        <time>2012-09-15T18:04:15Z</time>
      </trkpt>
      <trkpt lat="59.4913676565" lon="17.8443137465">
        <ele>129.6</ele>
        <time>2012-09-15T18:04:16Z</time>
      </trkpt>
      <trkpt lat="59.4913962388" lon="17.8443745991">
        <ele>129</ele>
        <time>2012-09-15T18:04:17Z</time>
      </trkpt>
      <trkpt lat="59.4914239829" lon="17.8444350326">
        <ele>128.6</ele>
        <time>2012-09-15T18:04:18Z</time>
      </trkpt>
      <trkpt lat="59.4915269964" lon="17.8446953744">
        <ele>128.6</ele>
        <time>2012-09-15T18:04:22Z</time>
      </trkpt>
      <trkpt lat="59.4916538984" lon="17.8449069335">
        <ele>128.6</ele>
        <time>2012-09-15T18:04:26Z</time>
      </trkpt>
      <trkpt lat="59.4919128153" lon="17.8454166369">
        <ele>128.6</ele>
        <time>2012-09-15T18:04:34Z</time>
      </trkpt>
      <trkpt lat="59.4919449179" lon="17.8454758969">
        <ele>128.6</ele>
        <time>2012-09-15T18:04:35Z</time>
      </trkpt>
      <trkpt lat="59.4920582412" lon="17.8456592091">
        <ele>128.6</ele>
        <time>2012-09-15T18:04:39Z</time>
      </trkpt>
      <trkpt lat="59.4920936128" lon="17.8456969276">
        <ele>128.6</ele>
        <time>2012-09-15T18:04:40Z</time>
      </trkpt>
      <trkpt lat="59.4921826286" lon="17.8459150247">
        <ele>128.6</ele>
        <time>2012-09-15T18:04:44Z</time>
      </trkpt>
      <trkpt lat="59.4921691338" lon="17.8460555891">
        <ele>128.6</ele>
        <time>2012-09-15T18:04:46Z</time>
      </trkpt>
      <trkpt lat="59.4921513641" lon="17.8462013504">
        <ele>128.6</ele>
        <time>2012-09-15T18:04:48Z</time>
      </trkpt>
      <trkpt lat="59.4921431499" lon="17.8464782045">
        <ele>128.6</ele>
        <time>2012-09-15T18:04:51Z</time>
      </trkpt>
      <trkpt lat="59.4921461674" lon="17.846569232">
        <ele>128.6</ele>
        <time>2012-09-15T18:04:52Z</time>
      </trkpt>
      <trkpt lat="59.4921346842" lon="17.8468479301">
        <ele>128.6</ele>
        <time>2012-09-15T18:04:55Z</time>
      </trkpt>
      <trkpt lat="59.4920979714" lon="17.8471195875">
        <ele>128.6</ele>
        <time>2012-09-15T18:04:58Z</time>
      </trkpt>
      <trkpt lat="59.4920725743" lon="17.8473118683">
        <ele>129</ele>
        <time>2012-09-15T18:05:00Z</time>
      </trkpt>
      <trkpt lat="59.4920621807" lon="17.8474163906">
        <ele>129.4</ele>
        <time>2012-09-15T18:05:01Z</time>
      </trkpt>
      <trkpt lat="59.492058828" lon="17.8475241818">
        <ele>129.8</ele>
        <time>2012-09-15T18:05:02Z</time>
      </trkpt>
      <trkpt lat="59.492062516" lon="17.8476326436">
        <ele>130.2</ele>
        <time>2012-09-15T18:05:03Z</time>
      </trkpt>
      <trkpt lat="59.4920725743" lon="17.8477376688">
        <ele>130.6</ele>
        <time>2012-09-15T18:05:04Z</time>
      </trkpt>
      <trkpt lat="59.4921144" lon="17.8479509044">
        <ele>130.6</ele>
        <time>2012-09-15T18:05:06Z</time>
      </trkpt>
      <trkpt lat="59.4921372825" lon="17.8480586956">
        <ele>130.6</ele>
        <time>2012-09-15T18:05:07Z</time>
      </trkpt>
      <trkpt lat="59.4921793597" lon="17.8482919639">
        <ele>130.6</ele>
        <time>2012-09-15T18:05:09Z</time>
      </trkpt>
      <trkpt lat="59.4921928545" lon="17.8484273315">
        <ele>130.2</ele>
        <time>2012-09-15T18:05:10Z</time>
      </trkpt>
      <trkpt lat="59.4921996439" lon="17.8485726737">
        <ele>129.8</ele>
        <time>2012-09-15T18:05:11Z</time>
      </trkpt>
      <trkpt lat="59.4921996439" lon="17.8487213686">
        <ele>129.4</ele>
        <time>2012-09-15T18:05:12Z</time>
      </trkpt>
      <trkpt lat="59.4921962073" lon="17.8488654535">
        <ele>129</ele>
        <time>2012-09-15T18:05:13Z</time>
      </trkpt>
      <trkpt lat="59.4921913458" lon="17.8490111309">
        <ele>128.6</ele>
        <time>2012-09-15T18:05:14Z</time>
      </trkpt>
      <trkpt lat="59.4921800302" lon="17.8492696287">
        <ele>128.6</ele>
        <time>2012-09-15T18:05:16Z</time>
      </trkpt>
      <trkpt lat="59.4921729894" lon="17.8493882326">
        <ele>127.8</ele>
        <time>2012-09-15T18:05:17Z</time>
      </trkpt>
      <trkpt lat="59.4921662839" lon="17.8495070879">
        <ele>127.4</ele>
        <time>2012-09-15T18:05:18Z</time>
      </trkpt>
      <trkpt lat="59.4921595784" lon="17.8496243507">
        <ele>127</ele>
        <time>2012-09-15T18:05:19Z</time>
      </trkpt>
      <trkpt lat="59.4921516156" lon="17.8497421164">
        <ele>126.6</ele>
        <time>2012-09-15T18:05:20Z</time>
      </trkpt>
      <trkpt lat="59.4921291521" lon="17.8499717804">
        <ele>126.6</ele>
        <time>2012-09-15T18:05:22Z</time>
      </trkpt>
      <trkpt lat="59.4921157411" lon="17.8500665797">
        <ele>126.6</ele>
        <time>2012-09-15T18:05:23Z</time>
      </trkpt>
      <trkpt lat="59.4920918526" lon="17.8504672346">
        <ele>126.6</ele>
        <time>2012-09-15T18:05:28Z</time>
      </trkpt>
      <trkpt lat="59.4920998993" lon="17.8506065417">
        <ele>126.6</ele>
        <time>2012-09-15T18:05:32Z</time>
      </trkpt>
      <trkpt lat="59.4921106281" lon="17.8506327771">
        <ele>126.6</ele>
        <time>2012-09-15T18:05:38Z</time>
      </trkpt>
      <trkpt lat="59.4921102928" lon="17.8506335314">
        <ele>126.6</ele>
        <time>2012-09-15T18:05:43Z</time>
      </trkpt>
      <trkpt lat="59.4921025815" lon="17.8506541509">
        <ele>126.6</ele>
        <time>2012-09-15T18:05:44Z</time>
      </trkpt>
      <trkpt lat="59.4920930261" lon="17.8507810529">
        <ele>126.6</ele>
        <time>2012-09-15T18:05:47Z</time>
      </trkpt>
      <trkpt lat="59.4920936128" lon="17.8508336074">
        <ele>126.6</ele>
        <time>2012-09-15T18:05:48Z</time>
      </trkpt>
      <trkpt lat="59.4920831355" lon="17.8510140697">
        <ele>126.6</ele>
        <time>2012-09-15T18:05:51Z</time>
      </trkpt>
      <trkpt lat="59.4920945349" lon="17.8510859864">
        <ele>126.6</ele>
        <time>2012-09-15T18:05:52Z</time>
      </trkpt>
      <trkpt lat="59.4921471732" lon="17.8511609206">
        <ele>126.6</ele>
        <time>2012-09-15T18:05:54Z</time>
      </trkpt>
      <trkpt lat="59.4922809483" lon="17.851097302">
        <ele>126.6</ele>
        <time>2012-09-15T18:05:57Z</time>
      </trkpt>
      <trkpt lat="59.4923289766" lon="17.8510530455">
        <ele>126.6</ele>
        <time>2012-09-15T18:05:58Z</time>
      </trkpt>
      <trkpt lat="59.4925676931" lon="17.8508816357">
        <ele>126.6</ele>
        <time>2012-09-15T18:06:03Z</time>
      </trkpt>
      <trkpt lat="59.4927341576" lon="17.8507710784">
        <ele>127</ele>
        <time>2012-09-15T18:06:06Z</time>
      </trkpt>
      <trkpt lat="59.4927994526" lon="17.8507335275">
        <ele>127.8</ele>
        <time>2012-09-15T18:06:07Z</time>
      </trkpt>
      <trkpt lat="59.4928630713" lon="17.8507017601">
        <ele>128.2</ele>
        <time>2012-09-15T18:06:08Z</time>
      </trkpt>
      <trkpt lat="59.4929279472" lon="17.8506714176">
        <ele>128.6</ele>
        <time>2012-09-15T18:06:09Z</time>
      </trkpt>
      <trkpt lat="59.493456426" lon="17.8504659773">
        <ele>128.6</ele>
        <time>2012-09-15T18:06:17Z</time>
      </trkpt>
      <trkpt lat="59.4939747627" lon="17.8503783026">
        <ele>128.6</ele>
        <time>2012-09-15T18:06:25Z</time>
      </trkpt>
      <trkpt lat="59.4940375431" lon="17.8503760395">
        <ele>128.6</ele>
        <time>2012-09-15T18:06:26Z</time>
      </trkpt>
      <trkpt lat="59.4943138105" lon="17.8503891152">
        <ele>128.6</ele>
        <time>2012-09-15T18:06:30Z</time>
      </trkpt>
      <trkpt lat="59.4949177264" lon="17.8503713456">
        <ele>129</ele>
        <time>2012-09-15T18:06:39Z</time>
      </trkpt>
      <trkpt lat="59.494982267" lon="17.8503709265">
        <ele>129.4</ele>
        <time>2012-09-15T18:06:40Z</time>
      </trkpt>
      <trkpt lat="59.495047143" lon="17.8503716809">
        <ele>129.8</ele>
        <time>2012-09-15T18:06:41Z</time>
      </trkpt>
      <trkpt lat="59.495111935" lon="17.8503743631">
        <ele>130.4</ele>
        <time>2012-09-15T18:06:42Z</time>
      </trkpt>
      <trkpt lat="59.4951753022" lon="17.8503746146">
        <ele>130.8</ele>
        <time>2012-09-15T18:06:43Z</time>
      </trkpt>
      <trkpt lat="59.4954260048" lon="17.8503703398">
        <ele>130.8</ele>
        <time>2012-09-15T18:06:47Z</time>
      </trkpt>
      <trkpt lat="59.4958549067" lon="17.8503604491">
        <ele>130.8</ele>
        <time>2012-09-15T18:06:54Z</time>
      </trkpt>
      <trkpt lat="59.4961729159" lon="17.85035081">
        <ele>131.2</ele>
        <time>2012-09-15T18:06:59Z</time>
      </trkpt>
      <trkpt lat="59.4962423181" lon="17.8503539113">
        <ele>131.6</ele>
        <time>2012-09-15T18:07:00Z</time>
      </trkpt>
      <trkpt lat="59.4963142348" lon="17.8503541627">
        <ele>132</ele>
        <time>2012-09-15T18:07:01Z</time>
      </trkpt>
      <trkpt lat="59.4963869058" lon="17.8503528216">
        <ele>132.4</ele>
        <time>2012-09-15T18:07:02Z</time>
      </trkpt>
      <trkpt lat="59.4964603313" lon="17.8503529893">
        <ele>133</ele>
        <time>2012-09-15T18:07:03Z</time>
      </trkpt>
      <trkpt lat="59.4968937593" lon="17.850366987">
        <ele>133</ele>
        <time>2012-09-15T18:07:09Z</time>
      </trkpt>
      <trkpt lat="59.4973193922" lon="17.8504733533">
        <ele>133</ele>
        <time>2012-09-15T18:07:15Z</time>
      </trkpt>
      <trkpt lat="59.4977901197" lon="17.8507826454">
        <ele>133</ele>
        <time>2012-09-15T18:07:22Z</time>
      </trkpt>
      <trkpt lat="59.4982983981" lon="17.8512854756">
        <ele>133</ele>
        <time>2012-09-15T18:07:30Z</time>
      </trkpt>
      <trkpt lat="59.4988203391" lon="17.8518158823">
        <ele>133</ele>
        <time>2012-09-15T18:07:38Z</time>
      </trkpt>
      <trkpt lat="59.499352925" lon="17.8523659025">
        <ele>133</ele>
        <time>2012-09-15T18:07:46Z</time>
      </trkpt>
      <trkpt lat="59.4997492212" lon="17.8527754422">
        <ele>133</ele>
        <time>2012-09-15T18:07:52Z</time>
      </trkpt>
      <trkpt lat="59.5002429989" lon="17.8532773503">
        <ele>133</ele>
        <time>2012-09-15T18:08:00Z</time>
      </trkpt>
      <trkpt lat="59.5007423087" lon="17.8538038175">
        <ele>133</ele>
        <time>2012-09-15T18:08:08Z</time>
      </trkpt>
      <trkpt lat="59.5008041671" lon="17.8538680228">
        <ele>133.4</ele>
        <time>2012-09-15T18:08:09Z</time>
      </trkpt>
      <trkpt lat="59.5008661094" lon="17.8539298813">
        <ele>133.8</ele>
        <time>2012-09-15T18:08:10Z</time>
      </trkpt>
      <trkpt lat="59.5009274649" lon="17.8539924941">
        <ele>134.6</ele>
        <time>2012-09-15T18:08:11Z</time>
      </trkpt>
      <trkpt lat="59.5009881499" lon="17.8540523408">
        <ele>135</ele>
        <time>2012-09-15T18:08:12Z</time>
      </trkpt>
      <trkpt lat="59.5013489906" lon="17.8544290234">
        <ele>135</ele>
        <time>2012-09-15T18:08:18Z</time>
      </trkpt>
      <trkpt lat="59.5018281001" lon="17.8549346196">
        <ele>135</ele>
        <time>2012-09-15T18:08:26Z</time>
      </trkpt>
      <trkpt lat="59.5018874439" lon="17.8549938796">
        <ele>135</ele>
        <time>2012-09-15T18:08:27Z</time>
      </trkpt>
      <trkpt lat="59.5023564112" lon="17.8554908425">
        <ele>135</ele>
        <time>2012-09-15T18:08:35Z</time>
      </trkpt>
      <trkpt lat="59.5028606663" lon="17.855992583">
        <ele>135</ele>
        <time>2012-09-15T18:08:43Z</time>
      </trkpt>
      <trkpt lat="59.5034018856" lon="17.8565494765">
        <ele>134.6</ele>
        <time>2012-09-15T18:08:51Z</time>
      </trkpt>
      <trkpt lat="59.5034728803" lon="17.8566217284">
        <ele>134.2</ele>
        <time>2012-09-15T18:08:52Z</time>
      </trkpt>
      <trkpt lat="59.5035442103" lon="17.8566916335">
        <ele>133.8</ele>
        <time>2012-09-15T18:08:53Z</time>
      </trkpt>
      <trkpt lat="59.5036208208" lon="17.856762712">
        <ele>133.4</ele>
        <time>2012-09-15T18:08:54Z</time>
      </trkpt>
      <trkpt lat="59.5036960065" lon="17.8568332876">
        <ele>133</ele>
        <time>2012-09-15T18:08:55Z</time>
      </trkpt>
      <trkpt lat="59.5038468807" lon="17.8569821501">
        <ele>132.4</ele>
        <time>2012-09-15T18:08:57Z</time>
      </trkpt>
      <trkpt lat="59.5039230721" lon="17.8570594313">
        <ele>132</ele>
        <time>2012-09-15T18:08:58Z</time>
      </trkpt>
      <trkpt lat="59.5039988445" lon="17.8571389755">
        <ele>131.4</ele>
        <time>2012-09-15T18:08:59Z</time>
      </trkpt>
      <trkpt lat="59.504077802" lon="17.8572217048">
        <ele>130.6</ele>
        <time>2012-09-15T18:09:00Z</time>
      </trkpt>
      <trkpt lat="59.5041551669" lon="17.8572977287">
        <ele>130</ele>
        <time>2012-09-15T18:09:01Z</time>
      </trkpt>
      <trkpt lat="59.5042332863" lon="17.8573755127">
        <ele>129.6</ele>
        <time>2012-09-15T18:09:02Z</time>
      </trkpt>
      <trkpt lat="59.5043137525" lon="17.8574547217">
        <ele>129.2</ele>
        <time>2012-09-15T18:09:03Z</time>
      </trkpt>
      <trkpt lat="59.5043961466" lon="17.8575340144">
        <ele>128.8</ele>
        <time>2012-09-15T18:09:04Z</time>
      </trkpt>
      <trkpt lat="59.5044797141" lon="17.8576139778">
        <ele>128.4</ele>
        <time>2012-09-15T18:09:05Z</time>
      </trkpt>
      <trkpt lat="59.5045642037" lon="17.8576965395">
        <ele>127.8</ele>
        <time>2012-09-15T18:09:06Z</time>
      </trkpt>
      <trkpt lat="59.504647855" lon="17.857784298">
        <ele>127.4</ele>
        <time>2012-09-15T18:09:07Z</time>
      </trkpt>
      <trkpt lat="59.5047328475" lon="17.857870883">
        <ele>127</ele>
        <time>2012-09-15T18:09:08Z</time>
      </trkpt>
      <trkpt lat="59.5048221986" lon="17.8579560431">
        <ele>126.6</ele>
        <time>2012-09-15T18:09:09Z</time>
      </trkpt>
      <trkpt lat="59.5049105438" lon="17.8580398621">
        <ele>126</ele>
        <time>2012-09-15T18:09:10Z</time>
      </trkpt>
      <trkpt lat="59.5049976317" lon="17.8581159698">
        <ele>125.6</ele>
        <time>2012-09-15T18:09:11Z</time>
      </trkpt>
      <trkpt lat="59.5050780141" lon="17.8581877188">
        <ele>125.2</ele>
        <time>2012-09-15T18:09:12Z</time>
      </trkpt>
      <trkpt lat="59.5051542056" lon="17.858261731">
        <ele>124.8</ele>
        <time>2012-09-15T18:09:13Z</time>
      </trkpt>
      <trkpt lat="59.5052262061" lon="17.858336749">
        <ele>124.4</ele>
        <time>2012-09-15T18:09:14Z</time>
      </trkpt>
      <trkpt lat="59.5052904115" lon="17.8583945841">
        <ele>123.8</ele>
        <time>2012-09-15T18:09:15Z</time>
      </trkpt>
      <trkpt lat="59.5053434689" lon="17.8584319674">
        <ele>123.2</ele>
        <time>2012-09-15T18:09:16Z</time>
      </trkpt>
      <trkpt lat="59.5053861328" lon="17.8584461328">
        <ele>122.8</ele>
        <time>2012-09-15T18:09:17Z</time>
      </trkpt>
      <trkpt lat="59.5054158047" lon="17.8584373318">
        <ele>122.2</ele>
        <time>2012-09-15T18:09:18Z</time>
      </trkpt>
      <trkpt lat="59.5054327361" lon="17.8584149521">
        <ele>121.6</ele>
        <time>2012-09-15T18:09:19Z</time>
      </trkpt>
      <trkpt lat="59.5054417048" lon="17.8583820113">
        <ele>121</ele>
        <time>2012-09-15T18:09:20Z</time>
      </trkpt>
      <trkpt lat="59.5054442193" lon="17.8583419458">
        <ele>120.6</ele>
        <time>2012-09-15T18:09:21Z</time>
      </trkpt>
      <trkpt lat="59.5054463148" lon="17.8583061551">
        <ele>120</ele>
        <time>2012-09-15T18:09:22Z</time>
      </trkpt>
      <trkpt lat="59.5054487456" lon="17.8582754773">
        <ele>119.4</ele>
        <time>2012-09-15T18:09:23Z</time>
      </trkpt>
      <trkpt lat="59.505450422" lon="17.8582605575">
        <ele>119.4</ele>
        <time>2012-09-15T18:09:26Z</time>
      </trkpt>
      <trkpt lat="59.505450422" lon="17.8582605575">
        <ele>119.4</ele>
        <time>2012-09-15T18:09:32Z</time>
      </trkpt>
      <trkpt lat="59.505450422" lon="17.8582605575">
        <ele>119</ele>
        <time>2012-09-15T18:09:33Z</time>
      </trkpt>
      <trkpt lat="59.505450422" lon="17.8582605575">
        <ele>118.6</ele>
        <time>2012-09-15T18:09:34Z</time>
      </trkpt>
      <trkpt lat="59.505450422" lon="17.8582605575">
        <ele>118.2</ele>
        <time>2012-09-15T18:09:35Z</time>
      </trkpt>
      <trkpt lat="59.5054512601" lon="17.8582591326">
        <ele>117.8</ele>
        <time>2012-09-15T18:09:36Z</time>
      </trkpt>
      <trkpt lat="59.505450422" lon="17.8582605575">
        <ele>117.4</ele>
        <time>2012-09-15T18:09:37Z</time>
      </trkpt>
      <trkpt lat="59.505450422" lon="17.8582605575">
        <ele>117.4</ele>
        <time>2012-09-15T18:09:38Z</time>
      </trkpt>
      <trkpt lat="59.5054672696" lon="17.8581608129">
        <ele>117.4</ele>
        <time>2012-09-15T18:09:41Z</time>
      </trkpt>
      <trkpt lat="59.5055075865" lon="17.8578293926">
        <ele>117.4</ele>
        <time>2012-09-15T18:09:44Z</time>
      </trkpt>
      <trkpt lat="59.5055754799" lon="17.8573211142">
        <ele>117.4</ele>
        <time>2012-09-15T18:09:48Z</time>
      </trkpt>
      <trkpt lat="59.5055818501" lon="17.8571295039">
        <ele>117.4</ele>
        <time>2012-09-15T18:09:50Z</time>
      </trkpt>
      <trkpt lat="59.5055934172" lon="17.8569546575">
        <ele>117.4</ele>
        <time>2012-09-15T18:09:52Z</time>
      </trkpt>
      <trkpt lat="59.5056195687" lon="17.8567750334">
        <ele>117.4</ele>
        <time>2012-09-15T18:09:54Z</time>
      </trkpt>
      <trkpt lat="59.5056390147" lon="17.8566894542">
        <ele>117.4</ele>
        <time>2012-09-15T18:09:55Z</time>
      </trkpt>
      <trkpt lat="59.505661562" lon="17.8566044617">
        <ele>117.8</ele>
        <time>2012-09-15T18:09:56Z</time>
      </trkpt>
      <trkpt lat="59.505685199" lon="17.8565235764">
        <ele>118.2</ele>
        <time>2012-09-15T18:09:57Z</time>
      </trkpt>
      <trkpt lat="59.5057104285" lon="17.8564484746">
        <ele>118.6</ele>
        <time>2012-09-15T18:09:58Z</time>
      </trkpt>
      <trkpt lat="59.5057370829" lon="17.8563754682">
        <ele>119.2</ele>
        <time>2012-09-15T18:09:59Z</time>
      </trkpt>
      <trkpt lat="59.5057651623" lon="17.8563025457">
        <ele>119.6</ele>
        <time>2012-09-15T18:10:00Z</time>
      </trkpt>
      <trkpt lat="59.5058230812" lon="17.8561755599">
        <ele>120</ele>
        <time>2012-09-15T18:10:02Z</time>
      </trkpt>
      <trkpt lat="59.5058586205" lon="17.8561110193">
        <ele>120.4</ele>
        <time>2012-09-15T18:10:03Z</time>
      </trkpt>
      <trkpt lat="59.5058913937" lon="17.8560525136">
        <ele>120.8</ele>
        <time>2012-09-15T18:10:04Z</time>
      </trkpt>
      <trkpt lat="59.5059219876" lon="17.8559929183">
        <ele>121.4</ele>
        <time>2012-09-15T18:10:05Z</time>
      </trkpt>
      <trkpt lat="59.5059562696" lon="17.8559344126">
        <ele>121.8</ele>
        <time>2012-09-15T18:10:06Z</time>
      </trkpt>
      <trkpt lat="59.5060327125" lon="17.8558261185">
        <ele>121.8</ele>
        <time>2012-09-15T18:10:08Z</time>
      </trkpt>
      <trkpt lat="59.506167242" lon="17.8556734003">
        <ele>121.8</ele>
        <time>2012-09-15T18:10:11Z</time>
      </trkpt>
      <trkpt lat="59.5062703394" lon="17.8556140564">
        <ele>121.8</ele>
        <time>2012-09-15T18:10:13Z</time>
      </trkpt>
      <trkpt lat="59.5065719202" lon="17.8554148187">
        <ele>121.8</ele>
        <time>2012-09-15T18:10:18Z</time>
      </trkpt>
      <trkpt lat="59.5068588326" lon="17.85512338">
        <ele>121.8</ele>
        <time>2012-09-15T18:10:23Z</time>
      </trkpt>
      <trkpt lat="59.5071482596" lon="17.8547600246">
        <ele>121.8</ele>
        <time>2012-09-15T18:10:28Z</time>
      </trkpt>
      <trkpt lat="59.5071926837" lon="17.8546752836">
        <ele>121.8</ele>
        <time>2012-09-15T18:10:29Z</time>
      </trkpt>
      <trkpt lat="59.507302738" lon="17.8543908858">
        <ele>121.8</ele>
        <time>2012-09-15T18:10:32Z</time>
      </trkpt>
      <trkpt lat="59.507518069" lon="17.8537912446">
        <ele>121.8</ele>
        <time>2012-09-15T18:10:38Z</time>
      </trkpt>
      <trkpt lat="59.507639439" lon="17.8532882468">
        <ele>121.8</ele>
        <time>2012-09-15T18:10:43Z</time>
      </trkpt>
      <trkpt lat="59.5076515089" lon="17.8531841436">
        <ele>121.8</ele>
        <time>2012-09-15T18:10:44Z</time>
      </trkpt>
      <trkpt lat="59.507660729" lon="17.8528889331">
        <ele>121.8</ele>
        <time>2012-09-15T18:10:47Z</time>
      </trkpt>
      <trkpt lat="59.5076727989" lon="17.8526922937">
        <ele>121.8</ele>
        <time>2012-09-15T18:10:49Z</time>
      </trkpt>
      <trkpt lat="59.5077216654" lon="17.8522889567">
        <ele>122.2</ele>
        <time>2012-09-15T18:10:54Z</time>
      </trkpt>
      <trkpt lat="59.5077432907" lon="17.8522150283">
        <ele>122.6</ele>
        <time>2012-09-15T18:10:55Z</time>
      </trkpt>
      <trkpt lat="59.5077681011" lon="17.8521511583">
        <ele>123</ele>
        <time>2012-09-15T18:10:56Z</time>
      </trkpt>
      <trkpt lat="59.5077965996" lon="17.8520887131">
        <ele>123.6</ele>
        <time>2012-09-15T18:10:57Z</time>
      </trkpt>
      <trkpt lat="59.5078270259" lon="17.8520319676">
        <ele>124</ele>
        <time>2012-09-15T18:10:58Z</time>
      </trkpt>
      <trkpt lat="59.5080078235" lon="17.8518159661">
        <ele>124</ele>
        <time>2012-09-15T18:11:02Z</time>
      </trkpt>
      <trkpt lat="59.5080651557" lon="17.8517392717">
        <ele>124</ele>
        <time>2012-09-15T18:11:03Z</time>
      </trkpt>
      <trkpt lat="59.5082027865" lon="17.8514770859">
        <ele>124</ele>
        <time>2012-09-15T18:11:06Z</time>
      </trkpt>
      <trkpt lat="59.5082371522" lon="17.851384382">
        <ele>124</ele>
        <time>2012-09-15T18:11:07Z</time>
      </trkpt>
      <trkpt lat="59.5083162774" lon="17.8510757605">
        <ele>124</ele>
        <time>2012-09-15T18:11:10Z</time>
      </trkpt>
      <trkpt lat="59.5083569296" lon="17.8508818033">
        <ele>124</ele>
        <time>2012-09-15T18:11:12Z</time>
      </trkpt>
      <trkpt lat="59.5083843384" lon="17.8506859183">
        <ele>124</ele>
        <time>2012-09-15T18:11:14Z</time>
      </trkpt>
      <trkpt lat="59.5084687441" lon="17.8501486385">
        <ele>124</ele>
        <time>2012-09-15T18:11:20Z</time>
      </trkpt>
      <trkpt lat="59.5085316084" lon="17.8497883007">
        <ele>124.4</ele>
        <time>2012-09-15T18:11:25Z</time>
      </trkpt>
      <trkpt lat="59.5085437622" lon="17.8497147076">
        <ele>125</ele>
        <time>2012-09-15T18:11:26Z</time>
      </trkpt>
      <trkpt lat="59.5085549101" lon="17.8496338222">
        <ele>125.4</ele>
        <time>2012-09-15T18:11:27Z</time>
      </trkpt>
      <trkpt lat="59.5085650522" lon="17.8495557867">
        <ele>125.8</ele>
        <time>2012-09-15T18:11:28Z</time>
      </trkpt>
      <trkpt lat="59.5085733503" lon="17.8494769131">
        <ele>126.4</ele>
        <time>2012-09-15T18:11:29Z</time>
      </trkpt>
      <trkpt lat="59.5085772898" lon="17.8493891546">
        <ele>126.4</ele>
        <time>2012-09-15T18:11:30Z</time>
      </trkpt>
      <trkpt lat="59.5085779603" lon="17.8492993844">
        <ele>126.8</ele>
        <time>2012-09-15T18:11:31Z</time>
      </trkpt>
      <trkpt lat="59.5085775412" lon="17.8492103686">
        <ele>127.2</ele>
        <time>2012-09-15T18:11:32Z</time>
      </trkpt>
      <trkpt lat="59.5085787985" lon="17.8491219396">
        <ele>127.6</ele>
        <time>2012-09-15T18:11:33Z</time>
      </trkpt>
      <trkpt lat="59.5085798043" lon="17.8490275594">
        <ele>128</ele>
        <time>2012-09-15T18:11:34Z</time>
      </trkpt>
      <trkpt lat="59.5085743561" lon="17.8489345203">
        <ele>128.4</ele>
        <time>2012-09-15T18:11:35Z</time>
      </trkpt>
      <trkpt lat="59.5085800558" lon="17.8486466021">
        <ele>128.4</ele>
        <time>2012-09-15T18:11:38Z</time>
      </trkpt>
      <trkpt lat="59.5086151759" lon="17.8483699155">
        <ele>128.4</ele>
        <time>2012-09-15T18:11:41Z</time>
      </trkpt>
      <trkpt lat="59.5086257371" lon="17.8482728531">
        <ele>128.4</ele>
        <time>2012-09-15T18:11:42Z</time>
      </trkpt>
      <trkpt lat="59.5086435068" lon="17.8480785607">
        <ele>128.8</ele>
        <time>2012-09-15T18:11:44Z</time>
      </trkpt>
      <trkpt lat="59.5086511343" lon="17.8479866112">
        <ele>129.2</ele>
        <time>2012-09-15T18:11:45Z</time>
      </trkpt>
      <trkpt lat="59.5086589295" lon="17.8479058097">
        <ele>129.6</ele>
        <time>2012-09-15T18:11:46Z</time>
      </trkpt>
      <trkpt lat="59.5086621146" lon="17.8478337254">
        <ele>130</ele>
        <time>2012-09-15T18:11:47Z</time>
      </trkpt>
      <trkpt lat="59.5086643777" lon="17.8477602161">
        <ele>130.4</ele>
        <time>2012-09-15T18:11:48Z</time>
      </trkpt>
      <trkpt lat="59.5086618631" lon="17.8476789955">
        <ele>130.4</ele>
        <time>2012-09-15T18:11:49Z</time>
      </trkpt>
      <trkpt lat="59.5085833247" lon="17.8472511833">
        <ele>130.4</ele>
        <time>2012-09-15T18:11:54Z</time>
      </trkpt>
      <trkpt lat="59.5084560037" lon="17.84680074">
        <ele>130.4</ele>
        <time>2012-09-15T18:11:58Z</time>
      </trkpt>
      <trkpt lat="59.5083083984" lon="17.8462202096">
        <ele>130.4</ele>
        <time>2012-09-15T18:12:03Z</time>
      </trkpt>
      <trkpt lat="59.5082745355" lon="17.8461032821">
        <ele>130.4</ele>
        <time>2012-09-15T18:12:04Z</time>
      </trkpt>
      <trkpt lat="59.508088625" lon="17.8453774096">
        <ele>130.4</ele>
        <time>2012-09-15T18:12:10Z</time>
      </trkpt>
      <trkpt lat="59.508034897" lon="17.8451374358">
        <ele>130.4</ele>
        <time>2012-09-15T18:12:12Z</time>
      </trkpt>
      <trkpt lat="59.5079446239" lon="17.8447725717">
        <ele>130.4</ele>
        <time>2012-09-15T18:12:15Z</time>
      </trkpt>
      <trkpt lat="59.5078316359" lon="17.8442922888">
        <ele>130</ele>
        <time>2012-09-15T18:12:19Z</time>
      </trkpt>
      <trkpt lat="59.5078017964" lon="17.8441707513">
        <ele>129.6</ele>
        <time>2012-09-15T18:12:20Z</time>
      </trkpt>
      <trkpt lat="59.5077706995" lon="17.8440470344">
        <ele>129.2</ele>
        <time>2012-09-15T18:12:21Z</time>
      </trkpt>
      <trkpt lat="59.5077404409" lon="17.8439257483">
        <ele>128.8</ele>
        <time>2012-09-15T18:12:22Z</time>
      </trkpt>
      <trkpt lat="59.5077101822" lon="17.8438078988">
        <ele>128.4</ele>
        <time>2012-09-15T18:12:23Z</time>
      </trkpt>
      <trkpt lat="59.5075506746" lon="17.8432569565">
        <ele>128.4</ele>
        <time>2012-09-15T18:12:28Z</time>
      </trkpt>
      <trkpt lat="59.507506502" lon="17.8430310643">
        <ele>128.4</ele>
        <time>2012-09-15T18:12:30Z</time>
      </trkpt>
      <trkpt lat="59.5074692026" lon="17.8427917611">
        <ele>128.4</ele>
        <time>2012-09-15T18:12:32Z</time>
      </trkpt>
      <trkpt lat="59.5073598188" lon="17.8423155853">
        <ele>128.4</ele>
        <time>2012-09-15T18:12:36Z</time>
      </trkpt>
      <trkpt lat="59.5072879021" lon="17.8420960634">
        <ele>128.4</ele>
        <time>2012-09-15T18:12:38Z</time>
      </trkpt>
      <trkpt lat="59.5070195136" lon="17.8413257668">
        <ele>128.4</ele>
        <time>2012-09-15T18:12:45Z</time>
      </trkpt>
      <trkpt lat="59.5069462558" lon="17.8408368505">
        <ele>128.4</ele>
        <time>2012-09-15T18:12:49Z</time>
      </trkpt>
      <trkpt lat="59.5068837269" lon="17.8401181864">
        <ele>128.4</ele>
        <time>2012-09-15T18:12:55Z</time>
      </trkpt>
      <trkpt lat="59.5068628559" lon="17.8400051146">
        <ele>128.4</ele>
        <time>2012-09-15T18:12:56Z</time>
      </trkpt>
      <trkpt lat="59.506794292" lon="17.8398107383">
        <ele>128.4</ele>
        <time>2012-09-15T18:12:58Z</time>
      </trkpt>
      <trkpt lat="59.5066258996" lon="17.8396631331">
        <ele>128.4</ele>
        <time>2012-09-15T18:13:01Z</time>
      </trkpt>
      <trkpt lat="59.5065655499" lon="17.8396393285">
        <ele>128.4</ele>
        <time>2012-09-15T18:13:02Z</time>
      </trkpt>
      <trkpt lat="59.5062864327" lon="17.839518713">
        <ele>128.4</ele>
        <time>2012-09-15T18:13:07Z</time>
      </trkpt>
      <trkpt lat="59.5058815869" lon="17.8393600436">
        <ele>128.4</ele>
        <time>2012-09-15T18:13:14Z</time>
      </trkpt>
      <trkpt lat="59.5057658329" lon="17.839307992">
        <ele>128.4</ele>
        <time>2012-09-15T18:13:16Z</time>
      </trkpt>
      <trkpt lat="59.5056639928" lon="17.8391766476">
        <ele>128.4</ele>
        <time>2012-09-15T18:13:18Z</time>
      </trkpt>
      <trkpt lat="59.505612025" lon="17.8388482448">
        <ele>128.4</ele>
        <time>2012-09-15T18:13:21Z</time>
      </trkpt>
      <trkpt lat="59.5056240111" lon="17.8385361866">
        <ele>128.4</ele>
        <time>2012-09-15T18:13:24Z</time>
      </trkpt>
      <trkpt lat="59.5056322254" lon="17.8384430637">
        <ele>128.4</ele>
        <time>2012-09-15T18:13:25Z</time>
      </trkpt>
      <trkpt lat="59.5056450497" lon="17.8383506952">
        <ele>128.4</ele>
        <time>2012-09-15T18:13:26Z</time>
      </trkpt>
      <trkpt lat="59.5056800022" lon="17.8379704084">
        <ele>128.4</ele>
        <time>2012-09-15T18:13:30Z</time>
      </trkpt>
      <trkpt lat="59.5056838579" lon="17.837877034">
        <ele>128.8</ele>
        <time>2012-09-15T18:13:31Z</time>
      </trkpt>
      <trkpt lat="59.5056788287" lon="17.8377887726">
        <ele>129.8</ele>
        <time>2012-09-15T18:13:32Z</time>
      </trkpt>
      <trkpt lat="59.5056722908" lon="17.8376965717">
        <ele>130.2</ele>
        <time>2012-09-15T18:13:33Z</time>
      </trkpt>
      <trkpt lat="59.5056641604" lon="17.8376137585">
        <ele>130.8</ele>
        <time>2012-09-15T18:13:34Z</time>
      </trkpt>
      <trkpt lat="59.5056215804" lon="17.8373197215">
        <ele>130.8</ele>
        <time>2012-09-15T18:13:38Z</time>
      </trkpt>
      <trkpt lat="59.5056062415" lon="17.8371468867">
        <ele>130.8</ele>
        <time>2012-09-15T18:13:40Z</time>
      </trkpt>
      <trkpt lat="59.5056167189" lon="17.8369379259">
        <ele>130.8</ele>
        <time>2012-09-15T18:13:43Z</time>
      </trkpt>
      <trkpt lat="59.5056474804" lon="17.8367945955">
        <ele>131.2</ele>
        <time>2012-09-15T18:13:45Z</time>
      </trkpt>
      <trkpt lat="59.5056641604" lon="17.8367146321">
        <ele>131.6</ele>
        <time>2012-09-15T18:13:46Z</time>
      </trkpt>
      <trkpt lat="59.5056691057" lon="17.8366315675">
        <ele>132</ele>
        <time>2012-09-15T18:13:47Z</time>
      </trkpt>
      <trkpt lat="59.5056548565" lon="17.8365409592">
        <ele>132.4</ele>
        <time>2012-09-15T18:13:48Z</time>
      </trkpt>
      <trkpt lat="59.505630549" lon="17.836452111">
        <ele>132.8</ele>
        <time>2012-09-15T18:13:49Z</time>
      </trkpt>
      <trkpt lat="59.5055660084" lon="17.8362827966">
        <ele>132.8</ele>
        <time>2012-09-15T18:13:51Z</time>
      </trkpt>
      <trkpt lat="59.5055348277" lon="17.8361884164">
        <ele>132.8</ele>
        <time>2012-09-15T18:13:52Z</time>
      </trkpt>
      <trkpt lat="59.5054810997" lon="17.8359896816">
        <ele>132.8</ele>
        <time>2012-09-15T18:13:54Z</time>
      </trkpt>
      <trkpt lat="59.5054112785" lon="17.8356980753">
        <ele>132.8</ele>
        <time>2012-09-15T18:13:57Z</time>
      </trkpt>
      <trkpt lat="59.5053069238" lon="17.8352047167">
        <ele>132.8</ele>
        <time>2012-09-15T18:14:02Z</time>
      </trkpt>
      <trkpt lat="59.5053007212" lon="17.8351123481">
        <ele>132.8</ele>
        <time>2012-09-15T18:14:03Z</time>
      </trkpt>
      <trkpt lat="59.5053149705" lon="17.8345908263">
        <ele>132.8</ele>
        <time>2012-09-15T18:14:08Z</time>
      </trkpt>
      <trkpt lat="59.505345732" lon="17.8339055222">
        <ele>132.8</ele>
        <time>2012-09-15T18:14:14Z</time>
      </trkpt>
      <trkpt lat="59.5053561256" lon="17.8337968089">
        <ele>132.8</ele>
        <time>2012-09-15T18:14:15Z</time>
      </trkpt>
      <trkpt lat="59.5054114461" lon="17.8333896162">
        <ele>132.8</ele>
        <time>2012-09-15T18:14:19Z</time>
      </trkpt>
      <trkpt lat="59.505473556" lon="17.8332046277">
        <ele>132.8</ele>
        <time>2012-09-15T18:14:21Z</time>
      </trkpt>
      <trkpt lat="59.5055836103" lon="17.8329363231">
        <ele>132.8</ele>
        <time>2012-09-15T18:14:24Z</time>
      </trkpt>
      <trkpt lat="59.5056192334" lon="17.8328617242">
        <ele>132.8</ele>
        <time>2012-09-15T18:14:25Z</time>
      </trkpt>
      <trkpt lat="59.5056553594" lon="17.8327821799">
        <ele>132.8</ele>
        <time>2012-09-15T18:14:26Z</time>
      </trkpt>
      <trkpt lat="59.50580791" lon="17.8323289706">
        <ele>132.8</ele>
        <time>2012-09-15T18:14:31Z</time>
      </trkpt>
      <trkpt lat="59.5058260149" lon="17.8322428047">
        <ele>132.8</ele>
        <time>2012-09-15T18:14:32Z</time>
      </trkpt>
      <trkpt lat="59.5058525017" lon="17.8320677906">
        <ele>132.8</ele>
        <time>2012-09-15T18:14:34Z</time>
      </trkpt>
      <trkpt lat="59.5058563574" lon="17.831880036">
        <ele>132.8</ele>
        <time>2012-09-15T18:14:36Z</time>
      </trkpt>
      <trkpt lat="59.5058390907" lon="17.8316968077">
        <ele>132.8</ele>
        <time>2012-09-15T18:14:38Z</time>
      </trkpt>
      <trkpt lat="59.5057860332" lon="17.8315530581">
        <ele>132.8</ele>
        <time>2012-09-15T18:14:40Z</time>
      </trkpt>
      <trkpt lat="59.5056674293" lon="17.8312591049">
        <ele>132.8</ele>
        <time>2012-09-15T18:14:44Z</time>
      </trkpt>
      <trkpt lat="59.505594423" lon="17.8311066381">
        <ele>132.8</ele>
        <time>2012-09-15T18:14:46Z</time>
      </trkpt>
      <trkpt lat="59.5054962709" lon="17.8308763035">
        <ele>132.8</ele>
        <time>2012-09-15T18:14:49Z</time>
      </trkpt>
      <trkpt lat="59.5053668544" lon="17.8305930791">
        <ele>132.8</ele>
        <time>2012-09-15T18:14:53Z</time>
      </trkpt>
      <trkpt lat="59.5051242822" lon="17.8300423883">
        <ele>132.8</ele>
        <time>2012-09-15T18:15:00Z</time>
      </trkpt>
      <trkpt lat="59.5050905032" lon="17.8299656101">
        <ele>132.4</ele>
        <time>2012-09-15T18:15:01Z</time>
      </trkpt>
      <trkpt lat="59.5050575623" lon="17.8299003989">
        <ele>132</ele>
        <time>2012-09-15T18:15:02Z</time>
      </trkpt>
      <trkpt lat="59.50502437" lon="17.8298247103">
        <ele>131.6</ele>
        <time>2012-09-15T18:15:03Z</time>
      </trkpt>
      <trkpt lat="59.5049889145" lon="17.8297548053">
        <ele>131.2</ele>
        <time>2012-09-15T18:15:04Z</time>
      </trkpt>
      <trkpt lat="59.5049520342" lon="17.8296811284">
        <ele>130.8</ele>
        <time>2012-09-15T18:15:05Z</time>
      </trkpt>
      <trkpt lat="59.5047278184" lon="17.8291857581">
        <ele>130.8</ele>
        <time>2012-09-15T18:15:11Z</time>
      </trkpt>
      <trkpt lat="59.5046611823" lon="17.8290447745">
        <ele>130.8</ele>
        <time>2012-09-15T18:15:13Z</time>
      </trkpt>
      <trkpt lat="59.5045670535" lon="17.8288503145">
        <ele>130.8</ele>
        <time>2012-09-15T18:15:16Z</time>
      </trkpt>
      <trkpt lat="59.5044289198" lon="17.8285906432">
        <ele>130.8</ele>
        <time>2012-09-15T18:15:20Z</time>
      </trkpt>
      <trkpt lat="59.5043474477" lon="17.8283923274">
        <ele>130.8</ele>
        <time>2012-09-15T18:15:23Z</time>
      </trkpt>
      <trkpt lat="59.5042938036" lon="17.8281613223">
        <ele>130.8</ele>
        <time>2012-09-15T18:15:26Z</time>
      </trkpt>
      <trkpt lat="59.5042691608" lon="17.828016483">
        <ele>130.8</ele>
        <time>2012-09-15T18:15:28Z</time>
      </trkpt>
      <trkpt lat="59.5041961544" lon="17.8277376172">
        <ele>130.8</ele>
        <time>2012-09-15T18:15:33Z</time>
      </trkpt>
      <trkpt lat="59.5041369782" lon="17.8274886748">
        <ele>130.8</ele>
        <time>2012-09-15T18:15:37Z</time>
      </trkpt>
      <trkpt lat="59.5040824121" lon="17.8271890219">
        <ele>130.8</ele>
        <time>2012-09-15T18:15:42Z</time>
      </trkpt>
      <trkpt lat="59.504068079" lon="17.8269839168">
        <ele>130.8</ele>
        <time>2012-09-15T18:15:46Z</time>
      </trkpt>
      <trkpt lat="59.5040645586" lon="17.8269463659">
        <ele>130.8</ele>
        <time>2012-09-15T18:15:47Z</time>
      </trkpt>
      <trkpt lat="59.5040384909" lon="17.8268015266">
        <ele>130.8</ele>
        <time>2012-09-15T18:15:50Z</time>
      </trkpt>
      <trkpt lat="59.5039072303" lon="17.8265518298">
        <ele>130.8</ele>
        <time>2012-09-15T18:15:56Z</time>
      </trkpt>
      <trkpt lat="59.5038375768" lon="17.8265227446">
        <ele>130.8</ele>
        <time>2012-09-15T18:16:00Z</time>
      </trkpt>
      <trkpt lat="59.5038074857" lon="17.82648972">
        <ele>130.8</ele>
        <time>2012-09-15T18:16:06Z</time>
      </trkpt>
      <trkpt lat="59.5037597927" lon="17.8264480619">
        <ele>130.8</ele>
        <time>2012-09-15T18:16:08Z</time>
      </trkpt>
      <trkpt lat="59.5037084117" lon="17.8263946692">
        <ele>130.8</ele>
        <time>2012-09-15T18:16:11Z</time>
      </trkpt>
      <trkpt lat="59.5036730401" lon="17.8263746365">
        <ele>130.8</ele>
        <time>2012-09-15T18:16:13Z</time>
      </trkpt>
      <trkpt lat="59.5035644945" lon="17.8262384306">
        <ele>130.8</ele>
        <time>2012-09-15T18:16:18Z</time>
      </trkpt>
      <trkpt lat="59.5035418633" lon="17.8262194037">
        <ele>130.8</ele>
        <time>2012-09-15T18:16:19Z</time>
      </trkpt>
      <trkpt lat="59.5034660909" lon="17.8261684417">
        <ele>130.8</ele>
        <time>2012-09-15T18:16:22Z</time>
      </trkpt>
      <trkpt lat="59.5033502531" lon="17.8260712117">
        <ele>130.8</ele>
        <time>2012-09-15T18:16:28Z</time>
      </trkpt>
      <trkpt lat="59.5032286317" lon="17.825991416">
        <ele>130.8</ele>
        <time>2012-09-15T18:16:33Z</time>
      </trkpt>
      <trkpt lat="59.503159062" lon="17.8259375204">
        <ele>130.8</ele>
        <time>2012-09-15T18:16:36Z</time>
      </trkpt>
      <trkpt lat="59.5031290548" lon="17.8258868937">
        <ele>130.8</ele>
        <time>2012-09-15T18:16:38Z</time>
      </trkpt>
      <trkpt lat="59.5030466607" lon="17.8258279689">
        <ele>130.8</ele>
        <time>2012-09-15T18:16:43Z</time>
      </trkpt>
      <trkpt lat="59.5030337525" lon="17.8258163181">
        <ele>130.8</ele>
        <time>2012-09-15T18:16:44Z</time>
      </trkpt>
      <trkpt lat="59.5029752469" lon="17.8258112051">
        <ele>130.8</ele>
        <time>2012-09-15T18:16:48Z</time>
      </trkpt>
      <trkpt lat="59.5028846385" lon="17.8257231952">
        <ele>130.8</ele>
        <time>2012-09-15T18:16:54Z</time>
      </trkpt>
      <trkpt lat="59.5028586547" lon="17.8257007317">
        <ele>130.8</ele>
        <time>2012-09-15T18:16:58Z</time>
      </trkpt>
      <trkpt lat="59.5028555534" lon="17.8256850576">
        <ele>130.8</ele>
        <time>2012-09-15T18:17:04Z</time>
      </trkpt>
      <trkpt lat="59.5028555534" lon="17.8256850576">
        <ele>130.8</ele>
        <time>2012-09-15T18:17:10Z</time>
      </trkpt>
      <trkpt lat="59.5028325031" lon="17.8256303237">
        <ele>130.8</ele>
        <time>2012-09-15T18:17:17Z</time>
      </trkpt>
      <trkpt lat="59.5028244565" lon="17.8256012386">
        <ele>130.8</ele>
        <time>2012-09-15T18:17:18Z</time>
      </trkpt>
      <trkpt lat="59.5027928567" lon="17.8254923577">
        <ele>130.8</ele>
        <time>2012-09-15T18:17:23Z</time>
      </trkpt>
      <trkpt lat="59.5027483489" lon="17.8253911043">
        <ele>130.8</ele>
        <time>2012-09-15T18:17:28Z</time>
      </trkpt>
      <trkpt lat="59.5027324232" lon="17.8253674674">
        <ele>130.8</ele>
        <time>2012-09-15T18:17:29Z</time>
      </trkpt>
      <trkpt lat="59.5026606742" lon="17.8252491988">
        <ele>130.8</ele>
        <time>2012-09-15T18:17:33Z</time>
      </trkpt>
      <trkpt lat="59.5025311738" lon="17.8251491189">
        <ele>130.8</ele>
        <time>2012-09-15T18:17:38Z</time>
      </trkpt>
      <trkpt lat="59.5024017573" lon="17.8251061197">
        <ele>130.8</ele>
        <time>2012-09-15T18:17:44Z</time>
      </trkpt>
      <trkpt lat="59.5023608536" lon="17.8251035213">
        <ele>130.8</ele>
        <time>2012-09-15T18:17:50Z</time>
      </trkpt>
      <trkpt lat="59.5023323552" lon="17.8250425011">
        <ele>130.8</ele>
        <time>2012-09-15T18:17:55Z</time>
      </trkpt>
      <trkpt lat="59.5023257335" lon="17.8250119072">
        <ele>130.8</ele>
        <time>2012-09-15T18:17:56Z</time>
      </trkpt>
      <trkpt lat="59.5022678145" lon="17.8249509708">
        <ele>130.8</ele>
        <time>2012-09-15T18:18:01Z</time>
      </trkpt>
      <trkpt lat="59.5022256536" lon="17.8248953149">
        <ele>130.8</ele>
        <time>2012-09-15T18:18:04Z</time>
      </trkpt>
      <trkpt lat="59.5021906172" lon="17.8248032817">
        <ele>130.8</ele>
        <time>2012-09-15T18:18:07Z</time>
      </trkpt>
      <trkpt lat="59.5021317763" lon="17.8246352246">
        <ele>130.8</ele>
        <time>2012-09-15T18:18:13Z</time>
      </trkpt>
      <trkpt lat="59.5021242326" lon="17.824627178">
        <ele>130.8</ele>
        <time>2012-09-15T18:18:19Z</time>
      </trkpt>
      <trkpt lat="59.5021242326" lon="17.824627178">
        <ele>130.8</ele>
        <time>2012-09-15T18:18:26Z</time>
      </trkpt>
      <trkpt lat="59.5021242326" lon="17.824627178">
        <ele>130.8</ele>
        <time>2012-09-15T18:18:33Z</time>
      </trkpt>
      <trkpt lat="59.5021293455" lon="17.8244988511">
        <ele>130.8</ele>
        <time>2012-09-15T18:18:40Z</time>
      </trkpt>
      <trkpt lat="59.5021200416" lon="17.8244447878">
        <ele>130.8</ele>
        <time>2012-09-15T18:18:46Z</time>
      </trkpt>
      <trkpt lat="59.5020373961" lon="17.8241717893">
        <ele>130.8</ele>
        <time>2012-09-15T18:18:51Z</time>
      </trkpt>
      <trkpt lat="59.5020006834" lon="17.8240997888">
        <ele>130.8</ele>
        <time>2012-09-15T18:18:53Z</time>
      </trkpt>
      <trkpt lat="59.5018917187" lon="17.8239375152">
        <ele>130.8</ele>
        <time>2012-09-15T18:18:56Z</time>
      </trkpt>
      <trkpt lat="59.5018006074" lon="17.8237675303">
        <ele>130.8</ele>
        <time>2012-09-15T18:19:02Z</time>
      </trkpt>
      <trkpt lat="59.5017675827" lon="17.823676922">
        <ele>130.8</ele>
        <time>2012-09-15T18:19:09Z</time>
      </trkpt>
      <trkpt lat="59.5017478853" lon="17.8235817874">
        <ele>130.8</ele>
        <time>2012-09-15T18:19:13Z</time>
      </trkpt>
      <trkpt lat="59.5017478853" lon="17.8235817874">
        <ele>130.8</ele>
        <time>2012-09-15T18:19:21Z</time>
      </trkpt>
      <trkpt lat="59.5017307024" lon="17.8235117147">
        <ele>130.8</ele>
        <time>2012-09-15T18:19:24Z</time>
      </trkpt>
      <trkpt lat="59.5017298642" lon="17.8235002315">
        <ele>130.8</ele>
        <time>2012-09-15T18:19:26Z</time>
      </trkpt>
      <trkpt lat="59.5017316244" lon="17.8234937774">
        <ele>130.8</ele>
        <time>2012-09-15T18:19:38Z</time>
      </trkpt>
      <trkpt lat="59.5017268467" lon="17.8234218607">
        <ele>130.8</ele>
        <time>2012-09-15T18:19:40Z</time>
      </trkpt>
      <trkpt lat="59.5017098314" lon="17.8233461722">
        <ele>130.8</ele>
        <time>2012-09-15T18:19:43Z</time>
      </trkpt>
      <trkpt lat="59.5016991864" lon="17.8232309211">
        <ele>130.8</ele>
        <time>2012-09-15T18:19:48Z</time>
      </trkpt>
      <trkpt lat="59.5017147768" lon="17.8230372992">
        <ele>130.8</ele>
        <time>2012-09-15T18:19:54Z</time>
      </trkpt>
      <trkpt lat="59.5017617154" lon="17.8227273365">
        <ele>130.8</ele>
        <time>2012-09-15T18:20:00Z</time>
      </trkpt>
      <trkpt lat="59.5017695106" lon="17.8226818228">
        <ele>130.4</ele>
        <time>2012-09-15T18:20:01Z</time>
      </trkpt>
      <trkpt lat="59.501780407" lon="17.8226205511">
        <ele>130</ele>
        <time>2012-09-15T18:20:02Z</time>
      </trkpt>
      <trkpt lat="59.501791555" lon="17.8225593632">
        <ele>129.4</ele>
        <time>2012-09-15T18:20:03Z</time>
      </trkpt>
      <trkpt lat="59.5018061395" lon="17.8224903802">
        <ele>129</ele>
        <time>2012-09-15T18:20:04Z</time>
      </trkpt>
      <trkpt lat="59.5018177065" lon="17.8224234926">
        <ele>128.6</ele>
        <time>2012-09-15T18:20:05Z</time>
      </trkpt>
      <trkpt lat="59.5018032896" lon="17.8222867838">
        <ele>128.6</ele>
        <time>2012-09-15T18:20:08Z</time>
      </trkpt>
      <trkpt lat="59.5017959974" lon="17.822249652">
        <ele>128.6</ele>
        <time>2012-09-15T18:20:09Z</time>
      </trkpt>
      <trkpt lat="59.5017226557" lon="17.8220867079">
        <ele>128.6</ele>
        <time>2012-09-15T18:20:14Z</time>
      </trkpt>
      <trkpt lat="59.5016317121" lon="17.8221159607">
        <ele>128.6</ele>
        <time>2012-09-15T18:20:18Z</time>
      </trkpt>
      <trkpt lat="59.5015764754" lon="17.8221424475">
        <ele>128.6</ele>
        <time>2012-09-15T18:20:21Z</time>
      </trkpt>
      <trkpt lat="59.501560466" lon="17.8221387595">
        <ele>129</ele>
        <time>2012-09-15T18:20:22Z</time>
      </trkpt>
      <trkpt lat="59.5015355717" lon="17.822136664">
        <ele>129.4</ele>
        <time>2012-09-15T18:20:23Z</time>
      </trkpt>
      <trkpt lat="59.5015022118" lon="17.8221324731">
        <ele>129.8</ele>
        <time>2012-09-15T18:20:24Z</time>
      </trkpt>
      <trkpt lat="59.5014626492" lon="17.8221400168">
        <ele>130.2</ele>
        <time>2012-09-15T18:20:25Z</time>
      </trkpt>
      <trkpt lat="59.5014253498" lon="17.8221504941">
        <ele>130.6</ele>
        <time>2012-09-15T18:20:26Z</time>
      </trkpt>
      <trkpt lat="59.501390984" lon="17.8221546851">
        <ele>130.6</ele>
        <time>2012-09-15T18:20:27Z</time>
      </trkpt>
      <trkpt lat="59.5011915786" lon="17.8222867838">
        <ele>130.6</ele>
        <time>2012-09-15T18:20:33Z</time>
      </trkpt>
      <trkpt lat="59.5011496691" lon="17.8222858618">
        <ele>130.6</ele>
        <time>2012-09-15T18:20:34Z</time>
      </trkpt>
      <trkpt lat="59.5010697057" lon="17.8223119295">
        <ele>130.6</ele>
        <time>2012-09-15T18:20:36Z</time>
      </trkpt>
      <trkpt lat="59.5008397064" lon="17.8225021148">
        <ele>131.2</ele>
        <time>2012-09-15T18:20:43Z</time>
      </trkpt>
      <trkpt lat="59.500808861" lon="17.822536313">
        <ele>131.6</ele>
        <time>2012-09-15T18:20:44Z</time>
      </trkpt>
      <trkpt lat="59.5007757525" lon="17.8225713493">
        <ele>132.2</ele>
        <time>2012-09-15T18:20:45Z</time>
      </trkpt>
      <trkpt lat="59.5007427278" lon="17.8225995125">
        <ele>132.6</ele>
        <time>2012-09-15T18:20:46Z</time>
      </trkpt>
      <trkpt lat="59.500709787" lon="17.8226320343">
        <ele>133</ele>
        <time>2012-09-15T18:20:47Z</time>
      </trkpt>
      <trkpt lat="59.5006244592" lon="17.8227449385">
        <ele>133</ele>
        <time>2012-09-15T18:20:50Z</time>
      </trkpt>
      <trkpt lat="59.500438381" lon="17.8229237244">
        <ele>133</ele>
        <time>2012-09-15T18:20:55Z</time>
      </trkpt>
      <trkpt lat="59.5002036878" lon="17.8231103055">
        <ele>133</ele>
        <time>2012-09-15T18:21:01Z</time>
      </trkpt>
      <trkpt lat="59.4999936374" lon="17.8233197692">
        <ele>133</ele>
        <time>2012-09-15T18:21:07Z</time>
      </trkpt>
      <trkpt lat="59.4999320305" lon="17.8233854833">
        <ele>133.4</ele>
        <time>2012-09-15T18:21:09Z</time>
      </trkpt>
      <trkpt lat="59.4998990058" lon="17.8234123054">
        <ele>134</ele>
        <time>2012-09-15T18:21:10Z</time>
      </trkpt>
      <trkpt lat="59.4998630474" lon="17.8234463359">
        <ele>134.4</ele>
        <time>2012-09-15T18:21:11Z</time>
      </trkpt>
      <trkpt lat="59.4998221437" lon="17.8234781871">
        <ele>134.8</ele>
        <time>2012-09-15T18:21:12Z</time>
      </trkpt>
      <trkpt lat="59.4997835032" lon="17.823519007">
        <ele>135.2</ele>
        <time>2012-09-15T18:21:13Z</time>
      </trkpt>
      <trkpt lat="59.4996621333" lon="17.8236100344">
        <ele>135.2</ele>
        <time>2012-09-15T18:21:16Z</time>
      </trkpt>
      <trkpt lat="59.499578901" lon="17.8236783469">
        <ele>135.2</ele>
        <time>2012-09-15T18:21:18Z</time>
      </trkpt>
      <trkpt lat="59.4994507418" lon="17.8237848808">
        <ele>135.2</ele>
        <time>2012-09-15T18:21:21Z</time>
      </trkpt>
      <trkpt lat="59.4993730415" lon="17.8238647603">
        <ele>135.2</ele>
        <time>2012-09-15T18:21:23Z</time>
      </trkpt>
      <trkpt lat="59.4991448862" lon="17.8240608968">
        <ele>135.2</ele>
        <time>2012-09-15T18:21:29Z</time>
      </trkpt>
      <trkpt lat="59.4988988775" lon="17.8242546025">
        <ele>135.2</ele>
        <time>2012-09-15T18:21:35Z</time>
      </trkpt>
      <trkpt lat="59.4986426428" lon="17.8245287744">
        <ele>135.2</ele>
        <time>2012-09-15T18:21:42Z</time>
      </trkpt>
      <trkpt lat="59.4984061894" lon="17.8247353045">
        <ele>135.2</ele>
        <time>2012-09-15T18:21:48Z</time>
      </trkpt>
      <trkpt lat="59.4980583405" lon="17.8250257373">
        <ele>135.2</ele>
        <time>2012-09-15T18:21:56Z</time>
      </trkpt>
      <trkpt lat="59.4978787164" lon="17.8252171799">
        <ele>135.2</ele>
        <time>2012-09-15T18:22:01Z</time>
      </trkpt>
      <trkpt lat="59.4976382397" lon="17.8254208601">
        <ele>135.2</ele>
        <time>2012-09-15T18:22:07Z</time>
      </trkpt>
      <trkpt lat="59.4974668298" lon="17.825573243">
        <ele>135.2</ele>
        <time>2012-09-15T18:22:11Z</time>
      </trkpt>
      <trkpt lat="59.4974271835" lon="17.8256092852">
        <ele>135.2</ele>
        <time>2012-09-15T18:22:12Z</time>
      </trkpt>
      <trkpt lat="59.4973386706" lon="17.8256879074">
        <ele>135.2</ele>
        <time>2012-09-15T18:22:14Z</time>
      </trkpt>
      <trkpt lat="59.4972115172" lon="17.8257793539">
        <ele>135.2</ele>
        <time>2012-09-15T18:22:17Z</time>
      </trkpt>
      <trkpt lat="59.4971721222" lon="17.825801063">
        <ele>135.2</ele>
        <time>2012-09-15T18:22:18Z</time>
      </trkpt>
      <trkpt lat="59.4969518459" lon="17.8259971995">
        <ele>135.2</ele>
        <time>2012-09-15T18:22:23Z</time>
      </trkpt>
      <trkpt lat="59.4968213397" lon="17.8261287953">
        <ele>135.2</ele>
        <time>2012-09-15T18:22:26Z</time>
      </trkpt>
      <trkpt lat="59.4967122074" lon="17.8262141231">
        <ele>135.2</ele>
        <time>2012-09-15T18:22:29Z</time>
      </trkpt>
      <trkpt lat="59.4965144784" lon="17.8263766481">
        <ele>135.2</ele>
        <time>2012-09-15T18:22:34Z</time>
      </trkpt>
      <trkpt lat="59.4962653683" lon="17.8266015345">
        <ele>135.2</ele>
        <time>2012-09-15T18:22:40Z</time>
      </trkpt>
      <trkpt lat="59.4959926213" lon="17.8268102438">
        <ele>135.2</ele>
        <time>2012-09-15T18:22:46Z</time>
      </trkpt>
      <trkpt lat="59.4959480296" lon="17.8268560928">
        <ele>135.6</ele>
        <time>2012-09-15T18:22:47Z</time>
      </trkpt>
      <trkpt lat="59.4959101434" lon="17.8268969127">
        <ele>136</ele>
        <time>2012-09-15T18:22:48Z</time>
      </trkpt>
      <trkpt lat="59.4958711675" lon="17.8269353018">
        <ele>136.4</ele>
        <time>2012-09-15T18:22:49Z</time>
      </trkpt>
      <trkpt lat="59.4958364665" lon="17.8269757863">
        <ele>137</ele>
        <time>2012-09-15T18:22:50Z</time>
      </trkpt>
      <trkpt lat="59.4957958143" lon="17.8270147622">
        <ele>137.4</ele>
        <time>2012-09-15T18:22:51Z</time>
      </trkpt>
      <trkpt lat="59.4955379032" lon="17.8272415764">
        <ele>137.4</ele>
        <time>2012-09-15T18:22:57Z</time>
      </trkpt>
      <trkpt lat="59.4954970833" lon="17.8272814742">
        <ele>137.4</ele>
        <time>2012-09-15T18:22:58Z</time>
      </trkpt>
      <trkpt lat="59.4953846821" lon="17.8273064523">
        <ele>137.4</ele>
        <time>2012-09-15T18:23:01Z</time>
      </trkpt>
      <trkpt lat="59.4953452033" lon="17.8272821448">
        <ele>137.4</ele>
        <time>2012-09-15T18:23:02Z</time>
      </trkpt>
      <trkpt lat="59.4952239172" lon="17.8271808914">
        <ele>137.4</ele>
        <time>2012-09-15T18:23:05Z</time>
      </trkpt>
      <trkpt lat="59.495179577" lon="17.8271478667">
        <ele>137.4</ele>
        <time>2012-09-15T18:23:06Z</time>
      </trkpt>
      <trkpt lat="59.494968856" lon="17.82705466">
        <ele>137.4</ele>
        <time>2012-09-15T18:23:11Z</time>
      </trkpt>
      <trkpt lat="59.4949278685" lon="17.8270278379">
        <ele>137.4</ele>
        <time>2012-09-15T18:23:12Z</time>
      </trkpt>
      <trkpt lat="59.4948370087" lon="17.8269606989">
        <ele>137.4</ele>
        <time>2012-09-15T18:23:14Z</time>
      </trkpt>
      <trkpt lat="59.4947373479" lon="17.8268545841">
        <ele>137.4</ele>
        <time>2012-09-15T18:23:16Z</time>
      </trkpt>
      <trkpt lat="59.4946019802" lon="17.8267136005">
        <ele>137.4</ele>
        <time>2012-09-15T18:23:19Z</time>
      </trkpt>
      <trkpt lat="59.4945166525" lon="17.8266468806">
        <ele>137.4</ele>
        <time>2012-09-15T18:23:21Z</time>
      </trkpt>
      <trkpt lat="59.4943367769" lon="17.8265437832">
        <ele>137.4</ele>
        <time>2012-09-15T18:23:25Z</time>
      </trkpt>
      <trkpt lat="59.4941350246" lon="17.8263970161">
        <ele>137.4</ele>
        <time>2012-09-15T18:23:29Z</time>
      </trkpt>
      <trkpt lat="59.4939319312" lon="17.8263425338">
        <ele>137.4</ele>
        <time>2012-09-15T18:23:33Z</time>
      </trkpt>
      <trkpt lat="59.4938838191" lon="17.8263358283">
        <ele>137.4</ele>
        <time>2012-09-15T18:23:34Z</time>
      </trkpt>
      <trkpt lat="59.4936786301" lon="17.8263288713">
        <ele>137.4</ele>
        <time>2012-09-15T18:23:39Z</time>
      </trkpt>
      <trkpt lat="59.4936303504" lon="17.8263246803">
        <ele>137.4</ele>
        <time>2012-09-15T18:23:40Z</time>
      </trkpt>
      <trkpt lat="59.4935143449" lon="17.8263836051">
        <ele>137.4</ele>
        <time>2012-09-15T18:23:43Z</time>
      </trkpt>
      <trkpt lat="59.4934011892" lon="17.8264592937">
        <ele>137.4</ele>
        <time>2012-09-15T18:23:46Z</time>
      </trkpt>
      <trkpt lat="59.4932811604" lon="17.8265530033">
        <ele>137.4</ele>
        <time>2012-09-15T18:23:49Z</time>
      </trkpt>
      <trkpt lat="59.4930416057" lon="17.8267842599">
        <ele>137.4</ele>
        <time>2012-09-15T18:23:55Z</time>
      </trkpt>
      <trkpt lat="59.4928750574" lon="17.8269735232">
        <ele>137.8</ele>
        <time>2012-09-15T18:23:59Z</time>
      </trkpt>
      <trkpt lat="59.4928422003" lon="17.8270362198">
        <ele>138.2</ele>
        <time>2012-09-15T18:24:00Z</time>
      </trkpt>
      <trkpt lat="59.4928059905" lon="17.8270939711">
        <ele>138.6</ele>
        <time>2012-09-15T18:24:01Z</time>
      </trkpt>
      <trkpt lat="59.4927712895" lon="17.8271489564">
        <ele>139</ele>
        <time>2012-09-15T18:24:02Z</time>
      </trkpt>
      <trkpt lat="59.492731224" lon="17.827203774">
        <ele>139.4</ele>
        <time>2012-09-15T18:24:03Z</time>
      </trkpt>
      <trkpt lat="59.4926572118" lon="17.827303351">
        <ele>139.4</ele>
        <time>2012-09-15T18:24:05Z</time>
      </trkpt>
      <trkpt lat="59.4925759074" lon="17.8273838172">
        <ele>139.4</ele>
        <time>2012-09-15T18:24:07Z</time>
      </trkpt>
      <trkpt lat="59.4924440601" lon="17.8274968052">
        <ele>139.4</ele>
        <time>2012-09-15T18:24:10Z</time>
      </trkpt>
      <trkpt lat="59.4920962951" lon="17.8277131421">
        <ele>139.4</ele>
        <time>2012-09-15T18:24:17Z</time>
      </trkpt>
      <trkpt lat="59.4919242985" lon="17.8277777665">
        <ele>139.4</ele>
        <time>2012-09-15T18:24:20Z</time>
      </trkpt>
      <trkpt lat="59.4917683113" lon="17.8278889105">
        <ele>139.4</ele>
        <time>2012-09-15T18:24:23Z</time>
      </trkpt>
      <trkpt lat="59.4915582609" lon="17.8280666068">
        <ele>139.4</ele>
        <time>2012-09-15T18:24:28Z</time>
      </trkpt>
      <trkpt lat="59.4913986695" lon="17.8281256154">
        <ele>139.4</ele>
        <time>2012-09-15T18:24:31Z</time>
      </trkpt>
      <trkpt lat="59.4913329554" lon="17.8281282138">
        <ele>139.4</ele>
        <time>2012-09-15T18:24:32Z</time>
      </trkpt>
      <trkpt lat="59.4910475517" lon="17.8281352546">
        <ele>139.4</ele>
        <time>2012-09-15T18:24:37Z</time>
      </trkpt>
      <trkpt lat="59.4908513314" lon="17.8283080055">
        <ele>139.4</ele>
        <time>2012-09-15T18:24:41Z</time>
      </trkpt>
      <trkpt lat="59.4908055663" lon="17.8283718756">
        <ele>139.4</ele>
        <time>2012-09-15T18:24:42Z</time>
      </trkpt>
      <trkpt lat="59.4907002058" lon="17.8285963429">
        <ele>139.4</ele>
        <time>2012-09-15T18:24:45Z</time>
      </trkpt>
      <trkpt lat="59.4906766527" lon="17.8286892143">
        <ele>139.4</ele>
        <time>2012-09-15T18:24:46Z</time>
      </trkpt>
      <trkpt lat="59.4906147942" lon="17.8288662401">
        <ele>139.4</ele>
        <time>2012-09-15T18:24:48Z</time>
      </trkpt>
      <trkpt lat="59.4905342442" lon="17.8290011887">
        <ele>139.4</ele>
        <time>2012-09-15T18:24:50Z</time>
      </trkpt>
      <trkpt lat="59.4904889819" lon="17.8290596105">
        <ele>139.4</ele>
        <time>2012-09-15T18:24:51Z</time>
      </trkpt>
      <trkpt lat="59.4903247805" lon="17.8293081338">
        <ele>139.4</ele>
        <time>2012-09-15T18:24:55Z</time>
      </trkpt>
      <trkpt lat="59.4902461583" lon="17.8294284141">
        <ele>139.4</ele>
        <time>2012-09-15T18:24:57Z</time>
      </trkpt>
      <trkpt lat="59.4901330026" lon="17.8296149114">
        <ele>139.4</ele>
        <time>2012-09-15T18:25:00Z</time>
      </trkpt>
      <trkpt lat="59.4901029954" lon="17.829693785">
        <ele>139.4</ele>
        <time>2012-09-15T18:25:01Z</time>
      </trkpt>
      <trkpt lat="59.4900354373" lon="17.8298626803">
        <ele>139.4</ele>
        <time>2012-09-15T18:25:04Z</time>
      </trkpt>
      <trkpt lat="59.4900016582" lon="17.830005927">
        <ele>139.4</ele>
        <time>2012-09-15T18:25:06Z</time>
      </trkpt>
      <trkpt lat="59.4899429011" lon="17.8301554601">
        <ele>139.4</ele>
        <time>2012-09-15T18:25:08Z</time>
      </trkpt>
      <trkpt lat="59.4898111377" lon="17.8305252695">
        <ele>139.4</ele>
        <time>2012-09-15T18:25:13Z</time>
      </trkpt>
      <trkpt lat="59.4897356167" lon="17.8309265949">
        <ele>139.4</ele>
        <time>2012-09-15T18:25:18Z</time>
      </trkpt>
      <trkpt lat="59.4897366226" lon="17.8310143534">
        <ele>139.4</ele>
        <time>2012-09-15T18:25:19Z</time>
      </trkpt>
      <trkpt lat="59.4897274863" lon="17.8312879386">
        <ele>139.4</ele>
        <time>2012-09-15T18:25:22Z</time>
      </trkpt>
      <trkpt lat="59.4897036817" lon="17.8317014177">
        <ele>139.8</ele>
        <time>2012-09-15T18:25:27Z</time>
      </trkpt>
      <trkpt lat="59.4896992393" lon="17.8317797047">
        <ele>140.8</ele>
        <time>2012-09-15T18:25:28Z</time>
      </trkpt>
      <trkpt lat="59.4896947131" lon="17.8318539683">
        <ele>141.2</ele>
        <time>2012-09-15T18:25:29Z</time>
      </trkpt>
      <trkpt lat="59.4896796256" lon="17.8319493543">
        <ele>141.6</ele>
        <time>2012-09-15T18:25:30Z</time>
      </trkpt>
      <trkpt lat="59.4896425777" lon="17.8321088619">
        <ele>141.6</ele>
        <time>2012-09-15T18:25:32Z</time>
      </trkpt>
      <trkpt lat="59.4895880953" lon="17.8322902462">
        <ele>141.6</ele>
        <time>2012-09-15T18:25:34Z</time>
      </trkpt>
      <trkpt lat="59.489556747" lon="17.8323784238">
        <ele>141.6</ele>
        <time>2012-09-15T18:25:35Z</time>
      </trkpt>
      <trkpt lat="59.4895010074" lon="17.8325580479">
        <ele>141.6</ele>
        <time>2012-09-15T18:25:37Z</time>
      </trkpt>
      <trkpt lat="59.489466893" lon="17.8326412802">
        <ele>141.6</ele>
        <time>2012-09-15T18:25:38Z</time>
      </trkpt>
      <trkpt lat="59.4893771229" lon="17.8329302881">
        <ele>141.6</ele>
        <time>2012-09-15T18:25:41Z</time>
      </trkpt>
      <trkpt lat="59.4893561681" lon="17.8330213155">
        <ele>141.6</ele>
        <time>2012-09-15T18:25:42Z</time>
      </trkpt>
      <trkpt lat="59.4893145101" lon="17.8331868581">
        <ele>141.6</ele>
        <time>2012-09-15T18:25:44Z</time>
      </trkpt>
      <trkpt lat="59.4892467005" lon="17.8334238982">
        <ele>141.6</ele>
        <time>2012-09-15T18:25:47Z</time>
      </trkpt>
      <trkpt lat="59.489193224" lon="17.8337735911">
        <ele>141.6</ele>
        <time>2012-09-15T18:25:51Z</time>
      </trkpt>
      <trkpt lat="59.489180232" lon="17.8339515388">
        <ele>141.6</ele>
        <time>2012-09-15T18:25:53Z</time>
      </trkpt>
      <trkpt lat="59.4891781366" lon="17.8340454161">
        <ele>141.6</ele>
        <time>2012-09-15T18:25:54Z</time>
      </trkpt>
      <trkpt lat="59.4891541643" lon="17.8344418799">
        <ele>141.6</ele>
        <time>2012-09-15T18:25:59Z</time>
      </trkpt>
      <trkpt lat="59.4890787272" lon="17.8347199076">
        <ele>141.6</ele>
        <time>2012-09-15T18:26:03Z</time>
      </trkpt>
      <trkpt lat="59.4889323793" lon="17.8349149544">
        <ele>141.6</ele>
        <time>2012-09-15T18:26:07Z</time>
      </trkpt>
      <trkpt lat="59.4888929005" lon="17.8349062372">
        <ele>141.6</ele>
        <time>2012-09-15T18:26:08Z</time>
      </trkpt>
      <trkpt lat="59.4887747995" lon="17.8347614818">
        <ele>141.6</ele>
        <time>2012-09-15T18:26:11Z</time>
      </trkpt>
      <trkpt lat="59.4887415234" lon="17.8346856256">
        <ele>141.6</ele>
        <time>2012-09-15T18:26:12Z</time>
      </trkpt>
      <trkpt lat="59.4886572015" lon="17.834443221">
        <ele>141.6</ele>
        <time>2012-09-15T18:26:15Z</time>
      </trkpt>
      <trkpt lat="59.4885924094" lon="17.8342805284">
        <ele>141.6</ele>
        <time>2012-09-15T18:26:17Z</time>
      </trkpt>
      <trkpt lat="59.4885074169" lon="17.8340041771">
        <ele>141.6</ele>
        <time>2012-09-15T18:26:20Z</time>
      </trkpt>
      <trkpt lat="59.488443966" lon="17.8338501178">
        <ele>141.6</ele>
        <time>2012-09-15T18:26:22Z</time>
      </trkpt>
      <trkpt lat="59.4882328259" lon="17.8335137522">
        <ele>141.6</ele>
        <time>2012-09-15T18:26:28Z</time>
      </trkpt>
      <trkpt lat="59.4880651041" lon="17.8332734431">
        <ele>142</ele>
        <time>2012-09-15T18:26:33Z</time>
      </trkpt>
      <trkpt lat="59.4880310736" lon="17.8332097406">
        <ele>142.4</ele>
        <time>2012-09-15T18:26:34Z</time>
      </trkpt>
      <trkpt lat="59.4880003958" lon="17.8331586949">
        <ele>142.8</ele>
        <time>2012-09-15T18:26:35Z</time>
      </trkpt>
      <trkpt lat="59.4879676226" lon="17.8331030391">
        <ele>143.2</ele>
        <time>2012-09-15T18:26:36Z</time>
      </trkpt>
      <trkpt lat="59.4879345979" lon="17.8330462098">
        <ele>143.6</ele>
        <time>2012-09-15T18:26:37Z</time>
      </trkpt>
      <trkpt lat="59.4878662016" lon="17.8329209842">
        <ele>143.6</ele>
        <time>2012-09-15T18:26:39Z</time>
      </trkpt>
      <trkpt lat="59.4877952907" lon="17.8328089182">
        <ele>143.6</ele>
        <time>2012-09-15T18:26:41Z</time>
      </trkpt>
      <trkpt lat="59.4876921933" lon="17.8326128655">
        <ele>143.6</ele>
        <time>2012-09-15T18:26:44Z</time>
      </trkpt>
      <trkpt lat="59.4875882578" lon="17.8322911682">
        <ele>143.6</ele>
        <time>2012-09-15T18:26:48Z</time>
      </trkpt>
      <trkpt lat="59.487564537" lon="17.8321954469">
        <ele>143.6</ele>
        <time>2012-09-15T18:26:49Z</time>
      </trkpt>
      <trkpt lat="59.4875024271" lon="17.8319547188">
        <ele>143.6</ele>
        <time>2012-09-15T18:26:53Z</time>
      </trkpt>
      <trkpt lat="59.487497398" lon="17.8319509469">
        <ele>143.6</ele>
        <time>2012-09-15T18:26:57Z</time>
      </trkpt>
      <trkpt lat="59.487503433" lon="17.8319406372">
        <ele>143.6</ele>
        <time>2012-09-15T18:27:02Z</time>
      </trkpt>
      <trkpt lat="59.4875901856" lon="17.8317260605">
        <ele>143.6</ele>
        <time>2012-09-15T18:27:06Z</time>
      </trkpt>
      <trkpt lat="59.4876658742" lon="17.8315556565">
        <ele>143.2</ele>
        <time>2012-09-15T18:27:09Z</time>
      </trkpt>
      <trkpt lat="59.4876949594" lon="17.831504024">
        <ele>142.8</ele>
        <time>2012-09-15T18:27:10Z</time>
      </trkpt>
      <trkpt lat="59.4877165008" lon="17.8314418303">
        <ele>142.4</ele>
        <time>2012-09-15T18:27:11Z</time>
      </trkpt>
      <trkpt lat="59.4877334323" lon="17.8313723443">
        <ele>142</ele>
        <time>2012-09-15T18:27:12Z</time>
      </trkpt>
      <trkpt lat="59.4877305824" lon="17.8313106536">
        <ele>141.6</ele>
        <time>2012-09-15T18:27:13Z</time>
      </trkpt>
      <trkpt lat="59.4877193507" lon="17.8312670677">
        <ele>141.6</ele>
        <time>2012-09-15T18:27:14Z</time>
      </trkpt>
      <trkpt lat="59.4876935344" lon="17.8311587735">
        <ele>141.6</ele>
        <time>2012-09-15T18:27:17Z</time>
      </trkpt>
      <trkpt lat="59.4876809616" lon="17.8311092365">
        <ele>141.6</ele>
        <time>2012-09-15T18:27:18Z</time>
      </trkpt>
      <trkpt lat="59.4875771099" lon="17.8308745433">
        <ele>141.6</ele>
        <time>2012-09-15T18:27:22Z</time>
      </trkpt>
      <trkpt lat="59.4875195262" lon="17.8306933266">
        <ele>141.6</ele>
        <time>2012-09-15T18:27:26Z</time>
      </trkpt>
      <trkpt lat="59.4874323544" lon="17.8304626567">
        <ele>141.6</ele>
        <time>2012-09-15T18:27:31Z</time>
      </trkpt>
      <trkpt lat="59.4874232182" lon="17.8304023071">
        <ele>141.6</ele>
        <time>2012-09-15T18:27:32Z</time>
      </trkpt>
      <trkpt lat="59.4873689035" lon="17.8302670232">
        <ele>141.6</ele>
        <time>2012-09-15T18:27:35Z</time>
      </trkpt>
      <trkpt lat="59.4873013453" lon="17.8300415501">
        <ele>141.6</ele>
        <time>2012-09-15T18:27:39Z</time>
      </trkpt>
      <trkpt lat="59.4872880181" lon="17.8299961202">
        <ele>141.6</ele>
        <time>2012-09-15T18:27:40Z</time>
      </trkpt>
      <trkpt lat="59.4871969907" lon="17.82973779">
        <ele>141.6</ele>
        <time>2012-09-15T18:27:45Z</time>
      </trkpt>
      <trkpt lat="59.4871354675" lon="17.8294652106">
        <ele>141.6</ele>
        <time>2012-09-15T18:27:50Z</time>
      </trkpt>
      <trkpt lat="59.487081069" lon="17.829171425">
        <ele>141.6</ele>
        <time>2012-09-15T18:27:56Z</time>
      </trkpt>
      <trkpt lat="59.4870391595" lon="17.8289075628">
        <ele>141.6</ele>
        <time>2012-09-15T18:28:02Z</time>
      </trkpt>
      <trkpt lat="59.4870181209" lon="17.8287249212">
        <ele>141.6</ele>
        <time>2012-09-15T18:28:09Z</time>
      </trkpt>
      <trkpt lat="59.4870095714" lon="17.8286756357">
        <ele>141.6</ele>
        <time>2012-09-15T18:28:17Z</time>
      </trkpt>
      <trkpt lat="59.4869940649" lon="17.8285929901">
        <ele>141.6</ele>
        <time>2012-09-15T18:28:19Z</time>
      </trkpt>
      <trkpt lat="59.4869765467" lon="17.8284651661">
        <ele>141.6</ele>
        <time>2012-09-15T18:28:22Z</time>
      </trkpt>
      <trkpt lat="59.4869510657" lon="17.8283007971">
        <ele>141.6</ele>
        <time>2012-09-15T18:28:26Z</time>
      </trkpt>
      <trkpt lat="59.4869471262" lon="17.8282207499">
        <ele>141.6</ele>
        <time>2012-09-15T18:28:31Z</time>
      </trkpt>
      <trkpt lat="59.4869471262" lon="17.8282310597">
        <ele>141.6</ele>
        <time>2012-09-15T18:28:37Z</time>
      </trkpt>
      <trkpt lat="59.4869456175" lon="17.8282469015">
        <ele>141.6</ele>
        <time>2012-09-15T18:28:38Z</time>
      </trkpt>
      <trkpt lat="59.4869045462" lon="17.8283075026">
        <ele>141.6</ele>
        <time>2012-09-15T18:28:43Z</time>
      </trkpt>
      <trkpt lat="59.4868777241" lon="17.8283230091">
        <ele>141.6</ele>
        <time>2012-09-15T18:28:45Z</time>
      </trkpt>
      <trkpt lat="59.4868342221" lon="17.8283401082">
        <ele>141.6</ele>
        <time>2012-09-15T18:28:48Z</time>
      </trkpt>
      <trkpt lat="59.4868224874" lon="17.8283527649">
        <ele>141.6</ele>
        <time>2012-09-15T18:28:49Z</time>
      </trkpt>
      <trkpt lat="59.4867945757" lon="17.8283812633">
        <ele>141.6</ele>
        <time>2012-09-15T18:28:53Z</time>
      </trkpt>
      <trkpt lat="59.4867567733" lon="17.8283854543">
        <ele>141.6</ele>
        <time>2012-09-15T18:28:59Z</time>
      </trkpt>
      <trkpt lat="59.4867505707" lon="17.8283716241">
        <ele>141.6</ele>
        <time>2012-09-15T18:29:01Z</time>
      </trkpt>
      <trkpt lat="59.4866986867" lon="17.8282697841">
        <ele>141.6</ele>
        <time>2012-09-15T18:29:04Z</time>
      </trkpt>
      <trkpt lat="59.4866778996" lon="17.82820868">
        <ele>141.6</ele>
        <time>2012-09-15T18:29:05Z</time>
      </trkpt>
      <trkpt lat="59.4865359102" lon="17.827884049">
        <ele>141.6</ele>
        <time>2012-09-15T18:29:10Z</time>
      </trkpt>
      <trkpt lat="59.4864348245" lon="17.8275945382">
        <ele>142</ele>
        <time>2012-09-15T18:29:14Z</time>
      </trkpt>
      <trkpt lat="59.4864055717" lon="17.8275144072">
        <ele>142.4</ele>
        <time>2012-09-15T18:29:15Z</time>
      </trkpt>
      <trkpt lat="59.4863798393" lon="17.8274301691">
        <ele>142.8</ele>
        <time>2012-09-15T18:29:16Z</time>
      </trkpt>
      <trkpt lat="59.4863523466" lon="17.8273486132">
        <ele>143.2</ele>
        <time>2012-09-15T18:29:17Z</time>
      </trkpt>
      <trkpt lat="59.4863264466" lon="17.827268147">
        <ele>143.6</ele>
        <time>2012-09-15T18:29:18Z</time>
      </trkpt>
      <trkpt lat="59.4861291366" lon="17.8267778059">
        <ele>143.6</ele>
        <time>2012-09-15T18:29:24Z</time>
      </trkpt>
      <trkpt lat="59.4860130473" lon="17.8265138598">
        <ele>143.6</ele>
        <time>2012-09-15T18:29:28Z</time>
      </trkpt>
      <trkpt lat="59.4859752449" lon="17.8264595451">
        <ele>143.6</ele>
        <time>2012-09-15T18:29:29Z</time>
      </trkpt>
      <trkpt lat="59.4858903363" lon="17.8263390134">
        <ele>143.6</ele>
        <time>2012-09-15T18:29:31Z</time>
      </trkpt>
      <trkpt lat="59.485808026" lon="17.8262383468">
        <ele>143.6</ele>
        <time>2012-09-15T18:29:33Z</time>
      </trkpt>
      <trkpt lat="59.4857728221" lon="17.826170621">
        <ele>143.6</ele>
        <time>2012-09-15T18:29:34Z</time>
      </trkpt>
      <trkpt lat="59.4856551402" lon="17.8259819445">
        <ele>143.6</ele>
        <time>2012-09-15T18:29:37Z</time>
      </trkpt>
      <trkpt lat="59.4855816309" lon="17.8258225207">
        <ele>143.6</ele>
        <time>2012-09-15T18:29:39Z</time>
      </trkpt>
      <trkpt lat="59.4855351952" lon="17.8256633484">
        <ele>143.6</ele>
        <time>2012-09-15T18:29:41Z</time>
      </trkpt>
      <trkpt lat="59.4853475245" lon="17.8251181897">
        <ele>143.6</ele>
        <time>2012-09-15T18:29:47Z</time>
      </trkpt>
      <trkpt lat="59.4852131626" lon="17.8248923813">
        <ele>143.6</ele>
        <time>2012-09-15T18:29:51Z</time>
      </trkpt>
      <trkpt lat="59.4850231449" lon="17.8246155271">
        <ele>143.6</ele>
        <time>2012-09-15T18:29:56Z</time>
      </trkpt>
      <trkpt lat="59.4848238233" lon="17.8242769822">
        <ele>144</ele>
        <time>2012-09-15T18:30:01Z</time>
      </trkpt>
      <trkpt lat="59.4847814109" lon="17.8242223322">
        <ele>144.4</ele>
        <time>2012-09-15T18:30:02Z</time>
      </trkpt>
      <trkpt lat="59.4847416807" lon="17.8241748906">
        <ele>144.8</ele>
        <time>2012-09-15T18:30:03Z</time>
      </trkpt>
      <trkpt lat="59.4847027049" lon="17.8241375074">
        <ele>145.2</ele>
        <time>2012-09-15T18:30:04Z</time>
      </trkpt>
      <trkpt lat="59.4846604601" lon="17.8241026387">
        <ele>145.6</ele>
        <time>2012-09-15T18:30:05Z</time>
      </trkpt>
      <trkpt lat="59.4846180477" lon="17.8240684405">
        <ele>145.6</ele>
        <time>2012-09-15T18:30:06Z</time>
      </trkpt>
      <trkpt lat="59.4845700194" lon="17.8240312249">
        <ele>145.6</ele>
        <time>2012-09-15T18:30:07Z</time>
      </trkpt>
      <trkpt lat="59.4844414411" lon="17.8239387725">
        <ele>145.6</ele>
        <time>2012-09-15T18:30:10Z</time>
      </trkpt>
      <trkpt lat="59.4843368349" lon="17.8238117029">
        <ele>145.6</ele>
        <time>2012-09-15T18:30:13Z</time>
      </trkpt>
      <trkpt lat="59.4841417043" lon="17.8235926">
        <ele>145.6</ele>
        <time>2012-09-15T18:30:18Z</time>
      </trkpt>
      <trkpt lat="59.4840629145" lon="17.8234857308">
        <ele>145.6</ele>
        <time>2012-09-15T18:30:20Z</time>
      </trkpt>
      <trkpt lat="59.4839426342" lon="17.8232813801">
        <ele>146.2</ele>
        <time>2012-09-15T18:30:23Z</time>
      </trkpt>
      <trkpt lat="59.4839097771" lon="17.8232111398">
        <ele>147</ele>
        <time>2012-09-15T18:30:24Z</time>
      </trkpt>
      <trkpt lat="59.4838767525" lon="17.8231417376">
        <ele>147.4</ele>
        <time>2012-09-15T18:30:25Z</time>
      </trkpt>
      <trkpt lat="59.4838447336" lon="17.8230704915">
        <ele>148</ele>
        <time>2012-09-15T18:30:26Z</time>
      </trkpt>
      <trkpt lat="59.4837231961" lon="17.8228109879">
        <ele>148</ele>
        <time>2012-09-15T18:30:30Z</time>
      </trkpt>
      <trkpt lat="59.4835656163" lon="17.8224291085">
        <ele>148</ele>
        <time>2012-09-15T18:30:36Z</time>
      </trkpt>
      <trkpt lat="59.483456484" lon="17.8220960118">
        <ele>148</ele>
        <time>2012-09-15T18:30:40Z</time>
      </trkpt>
      <trkpt lat="59.4833617685" lon="17.8218873025">
        <ele>148</ele>
        <time>2012-09-15T18:30:43Z</time>
      </trkpt>
      <trkpt lat="59.4832937913" lon="17.8217698721">
        <ele>148</ele>
        <time>2012-09-15T18:30:45Z</time>
      </trkpt>
      <trkpt lat="59.4830856687" lon="17.8213467538">
        <ele>148</ele>
        <time>2012-09-15T18:30:52Z</time>
      </trkpt>
      <trkpt lat="59.4830544881" lon="17.821267461">
        <ele>148.4</ele>
        <time>2012-09-15T18:30:53Z</time>
      </trkpt>
      <trkpt lat="59.4830248161" lon="17.8211917724">
        <ele>148.8</ele>
        <time>2012-09-15T18:30:54Z</time>
      </trkpt>
      <trkpt lat="59.4829908694" lon="17.8211200234">
        <ele>149.2</ele>
        <time>2012-09-15T18:30:55Z</time>
      </trkpt>
      <trkpt lat="59.4829566713" lon="17.8210509565">
        <ele>149.6</ele>
        <time>2012-09-15T18:30:56Z</time>
      </trkpt>
      <trkpt lat="59.4829212159" lon="17.8209742621">
        <ele>150</ele>
        <time>2012-09-15T18:30:57Z</time>
      </trkpt>
      <trkpt lat="59.4828833297" lon="17.8208963104">
        <ele>150</ele>
        <time>2012-09-15T18:30:58Z</time>
      </trkpt>
      <trkpt lat="59.482764642" lon="17.8206484577">
        <ele>150</ele>
        <time>2012-09-15T18:31:01Z</time>
      </trkpt>
      <trkpt lat="59.482697922" lon="17.82050102">
        <ele>150</ele>
        <time>2012-09-15T18:31:03Z</time>
      </trkpt>
      <trkpt lat="59.4826311183" lon="17.8203600365">
        <ele>150</ele>
        <time>2012-09-15T18:31:05Z</time>
      </trkpt>
      <trkpt lat="59.4825438627" lon="17.820138">
        <ele>150</ele>
        <time>2012-09-15T18:31:08Z</time>
      </trkpt>
      <trkpt lat="59.4824830939" lon="17.8199941665">
        <ele>150</ele>
        <time>2012-09-15T18:31:10Z</time>
      </trkpt>
      <trkpt lat="59.4823929047" lon="17.8198398558">
        <ele>150</ele>
        <time>2012-09-15T18:31:13Z</time>
      </trkpt>
      <trkpt lat="59.4823489835" lon="17.8197910731">
        <ele>150</ele>
        <time>2012-09-15T18:31:14Z</time>
      </trkpt>
      <trkpt lat="59.4821622348" lon="17.8196370138">
        <ele>150</ele>
        <time>2012-09-15T18:31:18Z</time>
      </trkpt>
      <trkpt lat="59.4818516016" lon="17.8193504366">
        <ele>150</ele>
        <time>2012-09-15T18:31:24Z</time>
      </trkpt>
      <trkpt lat="59.4815746636" lon="17.8190044318">
        <ele>150</ele>
        <time>2012-09-15T18:31:30Z</time>
      </trkpt>
      <trkpt lat="59.4814865699" lon="17.8189156675">
        <ele>150</ele>
        <time>2012-09-15T18:31:32Z</time>
      </trkpt>
      <trkpt lat="59.4813908486" lon="17.8188566589">
        <ele>150</ele>
        <time>2012-09-15T18:31:34Z</time>
      </trkpt>
      <trkpt lat="59.4813412277" lon="17.8188364585">
        <ele>150</ele>
        <time>2012-09-15T18:31:35Z</time>
      </trkpt>
      <trkpt lat="59.4812854043" lon="17.8188332734">
        <ele>150</ele>
        <time>2012-09-15T18:31:36Z</time>
      </trkpt>
      <trkpt lat="59.4811129886" lon="17.8187533101">
        <ele>150</ele>
        <time>2012-09-15T18:31:39Z</time>
      </trkpt>
      <trkpt lat="59.4808859229" lon="17.818531525">
        <ele>150</ele>
        <time>2012-09-15T18:31:44Z</time>
      </trkpt>
      <trkpt lat="59.4808430914" lon="17.8184736899">
        <ele>150</ele>
        <time>2012-09-15T18:31:45Z</time>
      </trkpt>
      <trkpt lat="59.4806678259" lon="17.8182250827">
        <ele>150</ele>
        <time>2012-09-15T18:31:49Z</time>
      </trkpt>
      <trkpt lat="59.4803980125" lon="17.8178128609">
        <ele>150</ele>
        <time>2012-09-15T18:31:55Z</time>
      </trkpt>
      <trkpt lat="59.4803781474" lon="17.8177501643">
        <ele>150</ele>
        <time>2012-09-15T18:31:57Z</time>
      </trkpt>
      <trkpt lat="59.4803862778" lon="17.8177112723">
        <ele>150</ele>
        <time>2012-09-15T18:32:00Z</time>
      </trkpt>
      <trkpt lat="59.4803986831" lon="17.8176966878">
        <ele>150</ele>
        <time>2012-09-15T18:32:01Z</time>
      </trkpt>
      <trkpt lat="59.4805000202" lon="17.8175433828">
        <ele>150</ele>
        <time>2012-09-15T18:32:05Z</time>
      </trkpt>
      <trkpt lat="59.4805277643" lon="17.8174927561">
        <ele>150</ele>
        <time>2012-09-15T18:32:06Z</time>
      </trkpt>
      <trkpt lat="59.4806416743" lon="17.8173022355">
        <ele>150</ele>
        <time>2012-09-15T18:32:11Z</time>
      </trkpt>
      <trkpt lat="59.4807428439" lon="17.8171374474">
        <ele>149.6</ele>
        <time>2012-09-15T18:32:15Z</time>
      </trkpt>
      <trkpt lat="59.4807721805" lon="17.8171008185">
        <ele>149.2</ele>
        <time>2012-09-15T18:32:16Z</time>
      </trkpt>
      <trkpt lat="59.480798835" lon="17.8170672909">
        <ele>148.8</ele>
        <time>2012-09-15T18:32:17Z</time>
      </trkpt>
      <trkpt lat="59.4808243998" lon="17.8170345177">
        <ele>148.4</ele>
        <time>2012-09-15T18:32:18Z</time>
      </trkpt>
      <trkpt lat="59.4808527306" lon="17.8170047619">
        <ele>148</ele>
        <time>2012-09-15T18:32:19Z</time>
      </trkpt>
      <trkpt lat="59.480969239" lon="17.8168218689">
        <ele>148</ele>
        <time>2012-09-15T18:32:24Z</time>
      </trkpt>
      <trkpt lat="59.4811340271" lon="17.816560605">
        <ele>148</ele>
        <time>2012-09-15T18:32:29Z</time>
      </trkpt>
      <trkpt lat="59.4812960493" lon="17.8163321144">
        <ele>148</ele>
        <time>2012-09-15T18:32:34Z</time>
      </trkpt>
      <trkpt lat="59.481455473" lon="17.8160709344">
        <ele>148</ele>
        <time>2012-09-15T18:32:39Z</time>
      </trkpt>
      <trkpt lat="59.4815614202" lon="17.8159124327">
        <ele>148</ele>
        <time>2012-09-15T18:32:43Z</time>
      </trkpt>
      <trkpt lat="59.4816600752" lon="17.8157867042">
        <ele>147.6</ele>
        <time>2012-09-15T18:32:46Z</time>
      </trkpt>
      <trkpt lat="59.4816898309" lon="17.8157414419">
        <ele>147.2</ele>
        <time>2012-09-15T18:32:47Z</time>
      </trkpt>
      <trkpt lat="59.4817230233" lon="17.815703891">
        <ele>146.8</ele>
        <time>2012-09-15T18:32:48Z</time>
      </trkpt>
      <trkpt lat="59.4817565509" lon="17.8156666754">
        <ele>146.4</ele>
        <time>2012-09-15T18:32:49Z</time>
      </trkpt>
      <trkpt lat="59.4817863904" lon="17.8156239277">
        <ele>146</ele>
        <time>2012-09-15T18:32:50Z</time>
      </trkpt>
      <trkpt lat="59.481850009" lon="17.8154799267">
        <ele>146</ele>
        <time>2012-09-15T18:32:54Z</time>
      </trkpt>
      <trkpt lat="59.4819567106" lon="17.815143561">
        <ele>146</ele>
        <time>2012-09-15T18:32:59Z</time>
      </trkpt>
      <trkpt lat="59.4820194911" lon="17.8149201834">
        <ele>146</ele>
        <time>2012-09-15T18:33:04Z</time>
      </trkpt>
      <trkpt lat="59.4820629931" lon="17.8147065288">
        <ele>146</ele>
        <time>2012-09-15T18:33:08Z</time>
      </trkpt>
      <trkpt lat="59.482064418" lon="17.8146472687">
        <ele>146</ele>
        <time>2012-09-15T18:33:09Z</time>
      </trkpt>
      <trkpt lat="59.4820585507" lon="17.8145265694">
        <ele>145.6</ele>
        <time>2012-09-15T18:33:11Z</time>
      </trkpt>
      <trkpt lat="59.4820501688" lon="17.8144681475">
        <ele>145.2</ele>
        <time>2012-09-15T18:33:12Z</time>
      </trkpt>
      <trkpt lat="59.4820365901" lon="17.8144169341">
        <ele>144.8</ele>
        <time>2012-09-15T18:33:13Z</time>
      </trkpt>
      <trkpt lat="59.4820282082" lon="17.814366056">
        <ele>144.2</ele>
        <time>2012-09-15T18:33:14Z</time>
      </trkpt>
      <trkpt lat="59.4820235144" lon="17.8143149264">
        <ele>143.8</ele>
        <time>2012-09-15T18:33:15Z</time>
      </trkpt>
      <trkpt lat="59.4820408649" lon="17.8141801454">
        <ele>143.8</ele>
        <time>2012-09-15T18:33:18Z</time>
      </trkpt>
      <trkpt lat="59.4820536892" lon="17.8141550836">
        <ele>143.8</ele>
        <time>2012-09-15T18:33:19Z</time>
      </trkpt>
      <trkpt lat="59.4821577924" lon="17.8142045368">
        <ele>143.8</ele>
        <time>2012-09-15T18:33:23Z</time>
      </trkpt>
      <trkpt lat="59.4823007876" lon="17.8142481226">
        <ele>143.8</ele>
        <time>2012-09-15T18:33:26Z</time>
      </trkpt>
      <trkpt lat="59.4823579522" lon="17.8142810635">
        <ele>143.8</ele>
        <time>2012-09-15T18:33:27Z</time>
      </trkpt>
      <trkpt lat="59.4824570262" lon="17.8143517229">
        <ele>143.8</ele>
        <time>2012-09-15T18:33:29Z</time>
      </trkpt>
      <trkpt lat="59.482603458" lon="17.8145475241">
        <ele>143.8</ele>
        <time>2012-09-15T18:33:32Z</time>
      </trkpt>
      <trkpt lat="59.4826915518" lon="17.8146992365">
        <ele>143.8</ele>
        <time>2012-09-15T18:33:34Z</time>
      </trkpt>
      <trkpt lat="59.4828389894" lon="17.8149673735">
        <ele>143.8</ele>
        <time>2012-09-15T18:33:38Z</time>
      </trkpt>
      <trkpt lat="59.4829069666" lon="17.8151007295">
        <ele>143.8</ele>
        <time>2012-09-15T18:33:40Z</time>
      </trkpt>
      <trkpt lat="59.483069324" lon="17.8153128754">
        <ele>143.8</ele>
        <time>2012-09-15T18:33:44Z</time>
      </trkpt>
      <trkpt lat="59.4833459267" lon="17.8156220837">
        <ele>143.8</ele>
        <time>2012-09-15T18:33:50Z</time>
      </trkpt>
      <trkpt lat="59.4835085356" lon="17.8159540907">
        <ele>143.8</ele>
        <time>2012-09-15T18:33:54Z</time>
      </trkpt>
      <trkpt lat="59.4836097051" lon="17.816216528">
        <ele>143.8</ele>
        <time>2012-09-15T18:33:57Z</time>
      </trkpt>
      <trkpt lat="59.4836874053" lon="17.8163585174">
        <ele>143.8</ele>
        <time>2012-09-15T18:33:59Z</time>
      </trkpt>
      <trkpt lat="59.4839559614" lon="17.8166848248">
        <ele>143.8</ele>
        <time>2012-09-15T18:34:05Z</time>
      </trkpt>
      <trkpt lat="59.4842988649" lon="17.8170219448">
        <ele>143.8</ele>
        <time>2012-09-15T18:34:12Z</time>
      </trkpt>
      <trkpt lat="59.4846256752" lon="17.8172151476">
        <ele>143.8</ele>
        <time>2012-09-15T18:34:18Z</time>
      </trkpt>
      <trkpt lat="59.4848973326" lon="17.8173050854">
        <ele>143.8</ele>
        <time>2012-09-15T18:34:23Z</time>
      </trkpt>
      <trkpt lat="59.4849597778" lon="17.8173328295">
        <ele>143.8</ele>
        <time>2012-09-15T18:34:24Z</time>
      </trkpt>
      <trkpt lat="59.4850902839" lon="17.8174263715">
        <ele>143.8</ele>
        <time>2012-09-15T18:34:26Z</time>
      </trkpt>
      <trkpt lat="59.4852086364" lon="17.8175437181">
        <ele>143.8</ele>
        <time>2012-09-15T18:34:28Z</time>
      </trkpt>
      <trkpt lat="59.4852711653" lon="17.8175763237">
        <ele>143.8</ele>
        <time>2012-09-15T18:34:29Z</time>
      </trkpt>
      <trkpt lat="59.485394966" lon="17.8175509265">
        <ele>143.8</ele>
        <time>2012-09-15T18:34:31Z</time>
      </trkpt>
      <trkpt lat="59.4855575749" lon="17.8173722244">
        <ele>143.8</ele>
        <time>2012-09-15T18:34:34Z</time>
      </trkpt>
      <trkpt lat="59.4856162482" lon="17.817307097">
        <ele>143.8</ele>
        <time>2012-09-15T18:34:35Z</time>
      </trkpt>
      <trkpt lat="59.4859768375" lon="17.8169984755">
        <ele>143.8</ele>
        <time>2012-09-15T18:34:41Z</time>
      </trkpt>
      <trkpt lat="59.4860433898" lon="17.8169781075">
        <ele>143.8</ele>
        <time>2012-09-15T18:34:42Z</time>
      </trkpt>
      <trkpt lat="59.4863824376" lon="17.8168448353">
        <ele>143.8</ele>
        <time>2012-09-15T18:34:48Z</time>
      </trkpt>
      <trkpt lat="59.4864380096" lon="17.8168549774">
        <ele>143.8</ele>
        <time>2012-09-15T18:34:49Z</time>
      </trkpt>
      <trkpt lat="59.4865855311" lon="17.8169786942">
        <ele>143.8</ele>
        <time>2012-09-15T18:34:52Z</time>
      </trkpt>
      <trkpt lat="59.4868042149" lon="17.817348336">
        <ele>143.8</ele>
        <time>2012-09-15T18:34:57Z</time>
      </trkpt>
      <trkpt lat="59.4870815719" lon="17.8179245078">
        <ele>143.8</ele>
        <time>2012-09-15T18:35:04Z</time>
      </trkpt>
      <trkpt lat="59.4873401535" lon="17.8184954828">
        <ele>143.8</ele>
        <time>2012-09-15T18:35:11Z</time>
      </trkpt>
      <trkpt lat="59.4874222123" lon="17.8186548227">
        <ele>143.8</ele>
        <time>2012-09-15T18:35:13Z</time>
      </trkpt>
      <trkpt lat="59.4875657105" lon="17.8189039328">
        <ele>143.8</ele>
        <time>2012-09-15T18:35:17Z</time>
      </trkpt>
      <trkpt lat="59.4878342665" lon="17.8193722296">
        <ele>143.8</ele>
        <time>2012-09-15T18:35:24Z</time>
      </trkpt>
      <trkpt lat="59.4880848854" lon="17.8197795899">
        <ele>143.8</ele>
        <time>2012-09-15T18:35:30Z</time>
      </trkpt>
      <trkpt lat="59.488228132" lon="17.8200672567">
        <ele>143.8</ele>
        <time>2012-09-15T18:35:34Z</time>
      </trkpt>
      <trkpt lat="59.4882660182" lon="17.8201521654">
        <ele>143.8</ele>
        <time>2012-09-15T18:35:35Z</time>
      </trkpt>
      <trkpt lat="59.4884895635" lon="17.8207122439">
        <ele>143.8</ele>
        <time>2012-09-15T18:35:42Z</time>
      </trkpt>
      <trkpt lat="59.4887094207" lon="17.8211133178">
        <ele>143.8</ele>
        <time>2012-09-15T18:35:48Z</time>
      </trkpt>
      <trkpt lat="59.4888752985" lon="17.821348933">
        <ele>143.8</ele>
        <time>2012-09-15T18:35:52Z</time>
      </trkpt>
      <trkpt lat="59.4889187168" lon="17.8214179999">
        <ele>143.8</ele>
        <time>2012-09-15T18:35:53Z</time>
      </trkpt>
      <trkpt lat="59.4889659069" lon="17.821480026">
        <ele>143.8</ele>
        <time>2012-09-15T18:35:54Z</time>
      </trkpt>
      <trkpt lat="59.489058946" lon="17.8215915891">
        <ele>143.8</ele>
        <time>2012-09-15T18:35:56Z</time>
      </trkpt>
      <trkpt lat="59.4891475426" lon="17.8217100253">
        <ele>143.8</ele>
        <time>2012-09-15T18:35:58Z</time>
      </trkpt>
      <trkpt lat="59.4893783802" lon="17.8220590476">
        <ele>143.8</ele>
        <time>2012-09-15T18:36:03Z</time>
      </trkpt>
      <trkpt lat="59.4897210322" lon="17.8225403363">
        <ele>143.8</ele>
        <time>2012-09-15T18:36:10Z</time>
      </trkpt>
      <trkpt lat="59.4900667856" lon="17.8230080463">
        <ele>143.8</ele>
        <time>2012-09-15T18:36:18Z</time>
      </trkpt>
      <trkpt lat="59.4903036581" lon="17.8233736648">
        <ele>143.8</ele>
        <time>2012-09-15T18:36:24Z</time>
      </trkpt>
      <trkpt lat="59.4903461543" lon="17.8234286501">
        <ele>143.8</ele>
        <time>2012-09-15T18:36:25Z</time>
      </trkpt>
      <trkpt lat="59.4905904867" lon="17.8237546222">
        <ele>143.8</ele>
        <time>2012-09-15T18:36:30Z</time>
      </trkpt>
      <trkpt lat="59.4906406105" lon="17.8238008064">
        <ele>143.8</ele>
        <time>2012-09-15T18:36:31Z</time>
      </trkpt>
      <trkpt lat="59.4908812548" lon="17.8240976095">
        <ele>143.8</ele>
        <time>2012-09-15T18:36:36Z</time>
      </trkpt>
      <trkpt lat="59.4909588712" lon="17.8242277804">
        <ele>143.8</ele>
        <time>2012-09-15T18:36:38Z</time>
      </trkpt>
      <trkpt lat="59.4910555145" lon="17.824375218">
        <ele>143.8</ele>
        <time>2012-09-15T18:36:41Z</time>
      </trkpt>
      <trkpt lat="59.4912705941" lon="17.8247417585">
        <ele>143.8</ele>
        <time>2012-09-15T18:36:47Z</time>
      </trkpt>
      <trkpt lat="59.4914938041" lon="17.8250639588">
        <ele>143.8</ele>
        <time>2012-09-15T18:36:52Z</time>
      </trkpt>
      <trkpt lat="59.4915386472" lon="17.8251192793">
        <ele>143.8</ele>
        <time>2012-09-15T18:36:53Z</time>
      </trkpt>
      <trkpt lat="59.4917227976" lon="17.8253231271">
        <ele>143.8</ele>
        <time>2012-09-15T18:36:57Z</time>
      </trkpt>
      <trkpt lat="59.4918379649" lon="17.8253998215">
        <ele>143.8</ele>
        <time>2012-09-15T18:36:59Z</time>
      </trkpt>
      <trkpt lat="59.4921085326" lon="17.8255511148">
        <ele>143.8</ele>
        <time>2012-09-15T18:37:04Z</time>
      </trkpt>
      <trkpt lat="59.4924985424" lon="17.8257113767">
        <ele>143.8</ele>
        <time>2012-09-15T18:37:11Z</time>
      </trkpt>
      <trkpt lat="59.4928157974" lon="17.8258856364">
        <ele>143.8</ele>
        <time>2012-09-15T18:37:17Z</time>
      </trkpt>
      <trkpt lat="59.4929246782" lon="17.8258967005">
        <ele>143.8</ele>
        <time>2012-09-15T18:37:19Z</time>
      </trkpt>
      <trkpt lat="59.4930278594" lon="17.8258700461">
        <ele>143.8</ele>
        <time>2012-09-15T18:37:21Z</time>
      </trkpt>
      <trkpt lat="59.4931641491" lon="17.8257387855">
        <ele>143</ele>
        <time>2012-09-15T18:37:24Z</time>
      </trkpt>
      <trkpt lat="59.4932065615" lon="17.8256938585">
        <ele>142.6</ele>
        <time>2012-09-15T18:37:25Z</time>
      </trkpt>
      <trkpt lat="59.493248471" lon="17.8256495183">
        <ele>142.2</ele>
        <time>2012-09-15T18:37:26Z</time>
      </trkpt>
      <trkpt lat="59.493296164" lon="17.8256006518">
        <ele>141.8</ele>
        <time>2012-09-15T18:37:27Z</time>
      </trkpt>
      <trkpt lat="59.4935117465" lon="17.8253805431">
        <ele>141.8</ele>
        <time>2012-09-15T18:37:31Z</time>
      </trkpt>
      <trkpt lat="59.4937076315" lon="17.8251897711">
        <ele>141.8</ele>
        <time>2012-09-15T18:37:35Z</time>
      </trkpt>
      <trkpt lat="59.4938312645" lon="17.8251186926">
        <ele>141.8</ele>
        <time>2012-09-15T18:37:37Z</time>
      </trkpt>
      <trkpt lat="59.4940873316" lon="17.8249528986">
        <ele>141.8</ele>
        <time>2012-09-15T18:37:42Z</time>
      </trkpt>
      <trkpt lat="59.4941386288" lon="17.8248986677">
        <ele>141.8</ele>
        <time>2012-09-15T18:37:43Z</time>
      </trkpt>
      <trkpt lat="59.4944099509" lon="17.8245970031">
        <ele>141.8</ele>
        <time>2012-09-15T18:37:49Z</time>
      </trkpt>
      <trkpt lat="59.4944478371" lon="17.8245369049">
        <ele>141.8</ele>
        <time>2012-09-15T18:37:50Z</time>
      </trkpt>
      <trkpt lat="59.4945504316" lon="17.824246975">
        <ele>141.8</ele>
        <time>2012-09-15T18:37:54Z</time>
      </trkpt>
      <trkpt lat="59.4945573885" lon="17.8238402852">
        <ele>141.8</ele>
        <time>2012-09-15T18:37:58Z</time>
      </trkpt>
      <trkpt lat="59.4945325781" lon="17.8235285623">
        <ele>141.8</ele>
        <time>2012-09-15T18:38:01Z</time>
      </trkpt>
      <trkpt lat="59.4945202567" lon="17.8234398818">
        <ele>141.8</ele>
        <time>2012-09-15T18:38:02Z</time>
      </trkpt>
      <trkpt lat="59.4945055046" lon="17.8232549771">
        <ele>142.2</ele>
        <time>2012-09-15T18:38:04Z</time>
      </trkpt>
      <trkpt lat="59.494496955" lon="17.8231592558">
        <ele>142.6</ele>
        <time>2012-09-15T18:38:05Z</time>
      </trkpt>
      <trkpt lat="59.4944912553" lon="17.8230641212">
        <ele>143</ele>
        <time>2012-09-15T18:38:06Z</time>
      </trkpt>
      <trkpt lat="59.4944876511" lon="17.8229689867">
        <ele>143.4</ele>
        <time>2012-09-15T18:38:07Z</time>
      </trkpt>
      <trkpt lat="59.494488154" lon="17.8228671466">
        <ele>143.8</ele>
        <time>2012-09-15T18:38:08Z</time>
      </trkpt>
      <trkpt lat="59.4944916744" lon="17.8227774603">
        <ele>143.8</ele>
        <time>2012-09-15T18:38:09Z</time>
      </trkpt>
      <trkpt lat="59.4945042473" lon="17.8226964911">
        <ele>143.8</ele>
        <time>2012-09-15T18:38:10Z</time>
      </trkpt>
      <trkpt lat="59.4945096955" lon="17.8224189664">
        <ele>143.8</ele>
        <time>2012-09-15T18:38:14Z</time>
      </trkpt>
      <trkpt lat="59.494475665" lon="17.8220094268">
        <ele>143.8</ele>
        <time>2012-09-15T18:38:20Z</time>
      </trkpt>
      <trkpt lat="59.4945313208" lon="17.8215936845">
        <ele>143.8</ele>
        <time>2012-09-15T18:38:25Z</time>
      </trkpt>
      <trkpt lat="59.4946052492" lon="17.8212621804">
        <ele>143.8</ele>
        <time>2012-09-15T18:38:29Z</time>
      </trkpt>
      <trkpt lat="59.494672472" lon="17.8211307522">
        <ele>143.8</ele>
        <time>2012-09-15T18:38:31Z</time>
      </trkpt>
      <trkpt lat="59.494768361" lon="17.8209113979">
        <ele>143.8</ele>
        <time>2012-09-15T18:38:34Z</time>
      </trkpt>
      <trkpt lat="59.4948721289" lon="17.8207767846">
        <ele>143.8</ele>
        <time>2012-09-15T18:38:37Z</time>
      </trkpt>
      <trkpt lat="59.4949715382" lon="17.8206387347">
        <ele>144.2</ele>
        <time>2012-09-15T18:38:40Z</time>
      </trkpt>
      <trkpt lat="59.4950052335" lon="17.8205651416">
        <ele>144.8</ele>
        <time>2012-09-15T18:38:41Z</time>
      </trkpt>
      <trkpt lat="59.4950347377" lon="17.820482496">
        <ele>145.2</ele>
        <time>2012-09-15T18:38:42Z</time>
      </trkpt>
      <trkpt lat="59.4950801676" lon="17.8203946537">
        <ele>145.6</ele>
        <time>2012-09-15T18:38:43Z</time>
      </trkpt>
      <trkpt lat="59.4951147011" lon="17.8203243296">
        <ele>146</ele>
        <time>2012-09-15T18:38:44Z</time>
      </trkpt>
      <trkpt lat="59.4952112606" lon="17.8201138601">
        <ele>146</ele>
        <time>2012-09-15T18:38:47Z</time>
      </trkpt>
      <trkpt lat="59.4953007792" lon="17.8199721222">
        <ele>146</ele>
        <time>2012-09-15T18:38:49Z</time>
      </trkpt>
      <trkpt lat="59.4954318722" lon="17.8198453878">
        <ele>146</ele>
        <time>2012-09-15T18:38:52Z</time>
      </trkpt>
      <trkpt lat="59.4954725244" lon="17.8198142072">
        <ele>146</ele>
        <time>2012-09-15T18:38:53Z</time>
      </trkpt>
      <trkpt lat="59.4957845825" lon="17.8195945176">
        <ele>146</ele>
        <time>2012-09-15T18:38:59Z</time>
      </trkpt>
      <trkpt lat="59.4960731713" lon="17.8193226087">
        <ele>145.6</ele>
        <time>2012-09-15T18:39:04Z</time>
      </trkpt>
      <trkpt lat="59.4961274022" lon="17.8192804478">
        <ele>145.2</ele>
        <time>2012-09-15T18:39:05Z</time>
      </trkpt>
      <trkpt lat="59.4961769393" lon="17.8192221097">
        <ele>144.8</ele>
        <time>2012-09-15T18:39:06Z</time>
      </trkpt>
      <trkpt lat="59.4962184297" lon="17.8191502769">
        <ele>144.2</ele>
        <time>2012-09-15T18:39:07Z</time>
      </trkpt>
      <trkpt lat="59.496264111" lon="17.8190636918">
        <ele>143.8</ele>
        <time>2012-09-15T18:39:08Z</time>
      </trkpt>
      <trkpt lat="59.4963105467" lon="17.8189559844">
        <ele>143.4</ele>
        <time>2012-09-15T18:39:09Z</time>
      </trkpt>
      <trkpt lat="59.4963568986" lon="17.8188516298">
        <ele>142.8</ele>
        <time>2012-09-15T18:39:10Z</time>
      </trkpt>
      <trkpt lat="59.496409537" lon="17.8187555732">
        <ele>142.2</ele>
        <time>2012-09-15T18:39:11Z</time>
      </trkpt>
      <trkpt lat="59.4964661148" lon="17.8186937148">
        <ele>141.6</ele>
        <time>2012-09-15T18:39:12Z</time>
      </trkpt>
      <trkpt lat="59.4965278056" lon="17.8186595166">
        <ele>140.8</ele>
        <time>2012-09-15T18:39:13Z</time>
      </trkpt>
      <trkpt lat="59.496601231" lon="17.8186576726">
        <ele>140</ele>
        <time>2012-09-15T18:39:14Z</time>
      </trkpt>
      <trkpt lat="59.4966706332" lon="17.8186853329">
        <ele>139.2</ele>
        <time>2012-09-15T18:39:15Z</time>
      </trkpt>
      <trkpt lat="59.4967360958" lon="17.8187358757">
        <ele>138.4</ele>
        <time>2012-09-15T18:39:16Z</time>
      </trkpt>
      <trkpt lat="59.4967908296" lon="17.8187915315">
        <ele>137.6</ele>
        <time>2012-09-15T18:39:17Z</time>
      </trkpt>
      <trkpt lat="59.4968433003" lon="17.8188448404">
        <ele>136.8</ele>
        <time>2012-09-15T18:39:18Z</time>
      </trkpt>
      <trkpt lat="59.4968882273" lon="17.8189060283">
        <ele>136.8</ele>
        <time>2012-09-15T18:39:19Z</time>
      </trkpt>
      <trkpt lat="59.4969314779" lon="17.8189273183">
        <ele>136.8</ele>
        <time>2012-09-15T18:39:20Z</time>
      </trkpt>
      <trkpt lat="59.4971458031" lon="17.8188838163">
        <ele>136.8</ele>
        <time>2012-09-15T18:39:24Z</time>
      </trkpt>
      <trkpt lat="59.4972617248" lon="17.8187923697">
        <ele>136.8</ele>
        <time>2012-09-15T18:39:26Z</time>
      </trkpt>
      <trkpt lat="59.4974225734" lon="17.8186200379">
        <ele>136.8</ele>
        <time>2012-09-15T18:39:29Z</time>
      </trkpt>
      <trkpt lat="59.49767051" lon="17.8182001047">
        <ele>136.8</ele>
        <time>2012-09-15T18:39:34Z</time>
      </trkpt>
      <trkpt lat="59.4978319454" lon="17.8179478095">
        <ele>136.8</ele>
        <time>2012-09-15T18:39:37Z</time>
      </trkpt>
      <trkpt lat="59.4979498787" lon="17.8178676785">
        <ele>136.8</ele>
        <time>2012-09-15T18:39:39Z</time>
      </trkpt>
      <trkpt lat="59.4980790438" lon="17.817819315">
        <ele>136.8</ele>
        <time>2012-09-15T18:39:41Z</time>
      </trkpt>
      <trkpt lat="59.4981419081" lon="17.8178128609">
        <ele>136.8</ele>
        <time>2012-09-15T18:39:42Z</time>
      </trkpt>
      <trkpt lat="59.4982434967" lon="17.8178696064">
        <ele>136.8</ele>
        <time>2012-09-15T18:39:44Z</time>
      </trkpt>
      <trkpt lat="59.4983948738" lon="17.8179451273">
        <ele>136.8</ele>
        <time>2012-09-15T18:39:47Z</time>
      </trkpt>
      <trkpt lat="59.4984532957" lon="17.8179355719">
        <ele>136.8</ele>
        <time>2012-09-15T18:39:48Z</time>
      </trkpt>
      <trkpt lat="59.49859671" lon="17.8179329735">
        <ele>136.4</ele>
        <time>2012-09-15T18:39:50Z</time>
      </trkpt>
      <trkpt lat="59.4986883241" lon="17.817912857">
        <ele>136</ele>
        <time>2012-09-15T18:39:51Z</time>
      </trkpt>
      <trkpt lat="59.4987801898" lon="17.8179070734">
        <ele>135</ele>
        <time>2012-09-15T18:39:52Z</time>
      </trkpt>
      <trkpt lat="59.4988676968" lon="17.8179051456">
        <ele>134.4</ele>
        <time>2012-09-15T18:39:53Z</time>
      </trkpt>
      <trkpt lat="59.4989556229" lon="17.8179167126">
        <ele>134</ele>
        <time>2012-09-15T18:39:54Z</time>
      </trkpt>
      <trkpt lat="59.4990445549" lon="17.817949402">
        <ele>133.4</ele>
        <time>2012-09-15T18:39:55Z</time>
      </trkpt>
      <trkpt lat="59.4991145437" lon="17.8179971789">
        <ele>132.8</ele>
        <time>2012-09-15T18:39:56Z</time>
      </trkpt>
      <trkpt lat="59.4991795035" lon="17.8180428602">
        <ele>132.2</ele>
        <time>2012-09-15T18:39:57Z</time>
      </trkpt>
      <trkpt lat="59.4995976765" lon="17.8183814052">
        <ele>132.2</ele>
        <time>2012-09-15T18:40:04Z</time>
      </trkpt>
      <trkpt lat="59.4997248299" lon="17.8183836683">
        <ele>132.2</ele>
        <time>2012-09-15T18:40:07Z</time>
      </trkpt>
      <trkpt lat="59.4998123369" lon="17.8182623822">
        <ele>131.8</ele>
        <time>2012-09-15T18:40:09Z</time>
      </trkpt>
      <trkpt lat="59.4998570124" lon="17.8181902978">
        <ele>131.2</ele>
        <time>2012-09-15T18:40:10Z</time>
      </trkpt>
      <trkpt lat="59.4998972456" lon="17.8181326304">
        <ele>130.8</ele>
        <time>2012-09-15T18:40:11Z</time>
      </trkpt>
      <trkpt lat="59.4999351318" lon="17.8180553493">
        <ele>130.4</ele>
        <time>2012-09-15T18:40:12Z</time>
      </trkpt>
      <trkpt lat="59.499974862" lon="17.8179670879">
        <ele>130</ele>
        <time>2012-09-15T18:40:13Z</time>
      </trkpt>
      <trkpt lat="59.5000519754" lon="17.8176653395">
        <ele>130</ele>
        <time>2012-09-15T18:40:15Z</time>
      </trkpt>
      <trkpt lat="59.5000938849" lon="17.8173592325">
        <ele>129.2</ele>
        <time>2012-09-15T18:40:17Z</time>
      </trkpt>
      <trkpt lat="59.5001269096" lon="17.8172258764">
        <ele>128.8</ele>
        <time>2012-09-15T18:40:18Z</time>
      </trkpt>
      <trkpt lat="59.5001711661" lon="17.8171028301">
        <ele>128.4</ele>
        <time>2012-09-15T18:40:19Z</time>
      </trkpt>
      <trkpt lat="59.500225397" lon="17.8170129762">
        <ele>128</ele>
        <time>2012-09-15T18:40:20Z</time>
      </trkpt>
      <trkpt lat="59.5003386364" lon="17.8168059432">
        <ele>128</ele>
        <time>2012-09-15T18:40:22Z</time>
      </trkpt>
      <trkpt lat="59.500381887" lon="17.8166866688">
        <ele>127.6</ele>
        <time>2012-09-15T18:40:23Z</time>
      </trkpt>
      <trkpt lat="59.500426814" lon="17.8165613594">
        <ele>127.2</ele>
        <time>2012-09-15T18:40:24Z</time>
      </trkpt>
      <trkpt lat="59.5004709028" lon="17.8164401571">
        <ele>126.8</ele>
        <time>2012-09-15T18:40:25Z</time>
      </trkpt>
      <trkpt lat="59.5005210266" lon="17.816321218">
        <ele>126.4</ele>
        <time>2012-09-15T18:40:26Z</time>
      </trkpt>
      <trkpt lat="59.5005688034" lon="17.8162060507">
        <ele>126</ele>
        <time>2012-09-15T18:40:27Z</time>
      </trkpt>
      <trkpt lat="59.5006662011" lon="17.8160104171">
        <ele>125.6</ele>
        <time>2012-09-15T18:40:29Z</time>
      </trkpt>
      <trkpt lat="59.5007174145" lon="17.8159111754">
        <ele>125.2</ele>
        <time>2012-09-15T18:40:30Z</time>
      </trkpt>
      <trkpt lat="59.500772735" lon="17.8158078266">
        <ele>124.6</ele>
        <time>2012-09-15T18:40:31Z</time>
      </trkpt>
      <trkpt lat="59.5008197575" lon="17.8156946709">
        <ele>124.2</ele>
        <time>2012-09-15T18:40:32Z</time>
      </trkpt>
      <trkpt lat="59.5008538718" lon="17.8155545256">
        <ele>123.8</ele>
        <time>2012-09-15T18:40:33Z</time>
      </trkpt>
      <trkpt lat="59.5009036603" lon="17.8152332473">
        <ele>123.8</ele>
        <time>2012-09-15T18:40:35Z</time>
      </trkpt>
      <trkpt lat="59.5009232739" lon="17.8150825408">
        <ele>123.8</ele>
        <time>2012-09-15T18:40:36Z</time>
      </trkpt>
      <trkpt lat="59.500945486" lon="17.8149374501">
        <ele>123.4</ele>
        <time>2012-09-15T18:40:37Z</time>
      </trkpt>
      <trkpt lat="59.5009807738" lon="17.8148094585">
        <ele>123</ele>
        <time>2012-09-15T18:40:38Z</time>
      </trkpt>
      <trkpt lat="59.5010163969" lon="17.8146812992">
        <ele>122.6</ele>
        <time>2012-09-15T18:40:39Z</time>
      </trkpt>
      <trkpt lat="59.5010536125" lon="17.814570742">
        <ele>122</ele>
        <time>2012-09-15T18:40:40Z</time>
      </trkpt>
      <trkpt lat="59.5010914987" lon="17.8144469413">
        <ele>121.6</ele>
        <time>2012-09-15T18:40:41Z</time>
      </trkpt>
      <trkpt lat="59.5012278722" lon="17.8138723621">
        <ele>121.6</ele>
        <time>2012-09-15T18:40:46Z</time>
      </trkpt>
      <trkpt lat="59.5012466476" lon="17.8137615533">
        <ele>121.2</ele>
        <time>2012-09-15T18:40:47Z</time>
      </trkpt>
      <trkpt lat="59.5012667642" lon="17.8136610544">
        <ele>120.8</ele>
        <time>2012-09-15T18:40:48Z</time>
      </trkpt>
      <trkpt lat="59.5012768225" lon="17.8135930772">
        <ele>120.2</ele>
        <time>2012-09-15T18:40:49Z</time>
      </trkpt>
      <trkpt lat="59.5012999565" lon="17.8135557777">
        <ele>119.8</ele>
        <time>2012-09-15T18:40:50Z</time>
      </trkpt>
      <trkpt lat="59.5013149601" lon="17.8135217472">
        <ele>119.4</ele>
        <time>2012-09-15T18:40:51Z</time>
      </trkpt>
      <trkpt lat="59.5013292094" lon="17.8135189812">
        <ele>119.4</ele>
        <time>2012-09-15T18:40:52Z</time>
      </trkpt>
      <trkpt lat="59.5013507508" lon="17.8135028041">
        <ele>119.4</ele>
        <time>2012-09-15T18:40:54Z</time>
      </trkpt>
      <trkpt lat="59.501405317" lon="17.8134785804">
        <ele>119.4</ele>
        <time>2012-09-15T18:40:57Z</time>
      </trkpt>
      <trkpt lat="59.5015239209" lon="17.813436168">
        <ele>119</ele>
        <time>2012-09-15T18:41:00Z</time>
      </trkpt>
      <trkpt lat="59.5015773974" lon="17.8134165543">
        <ele>118.6</ele>
        <time>2012-09-15T18:41:01Z</time>
      </trkpt>
      <trkpt lat="59.5016374956" lon="17.813393085">
        <ele>118.2</ele>
        <time>2012-09-15T18:41:02Z</time>
      </trkpt>
      <trkpt lat="59.5016986835" lon="17.813383362">
        <ele>117.8</ele>
        <time>2012-09-15T18:41:03Z</time>
      </trkpt>
      <trkpt lat="59.5017637271" lon="17.8133876368">
        <ele>117.2</ele>
        <time>2012-09-15T18:41:04Z</time>
      </trkpt>
      <trkpt lat="59.5018201372" lon="17.8133894808">
        <ele>116.8</ele>
        <time>2012-09-15T18:41:05Z</time>
      </trkpt>
      <trkpt lat="59.5018787267" lon="17.8133859604">
        <ele>116.4</ele>
        <time>2012-09-15T18:41:06Z</time>
      </trkpt>
      <trkpt lat="59.5019342987" lon="17.813391241">
        <ele>115.6</ele>
        <time>2012-09-15T18:41:07Z</time>
      </trkpt>
      <trkpt lat="59.5019877752" lon="17.8133890617">
        <ele>115.2</ele>
        <time>2012-09-15T18:41:08Z</time>
      </trkpt>
      <trkpt lat="59.5021124141" lon="17.8133412011">
        <ele>115.2</ele>
        <time>2012-09-15T18:41:11Z</time>
      </trkpt>
      <trkpt lat="59.5022042797" lon="17.8133283768">
        <ele>115.2</ele>
        <time>2012-09-15T18:41:13Z</time>
      </trkpt>
      <trkpt lat="59.5023216263" lon="17.8133763212">
        <ele>115.2</ele>
        <time>2012-09-15T18:41:15Z</time>
      </trkpt>
      <trkpt lat="59.5023784556" lon="17.8133762374">
        <ele>115.2</ele>
        <time>2012-09-15T18:41:16Z</time>
      </trkpt>
      <trkpt lat="59.5024304234" lon="17.8133631616">
        <ele>114.8</ele>
        <time>2012-09-15T18:41:17Z</time>
      </trkpt>
      <trkpt lat="59.5024911083" lon="17.813372717">
        <ele>114.4</ele>
        <time>2012-09-15T18:41:18Z</time>
      </trkpt>
      <trkpt lat="59.5025582474" lon="17.8133909057">
        <ele>114</ele>
        <time>2012-09-15T18:41:19Z</time>
      </trkpt>
      <trkpt lat="59.5026175074" lon="17.813423176">
        <ele>113.6</ele>
        <time>2012-09-15T18:41:20Z</time>
      </trkpt>
      <trkpt lat="59.502675594" lon="17.8134606431">
        <ele>113.2</ele>
        <time>2012-09-15T18:41:21Z</time>
      </trkpt>
      <trkpt lat="59.5027980535" lon="17.8135347391">
        <ele>113.2</ele>
        <time>2012-09-15T18:41:23Z</time>
      </trkpt>
      <trkpt lat="59.502942306" lon="17.8136266048">
        <ele>113.2</ele>
        <time>2012-09-15T18:41:26Z</time>
      </trkpt>
      <trkpt lat="59.5029767556" lon="17.8136784887">
        <ele>113.2</ele>
        <time>2012-09-15T18:41:27Z</time>
      </trkpt>
      <trkpt lat="59.5031175715" lon="17.8138323804">
        <ele>113.2</ele>
        <time>2012-09-15T18:41:31Z</time>
      </trkpt>
      <trkpt lat="59.5031931763" lon="17.8138812469">
        <ele>113.2</ele>
        <time>2012-09-15T18:41:33Z</time>
      </trkpt>
      <trkpt lat="59.5033358362" lon="17.8138528322">
        <ele>113.2</ele>
        <time>2012-09-15T18:41:37Z</time>
      </trkpt>
      <trkpt lat="59.5034570385" lon="17.8136447097">
        <ele>113.2</ele>
        <time>2012-09-15T18:41:41Z</time>
      </trkpt>
      <trkpt lat="59.5036193959" lon="17.8133059133">
        <ele>113.2</ele>
        <time>2012-09-15T18:41:47Z</time>
      </trkpt>
      <trkpt lat="59.5038109223" lon="17.8130290591">
        <ele>113.2</ele>
        <time>2012-09-15T18:41:53Z</time>
      </trkpt>
      <trkpt lat="59.5039300291" lon="17.8128663664">
        <ele>112.2</ele>
        <time>2012-09-15T18:41:56Z</time>
      </trkpt>
      <trkpt lat="59.5039778059" lon="17.8128154883">
        <ele>111.8</ele>
        <time>2012-09-15T18:41:57Z</time>
      </trkpt>
      <trkpt lat="59.5040208889" lon="17.8127636882">
        <ele>111.4</ele>
        <time>2012-09-15T18:41:58Z</time>
      </trkpt>
      <trkpt lat="59.504064391" lon="17.8127138997">
        <ele>111</ele>
        <time>2012-09-15T18:41:59Z</time>
      </trkpt>
      <trkpt lat="59.5041433485" lon="17.8125735867">
        <ele>111</ele>
        <time>2012-09-15T18:42:01Z</time>
      </trkpt>
      <trkpt lat="59.5042016027" lon="17.8123591777">
        <ele>111</ele>
        <time>2012-09-15T18:42:03Z</time>
      </trkpt>
      <trkpt lat="59.5043068793" lon="17.8117393362">
        <ele>111</ele>
        <time>2012-09-15T18:42:08Z</time>
      </trkpt>
      <trkpt lat="59.5043744375" lon="17.8113840274">
        <ele>110.6</ele>
        <time>2012-09-15T18:42:11Z</time>
      </trkpt>
      <trkpt lat="59.5043909498" lon="17.8112602267">
        <ele>110.2</ele>
        <time>2012-09-15T18:42:12Z</time>
      </trkpt>
      <trkpt lat="59.5044057858" lon="17.8111441374">
        <ele>109.8</ele>
        <time>2012-09-15T18:42:13Z</time>
      </trkpt>
      <trkpt lat="59.5044098091" lon="17.8110265394">
        <ele>109.4</ele>
        <time>2012-09-15T18:42:14Z</time>
      </trkpt>
      <trkpt lat="59.5044091385" lon="17.8109217656">
        <ele>109</ele>
        <time>2012-09-15T18:42:15Z</time>
      </trkpt>
      <trkpt lat="59.504367229" lon="17.8106382898">
        <ele>109</ele>
        <time>2012-09-15T18:42:18Z</time>
      </trkpt>
      <trkpt lat="59.5043404069" lon="17.810357077">
        <ele>109</ele>
        <time>2012-09-15T18:42:22Z</time>
      </trkpt>
      <trkpt lat="59.5043476992" lon="17.8100998365">
        <ele>109</ele>
        <time>2012-09-15T18:42:25Z</time>
      </trkpt>
      <trkpt lat="59.5043084719" lon="17.8098666521">
        <ele>109</ele>
        <time>2012-09-15T18:42:28Z</time>
      </trkpt>
      <trkpt lat="59.5041894489" lon="17.8098228147">
        <ele>109</ele>
        <time>2012-09-15T18:42:31Z</time>
      </trkpt>
      <trkpt lat="59.5041404148" lon="17.8098177018">
        <ele>109</ele>
        <time>2012-09-15T18:42:32Z</time>
      </trkpt>
      <trkpt lat="59.5040445259" lon="17.8098223118">
        <ele>109</ele>
        <time>2012-09-15T18:42:34Z</time>
      </trkpt>
      <trkpt lat="59.5040112497" lon="17.809848631">
        <ele>109</ele>
        <time>2012-09-15T18:42:35Z</time>
      </trkpt>
      <trkpt lat="59.5039691726" lon="17.8098519837">
        <ele>109.4</ele>
        <time>2012-09-15T18:42:36Z</time>
      </trkpt>
      <trkpt lat="59.5039294424" lon="17.809875034">
        <ele>109.8</ele>
        <time>2012-09-15T18:42:37Z</time>
      </trkpt>
      <trkpt lat="59.5038910533" lon="17.809888445">
        <ele>110.2</ele>
        <time>2012-09-15T18:42:38Z</time>
      </trkpt>
      <trkpt lat="59.5038463778" lon="17.8098933903">
        <ele>110.6</ele>
        <time>2012-09-15T18:42:39Z</time>
      </trkpt>
      <trkpt lat="59.5038115929" lon="17.8098899537">
        <ele>111</ele>
        <time>2012-09-15T18:42:40Z</time>
      </trkpt>
      <trkpt lat="59.5037032149" lon="17.8098254131">
        <ele>111</ele>
        <time>2012-09-15T18:42:42Z</time>
      </trkpt>
      <trkpt lat="59.5035375886" lon="17.809863886">
        <ele>111</ele>
        <time>2012-09-15T18:42:45Z</time>
      </trkpt>
      <trkpt lat="59.5032490836" lon="17.8099580986">
        <ele>111</ele>
        <time>2012-09-15T18:42:51Z</time>
      </trkpt>
      <trkpt lat="59.5031866384" lon="17.8099502196">
        <ele>111</ele>
        <time>2012-09-15T18:42:52Z</time>
      </trkpt>
      <trkpt lat="59.5030278852" lon="17.8099752815">
        <ele>111</ele>
        <time>2012-09-15T18:42:55Z</time>
      </trkpt>
      <trkpt lat="59.5028114646" lon="17.810080642">
        <ele>111</ele>
        <time>2012-09-15T18:43:00Z</time>
      </trkpt>
      <trkpt lat="59.5026956267" lon="17.8098891994">
        <ele>111</ele>
        <time>2012-09-15T18:43:03Z</time>
      </trkpt>
      <trkpt lat="59.502666793" lon="17.8098150196">
        <ele>111</ele>
        <time>2012-09-15T18:43:04Z</time>
      </trkpt>
      <trkpt lat="59.5026014141" lon="17.8095912228">
        <ele>111</ele>
        <time>2012-09-15T18:43:07Z</time>
      </trkpt>
      <trkpt lat="59.5025146615" lon="17.8092093435">
        <ele>111</ele>
        <time>2012-09-15T18:43:11Z</time>
      </trkpt>
      <trkpt lat="59.5024902702" lon="17.809112784">
        <ele>111</ele>
        <time>2012-09-15T18:43:12Z</time>
      </trkpt>
      <trkpt lat="59.5024705727" lon="17.8090107762">
        <ele>111</ele>
        <time>2012-09-15T18:43:13Z</time>
      </trkpt>
      <trkpt lat="59.5024172638" lon="17.8087842973">
        <ele>110.6</ele>
        <time>2012-09-15T18:43:15Z</time>
      </trkpt>
      <trkpt lat="59.5023999971" lon="17.8086635141">
        <ele>110.2</ele>
        <time>2012-09-15T18:43:16Z</time>
      </trkpt>
      <trkpt lat="59.5023906094" lon="17.8085344329">
        <ele>109.6</ele>
        <time>2012-09-15T18:43:17Z</time>
      </trkpt>
      <trkpt lat="59.5023808864" lon="17.8084055192">
        <ele>109.2</ele>
        <time>2012-09-15T18:43:18Z</time>
      </trkpt>
      <trkpt lat="59.5023740132" lon="17.808282892">
        <ele>108.6</ele>
        <time>2012-09-15T18:43:19Z</time>
      </trkpt>
      <trkpt lat="59.5023760249" lon="17.808158337">
        <ele>108</ele>
        <time>2012-09-15T18:43:20Z</time>
      </trkpt>
      <trkpt lat="59.5023885977" lon="17.8080366318">
        <ele>107.4</ele>
        <time>2012-09-15T18:43:21Z</time>
      </trkpt>
      <trkpt lat="59.5024073732" lon="17.8079195367">
        <ele>106.6</ele>
        <time>2012-09-15T18:43:22Z</time>
      </trkpt>
      <trkpt lat="59.5024321836" lon="17.8077979991">
        <ele>106</ele>
        <time>2012-09-15T18:43:23Z</time>
      </trkpt>
      <trkpt lat="59.5024621908" lon="17.8077042057">
        <ele>105.4</ele>
        <time>2012-09-15T18:43:24Z</time>
      </trkpt>
      <trkpt lat="59.5024893481" lon="17.807642012">
        <ele>104.8</ele>
        <time>2012-09-15T18:43:25Z</time>
      </trkpt>
      <trkpt lat="59.5025305033" lon="17.807578561">
        <ele>104.2</ele>
        <time>2012-09-15T18:43:26Z</time>
      </trkpt>
      <trkpt lat="59.5025818005" lon="17.807534556">
        <ele>103.6</ele>
        <time>2012-09-15T18:43:27Z</time>
      </trkpt>
      <trkpt lat="59.5026379592" lon="17.8075348913">
        <ele>103</ele>
        <time>2012-09-15T18:43:28Z</time>
      </trkpt>
      <trkpt lat="59.5026773542" lon="17.807580405">
        <ele>102.6</ele>
        <time>2012-09-15T18:43:29Z</time>
      </trkpt>
      <trkpt lat="59.5027527913" lon="17.8077078099">
        <ele>102.6</ele>
        <time>2012-09-15T18:43:32Z</time>
      </trkpt>
      <trkpt lat="59.502784391" lon="17.807752234">
        <ele>102.6</ele>
        <time>2012-09-15T18:43:33Z</time>
      </trkpt>
      <trkpt lat="59.5028444054" lon="17.8077572631">
        <ele>102.6</ele>
        <time>2012-09-15T18:43:34Z</time>
      </trkpt>
      <trkpt lat="59.5029132208" lon="17.8077791399">
        <ele>101.6</ele>
        <time>2012-09-15T18:43:35Z</time>
      </trkpt>
      <trkpt lat="59.5029764204" lon="17.8077941435">
        <ele>101.2</ele>
        <time>2012-09-15T18:43:36Z</time>
      </trkpt>
      <trkpt lat="59.503040961" lon="17.807823061">
        <ele>100.8</ele>
        <time>2012-09-15T18:43:37Z</time>
      </trkpt>
      <trkpt lat="59.5030973712" lon="17.8078482905">
        <ele>100.4</ele>
        <time>2012-09-15T18:43:38Z</time>
      </trkpt>
      <trkpt lat="59.5032352534" lon="17.8078821534">
        <ele>100.4</ele>
        <time>2012-09-15T18:43:41Z</time>
      </trkpt>
      <trkpt lat="59.5033051585" lon="17.8078685747">
        <ele>100.4</ele>
        <time>2012-09-15T18:44:05Z</time>
      </trkpt>
      <trkpt lat="59.5033459783" lon="17.8078713408">
        <ele>100.4</ele>
        <time>2012-09-15T18:44:07Z</time>
      </trkpt>
      <trkpt lat="59.5035033904" lon="17.8078655572">
        <ele>100.4</ele>
        <time>2012-09-15T18:44:11Z</time>
      </trkpt>
      <trkpt lat="59.5036084156" lon="17.8078459436">
        <ele>100.4</ele>
        <time>2012-09-15T18:44:13Z</time>
      </trkpt>
      <trkpt lat="59.503684188" lon="17.8079466102">
        <ele>100.4</ele>
        <time>2012-09-15T18:44:15Z</time>
      </trkpt>
      <trkpt lat="59.50378234" lon="17.808051384">
        <ele>100.4</ele>
        <time>2012-09-15T18:44:17Z</time>
      </trkpt>
      <trkpt lat="59.5039018659" lon="17.8081062854">
        <ele>100.4</ele>
        <time>2012-09-15T18:44:19Z</time>
      </trkpt>
      <trkpt lat="59.504125495" lon="17.8082779467">
        <ele>100.4</ele>
        <time>2012-09-15T18:44:23Z</time>
      </trkpt>
      <trkpt lat="59.5041712602" lon="17.8083290763">
        <ele>100.4</ele>
        <time>2012-09-15T18:44:24Z</time>
      </trkpt>
      <trkpt lat="59.5042131697" lon="17.8083889231">
        <ele>100.4</ele>
        <time>2012-09-15T18:44:25Z</time>
      </trkpt>
      <trkpt lat="59.5043277503" lon="17.8084865722">
        <ele>100.4</ele>
        <time>2012-09-15T18:44:28Z</time>
      </trkpt>
      <trkpt lat="59.5045500383" lon="17.8085326727">
        <ele>100.4</ele>
        <time>2012-09-15T18:44:33Z</time>
      </trkpt>
      <trkpt lat="59.5046330191" lon="17.8085916812">
        <ele>100.4</ele>
        <time>2012-09-15T18:44:35Z</time>
      </trkpt>
      <trkpt lat="59.504747432" lon="17.8086914259">
        <ele>100.4</ele>
        <time>2012-09-15T18:44:38Z</time>
      </trkpt>
      <trkpt lat="59.5048952887" lon="17.808901141">
        <ele>100.4</ele>
        <time>2012-09-15T18:44:42Z</time>
      </trkpt>
      <trkpt lat="59.5049728213" lon="17.8089453974">
        <ele>100.4</ele>
        <time>2012-09-15T18:44:44Z</time>
      </trkpt>
      <trkpt lat="59.5050780141" lon="17.8090560385">
        <ele>100.4</ele>
        <time>2012-09-15T18:44:47Z</time>
      </trkpt>
      <trkpt lat="59.5051428062" lon="17.809149832">
        <ele>100.4</ele>
        <time>2012-09-15T18:44:49Z</time>
      </trkpt>
      <trkpt lat="59.5052903277" lon="17.809362816">
        <ele>100.4</ele>
        <time>2012-09-15T18:44:53Z</time>
      </trkpt>
      <trkpt lat="59.5053121206" lon="17.8094385884">
        <ele>100.4</ele>
        <time>2012-09-15T18:44:54Z</time>
      </trkpt>
      <trkpt lat="59.5054302216" lon="17.809864808">
        <ele>100.4</ele>
        <time>2012-09-15T18:44:59Z</time>
      </trkpt>
      <trkpt lat="59.5054830275" lon="17.8099352998">
        <ele>100.4</ele>
        <time>2012-09-15T18:45:00Z</time>
      </trkpt>
      <trkpt lat="59.5056428704" lon="17.8100532331">
        <ele>100.4</ele>
        <time>2012-09-15T18:45:03Z</time>
      </trkpt>
      <trkpt lat="59.505690731" lon="17.810073685">
        <ele>100.4</ele>
        <time>2012-09-15T18:45:04Z</time>
      </trkpt>
      <trkpt lat="59.5057423635" lon="17.8101127446">
        <ele>100.4</ele>
        <time>2012-09-15T18:45:05Z</time>
      </trkpt>
      <trkpt lat="59.5058808325" lon="17.8102029339">
        <ele>100.4</ele>
        <time>2012-09-15T18:45:08Z</time>
      </trkpt>
      <trkpt lat="59.5059286094" lon="17.810216764">
        <ele>100.4</ele>
        <time>2012-09-15T18:45:09Z</time>
      </trkpt>
      <trkpt lat="59.5060582773" lon="17.810173262">
        <ele>100.4</ele>
        <time>2012-09-15T18:45:12Z</time>
      </trkpt>
      <trkpt lat="59.5060933975" lon="17.8101581745">
        <ele>100.4</ele>
        <time>2012-09-15T18:45:13Z</time>
      </trkpt>
      <trkpt lat="59.5062350516" lon="17.8099852559">
        <ele>100.4</ele>
        <time>2012-09-15T18:45:18Z</time>
      </trkpt>
      <trkpt lat="59.5064508017" lon="17.8098746987">
        <ele>100.4</ele>
        <time>2012-09-15T18:45:25Z</time>
      </trkpt>
      <trkpt lat="59.5065737642" lon="17.8098897861">
        <ele>100.4</ele>
        <time>2012-09-15T18:45:31Z</time>
      </trkpt>
      <trkpt lat="59.5065714173" lon="17.8097886166">
        <ele>100.4</ele>
        <time>2012-09-15T18:45:35Z</time>
      </trkpt>
      <trkpt lat="59.5065461039" lon="17.809809236">
        <ele>100.4</ele>
        <time>2012-09-15T18:45:37Z</time>
      </trkpt>
      <trkpt lat="59.5064943038" lon="17.8098650595">
        <ele>100.4</ele>
        <time>2012-09-15T18:45:39Z</time>
      </trkpt>
      <trkpt lat="59.5063148473" lon="17.8099689951">
        <ele>100.4</ele>
        <time>2012-09-15T18:45:44Z</time>
      </trkpt>
      <trkpt lat="59.5061066409" lon="17.8101331965">
        <ele>100.4</ele>
        <time>2012-09-15T18:45:50Z</time>
      </trkpt>
      <trkpt lat="59.5060224866" lon="17.8102939613">
        <ele>100.4</ele>
        <time>2012-09-15T18:45:53Z</time>
      </trkpt>
      <trkpt lat="59.5060016995" lon="17.8103696499">
        <ele>100.4</ele>
        <time>2012-09-15T18:45:54Z</time>
      </trkpt>
      <trkpt lat="59.5059971733" lon="17.8106538801">
        <ele>100.4</ele>
        <time>2012-09-15T18:45:58Z</time>
      </trkpt>
      <trkpt lat="59.5060196368" lon="17.8107492661">
        <ele>100.4</ele>
        <time>2012-09-15T18:46:00Z</time>
      </trkpt>
      <trkpt lat="59.5060527453" lon="17.8108364379">
        <ele>100.8</ele>
        <time>2012-09-15T18:46:02Z</time>
      </trkpt>
      <trkpt lat="59.5060714369" lon="17.8108574765">
        <ele>101.6</ele>
        <time>2012-09-15T18:46:03Z</time>
      </trkpt>
      <trkpt lat="59.5060926431" lon="17.8108875675">
        <ele>102</ele>
        <time>2012-09-15T18:46:04Z</time>
      </trkpt>
      <trkpt lat="59.5061124244" lon="17.8109324106">
        <ele>102.4</ele>
        <time>2012-09-15T18:46:05Z</time>
      </trkpt>
      <trkpt lat="59.5061323733" lon="17.8110812732">
        <ele>102.8</ele>
        <time>2012-09-15T18:46:08Z</time>
      </trkpt>
      <trkpt lat="59.5061130112" lon="17.8111116995">
        <ele>103.4</ele>
        <time>2012-09-15T18:46:09Z</time>
      </trkpt>
      <trkpt lat="59.5060975885" lon="17.8111754019">
        <ele>103.8</ele>
        <time>2012-09-15T18:46:10Z</time>
      </trkpt>
      <trkpt lat="59.5060674974" lon="17.811215635">
        <ele>104.2</ele>
        <time>2012-09-15T18:46:11Z</time>
      </trkpt>
      <trkpt lat="59.5060237439" lon="17.8112454746">
        <ele>104.6</ele>
        <time>2012-09-15T18:46:12Z</time>
      </trkpt>
      <trkpt lat="59.5059377456" lon="17.8112995379">
        <ele>105.2</ele>
        <time>2012-09-15T18:46:14Z</time>
      </trkpt>
      <trkpt lat="59.5058984345" lon="17.8113219175">
        <ele>105.6</ele>
        <time>2012-09-15T18:46:15Z</time>
      </trkpt>
      <trkpt lat="59.5058564412" lon="17.8113360829">
        <ele>106</ele>
        <time>2012-09-15T18:46:16Z</time>
      </trkpt>
      <trkpt lat="59.5058162919" lon="17.81134765">
        <ele>106.4</ele>
        <time>2012-09-15T18:46:17Z</time>
      </trkpt>
      <trkpt lat="59.5057763102" lon="17.8113630727">
        <ele>106.8</ele>
        <time>2012-09-15T18:46:18Z</time>
      </trkpt>
      <trkpt lat="59.5056909825" lon="17.8114098437">
        <ele>106.8</ele>
        <time>2012-09-15T18:46:20Z</time>
      </trkpt>
      <trkpt lat="59.5056513361" lon="17.8114645775">
        <ele>106.8</ele>
        <time>2012-09-15T18:46:21Z</time>
      </trkpt>
      <trkpt lat="59.5054438003" lon="17.8118800683">
        <ele>106.8</ele>
        <time>2012-09-15T18:46:27Z</time>
      </trkpt>
      <trkpt lat="59.5053282977" lon="17.8121098161">
        <ele>106.8</ele>
        <time>2012-09-15T18:46:31Z</time>
      </trkpt>
      <trkpt lat="59.505321676" lon="17.8121618677">
        <ele>106.8</ele>
        <time>2012-09-15T18:46:32Z</time>
      </trkpt>
      <trkpt lat="59.505364256" lon="17.8122542363">
        <ele>106.8</ele>
        <time>2012-09-15T18:46:35Z</time>
      </trkpt>
      <trkpt lat="59.5054256954" lon="17.8124442539">
        <ele>106.8</ele>
        <time>2012-09-15T18:46:39Z</time>
      </trkpt>
      <trkpt lat="59.5054069199" lon="17.8126304159">
        <ele>107.2</ele>
        <time>2012-09-15T18:46:42Z</time>
      </trkpt>
      <trkpt lat="59.50539485" lon="17.812685485">
        <ele>107.8</ele>
        <time>2012-09-15T18:46:43Z</time>
      </trkpt>
      <trkpt lat="59.5053831153" lon="17.812737369">
        <ele>108.2</ele>
        <time>2012-09-15T18:46:44Z</time>
      </trkpt>
      <trkpt lat="59.5053686146" lon="17.8127893368">
        <ele>108.6</ele>
        <time>2012-09-15T18:46:45Z</time>
      </trkpt>
      <trkpt lat="59.5053486657" lon="17.8128371136">
        <ele>109</ele>
        <time>2012-09-15T18:46:46Z</time>
      </trkpt>
      <trkpt lat="59.5052884836" lon="17.8129811146">
        <ele>109.4</ele>
        <time>2012-09-15T18:46:49Z</time>
      </trkpt>
      <trkpt lat="59.5052764975" lon="17.813043476">
        <ele>109.8</ele>
        <time>2012-09-15T18:46:50Z</time>
      </trkpt>
      <trkpt lat="59.5052662716" lon="17.8131037418">
        <ele>110.4</ele>
        <time>2012-09-15T18:46:51Z</time>
      </trkpt>
      <trkpt lat="59.5052527768" lon="17.813151351">
        <ele>110.8</ele>
        <time>2012-09-15T18:46:52Z</time>
      </trkpt>
      <trkpt lat="59.5052390304" lon="17.8131963618">
        <ele>111.2</ele>
        <time>2012-09-15T18:46:53Z</time>
      </trkpt>
      <trkpt lat="59.5052244459" lon="17.8132429652">
        <ele>111.2</ele>
        <time>2012-09-15T18:46:54Z</time>
      </trkpt>
      <trkpt lat="59.5052079336" lon="17.8132925022">
        <ele>111.6</ele>
        <time>2012-09-15T18:46:55Z</time>
      </trkpt>
      <trkpt lat="59.50519293" lon="17.813345392">
        <ele>112</ele>
        <time>2012-09-15T18:46:56Z</time>
      </trkpt>
      <trkpt lat="59.5051812791" lon="17.813395851">
        <ele>112.4</ele>
        <time>2012-09-15T18:46:57Z</time>
      </trkpt>
      <trkpt lat="59.505170718" lon="17.8134483217">
        <ele>112.8</ele>
        <time>2012-09-15T18:46:58Z</time>
      </trkpt>
      <trkpt lat="59.5051623361" lon="17.8135008763">
        <ele>113.2</ele>
        <time>2012-09-15T18:46:59Z</time>
      </trkpt>
      <trkpt lat="59.505157726" lon="17.8136092542">
        <ele>113.6</ele>
        <time>2012-09-15T18:47:01Z</time>
      </trkpt>
      <trkpt lat="59.5051544571" lon="17.8136725376">
        <ele>114</ele>
        <time>2012-09-15T18:47:02Z</time>
      </trkpt>
      <trkpt lat="59.505146159" lon="17.8137317138">
        <ele>114.6</ele>
        <time>2012-09-15T18:47:03Z</time>
      </trkpt>
      <trkpt lat="59.505134089" lon="17.8137787362">
        <ele>115</ele>
        <time>2012-09-15T18:47:04Z</time>
      </trkpt>
      <trkpt lat="59.5051259586" lon="17.8138162033">
        <ele>115.4</ele>
        <time>2012-09-15T18:47:05Z</time>
      </trkpt>
      <trkpt lat="59.5051098654" lon="17.8140482981">
        <ele>115.4</ele>
        <time>2012-09-15T18:47:09Z</time>
      </trkpt>
      <trkpt lat="59.5051062611" lon="17.8142253239">
        <ele>116</ele>
        <time>2012-09-15T18:47:12Z</time>
      </trkpt>
      <trkpt lat="59.505109111" lon="17.814277124">
        <ele>116.4</ele>
        <time>2012-09-15T18:47:13Z</time>
      </trkpt>
      <trkpt lat="59.5051165709" lon="17.8143286727">
        <ele>116.8</ele>
        <time>2012-09-15T18:47:14Z</time>
      </trkpt>
      <trkpt lat="59.5051247013" lon="17.8143828198">
        <ele>117.2</ele>
        <time>2012-09-15T18:47:15Z</time>
      </trkpt>
      <trkpt lat="59.5051321612" lon="17.8144306804">
        <ele>117.6</ele>
        <time>2012-09-15T18:47:16Z</time>
      </trkpt>
      <trkpt lat="59.5051852186" lon="17.814682808">
        <ele>117.6</ele>
        <time>2012-09-15T18:47:21Z</time>
      </trkpt>
      <trkpt lat="59.5052037426" lon="17.8147325965">
        <ele>118</ele>
        <time>2012-09-15T18:47:22Z</time>
      </trkpt>
      <trkpt lat="59.5052237754" lon="17.8147795351">
        <ele>118.4</ele>
        <time>2012-09-15T18:47:23Z</time>
      </trkpt>
      <trkpt lat="59.5052394495" lon="17.8148335984">
        <ele>118.8</ele>
        <time>2012-09-15T18:47:24Z</time>
      </trkpt>
      <trkpt lat="59.5052570515" lon="17.8148827163">
        <ele>119.4</ele>
        <time>2012-09-15T18:47:25Z</time>
      </trkpt>
      <trkpt lat="59.5052744859" lon="17.8149297387">
        <ele>119.8</ele>
        <time>2012-09-15T18:47:26Z</time>
      </trkpt>
      <trkpt lat="59.5053319857" lon="17.8150017393">
        <ele>120.2</ele>
        <time>2012-09-15T18:47:28Z</time>
      </trkpt>
      <trkpt lat="59.5053717997" lon="17.8149966263">
        <ele>120.6</ele>
        <time>2012-09-15T18:47:29Z</time>
      </trkpt>
      <trkpt lat="59.505414296" lon="17.8149910943">
        <ele>121</ele>
        <time>2012-09-15T18:47:30Z</time>
      </trkpt>
      <trkpt lat="59.5054526851" lon="17.8149763421">
        <ele>121.4</ele>
        <time>2012-09-15T18:47:31Z</time>
      </trkpt>
      <trkpt lat="59.5054894816" lon="17.8149562256">
        <ele>121.8</ele>
        <time>2012-09-15T18:47:32Z</time>
      </trkpt>
      <trkpt lat="59.5056209098" lon="17.8148783577">
        <ele>121.8</ele>
        <time>2012-09-15T18:47:36Z</time>
      </trkpt>
      <trkpt lat="59.5057548526" lon="17.8147406431">
        <ele>121.8</ele>
        <time>2012-09-15T18:47:42Z</time>
      </trkpt>
      <trkpt lat="59.5058511606" lon="17.8145834825">
        <ele>121.8</ele>
        <time>2012-09-15T18:47:47Z</time>
      </trkpt>
      <trkpt lat="59.505935734" lon="17.8142776269">
        <ele>121.8</ele>
        <time>2012-09-15T18:47:51Z</time>
      </trkpt>
      <trkpt lat="59.5059817506" lon="17.8140213922">
        <ele>122.2</ele>
        <time>2012-09-15T18:47:55Z</time>
      </trkpt>
      <trkpt lat="59.5059934853" lon="17.8139519063">
        <ele>122.6</ele>
        <time>2012-09-15T18:47:56Z</time>
      </trkpt>
      <trkpt lat="59.506005639" lon="17.8138916404">
        <ele>123</ele>
        <time>2012-09-15T18:47:57Z</time>
      </trkpt>
      <trkpt lat="59.5060180442" lon="17.813843696">
        <ele>123.4</ele>
        <time>2012-09-15T18:47:58Z</time>
      </trkpt>
      <trkpt lat="59.5060264261" lon="17.8138044687">
        <ele>123.8</ele>
        <time>2012-09-15T18:47:59Z</time>
      </trkpt>
      <trkpt lat="59.506026007" lon="17.8137716116">
        <ele>123.8</ele>
        <time>2012-09-15T18:48:00Z</time>
      </trkpt>
      <trkpt lat="59.5060125122" lon="17.8137038021">
        <ele>123.8</ele>
        <time>2012-09-15T18:48:03Z</time>
      </trkpt>
      <trkpt lat="59.5060125122" lon="17.8137038021">
        <ele>123.8</ele>
        <time>2012-09-15T18:48:10Z</time>
      </trkpt>
      <trkpt lat="59.5060125122" lon="17.8137038021">
        <ele>123.8</ele>
        <time>2012-09-15T18:48:13Z</time>
      </trkpt>
      <trkpt lat="59.5060125122" lon="17.8137038021">
        <ele>123.8</ele>
        <time>2012-09-15T18:48:14Z</time>
      </trkpt>
      <trkpt lat="59.5060118416" lon="17.813704305">
        <ele>123.8</ele>
        <time>2012-09-15T18:48:16Z</time>
      </trkpt>
      <trkpt lat="59.5059934014" lon="17.8137220746">
        <ele>123.8</ele>
        <time>2012-09-15T18:48:19Z</time>
      </trkpt>
      <trkpt lat="59.5059400926" lon="17.813612607">
        <ele>123.8</ele>
        <time>2012-09-15T18:48:24Z</time>
      </trkpt>
      <trkpt lat="59.5059307048" lon="17.813577403">
        <ele>123.8</ele>
        <time>2012-09-15T18:48:25Z</time>
      </trkpt>
      <trkpt lat="59.5059281903" lon="17.8135266087">
        <ele>123.4</ele>
        <time>2012-09-15T18:48:26Z</time>
      </trkpt>
      <trkpt lat="59.505926933" lon="17.813462571">
        <ele>123</ele>
        <time>2012-09-15T18:48:27Z</time>
      </trkpt>
      <trkpt lat="59.5059263462" lon="17.8133829429">
        <ele>122.6</ele>
        <time>2012-09-15T18:48:28Z</time>
      </trkpt>
      <trkpt lat="59.5059215686" lon="17.8132876407">
        <ele>122.2</ele>
        <time>2012-09-15T18:48:29Z</time>
      </trkpt>
      <trkpt lat="59.5059074031" lon="17.8131941825">
        <ele>121.6</ele>
        <time>2012-09-15T18:48:30Z</time>
      </trkpt>
      <trkpt lat="59.5058918128" lon="17.8130988803">
        <ele>120.8</ele>
        <time>2012-09-15T18:48:31Z</time>
      </trkpt>
      <trkpt lat="59.5058818383" lon="17.8129936037">
        <ele>118.8</ele>
        <time>2012-09-15T18:48:32Z</time>
      </trkpt>
      <trkpt lat="59.5058747137" lon="17.8128916798">
        <ele>117.8</ele>
        <time>2012-09-15T18:48:33Z</time>
      </trkpt>
      <trkpt lat="59.5058644878" lon="17.8127861516">
        <ele>116.8</ele>
        <time>2012-09-15T18:48:34Z</time>
      </trkpt>
      <trkpt lat="59.5058452094" lon="17.8126980579">
        <ele>115.8</ele>
        <time>2012-09-15T18:48:35Z</time>
      </trkpt>
      <trkpt lat="59.5058146993" lon="17.8126315056">
        <ele>115</ele>
        <time>2012-09-15T18:48:36Z</time>
      </trkpt>
      <trkpt lat="59.5057737957" lon="17.8125860757">
        <ele>114</ele>
        <time>2012-09-15T18:48:37Z</time>
      </trkpt>
      <trkpt lat="59.5057292039" lon="17.8125561523">
        <ele>113.4</ele>
        <time>2012-09-15T18:48:38Z</time>
      </trkpt>
      <trkpt lat="59.5056826006" lon="17.8125252231">
        <ele>112.6</ele>
        <time>2012-09-15T18:48:39Z</time>
      </trkpt>
      <trkpt lat="59.5056347399" lon="17.8124848223">
        <ele>112</ele>
        <time>2012-09-15T18:48:40Z</time>
      </trkpt>
      <trkpt lat="59.505580509" lon="17.8124512109">
        <ele>111.4</ele>
        <time>2012-09-15T18:48:41Z</time>
      </trkpt>
      <trkpt lat="59.5055256076" lon="17.8124307591">
        <ele>110.8</ele>
        <time>2012-09-15T18:48:42Z</time>
      </trkpt>
      <trkpt lat="59.5054733045" lon="17.8124043561">
        <ele>110.8</ele>
        <time>2012-09-15T18:48:43Z</time>
      </trkpt>
      <trkpt lat="59.505381858" lon="17.8123159271">
        <ele>110.8</ele>
        <time>2012-09-15T18:48:45Z</time>
      </trkpt>
      <trkpt lat="59.5053346679" lon="17.812275191">
        <ele>110.8</ele>
        <time>2012-09-15T18:48:46Z</time>
      </trkpt>
      <trkpt lat="59.505283706" lon="17.8122387298">
        <ele>110.8</ele>
        <time>2012-09-15T18:48:47Z</time>
      </trkpt>
      <trkpt lat="59.5050697999" lon="17.8122013465">
        <ele>110.8</ele>
        <time>2012-09-15T18:48:51Z</time>
      </trkpt>
      <trkpt lat="59.5050177483" lon="17.812200173">
        <ele>110.8</ele>
        <time>2012-09-15T18:48:52Z</time>
      </trkpt>
      <trkpt lat="59.5049649423" lon="17.8122015979">
        <ele>110.4</ele>
        <time>2012-09-15T18:48:53Z</time>
      </trkpt>
      <trkpt lat="59.5049063528" lon="17.8122003407">
        <ele>110</ele>
        <time>2012-09-15T18:48:54Z</time>
      </trkpt>
      <trkpt lat="59.5048472604" lon="17.8121960659">
        <ele>109.6</ele>
        <time>2012-09-15T18:48:55Z</time>
      </trkpt>
      <trkpt lat="59.5047918561" lon="17.8121894442">
        <ele>109</ele>
        <time>2012-09-15T18:48:56Z</time>
      </trkpt>
      <trkpt lat="59.504734021" lon="17.8121921264">
        <ele>108.6</ele>
        <time>2012-09-15T18:48:57Z</time>
      </trkpt>
      <trkpt lat="59.5044540655" lon="17.8121932999">
        <ele>108.6</ele>
        <time>2012-09-15T18:49:02Z</time>
      </trkpt>
      <trkpt lat="59.504307969" lon="17.8122163501">
        <ele>108.6</ele>
        <time>2012-09-15T18:49:05Z</time>
      </trkpt>
      <trkpt lat="59.5042300173" lon="17.8122885182">
        <ele>108.6</ele>
        <time>2012-09-15T18:49:07Z</time>
      </trkpt>
      <trkpt lat="59.5041481262" lon="17.8124909411">
        <ele>108.6</ele>
        <time>2012-09-15T18:49:10Z</time>
      </trkpt>
      <trkpt lat="59.5039846791" lon="17.8127600839">
        <ele>108.6</ele>
        <time>2012-09-15T18:49:15Z</time>
      </trkpt>
      <trkpt lat="59.5038080725" lon="17.8129600761">
        <ele>109</ele>
        <time>2012-09-15T18:49:20Z</time>
      </trkpt>
      <trkpt lat="59.5037762212" lon="17.8130097807">
        <ele>110</ele>
        <time>2012-09-15T18:49:21Z</time>
      </trkpt>
      <trkpt lat="59.5037427775" lon="17.813060575">
        <ele>110.4</ele>
        <time>2012-09-15T18:49:22Z</time>
      </trkpt>
      <trkpt lat="59.5037084117" lon="17.8131033227">
        <ele>110.8</ele>
        <time>2012-09-15T18:49:23Z</time>
      </trkpt>
      <trkpt lat="59.5036426138" lon="17.8131748203">
        <ele>110.8</ele>
        <time>2012-09-15T18:49:25Z</time>
      </trkpt>
      <trkpt lat="59.5036203179" lon="17.8132306438">
        <ele>110.8</ele>
        <time>2012-09-15T18:49:26Z</time>
      </trkpt>
      <trkpt lat="59.5035222497" lon="17.8133817695">
        <ele>110.8</ele>
        <time>2012-09-15T18:49:30Z</time>
      </trkpt>
      <trkpt lat="59.5034287915" lon="17.8134226731">
        <ele>110.8</ele>
        <time>2012-09-15T18:49:34Z</time>
      </trkpt>
      <trkpt lat="59.5034593854" lon="17.8134927458">
        <ele>110.8</ele>
        <time>2012-09-15T18:49:37Z</time>
      </trkpt>
      <trkpt lat="59.5035681825" lon="17.8133166421">
        <ele>110.8</ele>
        <time>2012-09-15T18:49:41Z</time>
      </trkpt>
      <trkpt lat="59.5036344833" lon="17.8131977868">
        <ele>110.8</ele>
        <time>2012-09-15T18:49:44Z</time>
      </trkpt>
      <trkpt lat="59.5035950884" lon="17.8131261215">
        <ele>110.8</ele>
        <time>2012-09-15T18:49:47Z</time>
      </trkpt>
      <trkpt lat="59.5035782408" lon="17.8132489163">
        <ele>110.8</ele>
        <time>2012-09-15T18:49:50Z</time>
      </trkpt>
      <trkpt lat="59.5036343157" lon="17.8133857928">
        <ele>110.8</ele>
        <time>2012-09-15T18:49:53Z</time>
      </trkpt>
      <trkpt lat="59.5036782368" lon="17.8134826875">
        <ele>110.8</ele>
        <time>2012-09-15T18:49:55Z</time>
      </trkpt>
      <trkpt lat="59.5037347308" lon="17.8136898881">
        <ele>111.2</ele>
        <time>2012-09-15T18:49:59Z</time>
      </trkpt>
      <trkpt lat="59.503746214" lon="17.8137386708">
        <ele>111.6</ele>
        <time>2012-09-15T18:50:00Z</time>
      </trkpt>
      <trkpt lat="59.5037599604" lon="17.81378628">
        <ele>112</ele>
        <time>2012-09-15T18:50:01Z</time>
      </trkpt>
      <trkpt lat="59.503778652" lon="17.8138295306">
        <ele>112.6</ele>
        <time>2012-09-15T18:50:02Z</time>
      </trkpt>
      <trkpt lat="59.5037991038" lon="17.813861298">
        <ele>113</ele>
        <time>2012-09-15T18:50:03Z</time>
      </trkpt>
      <trkpt lat="59.5038361518" lon="17.8139229887">
        <ele>113</ele>
        <time>2012-09-15T18:50:05Z</time>
      </trkpt>
      <trkpt lat="59.5038693442" lon="17.8140620445">
        <ele>113.4</ele>
        <time>2012-09-15T18:50:08Z</time>
      </trkpt>
      <trkpt lat="59.5038767202" lon="17.8141059656">
        <ele>113.8</ele>
        <time>2012-09-15T18:50:09Z</time>
      </trkpt>
      <trkpt lat="59.5038843478" lon="17.8141503059">
        <ele>114.2</ele>
        <time>2012-09-15T18:50:10Z</time>
      </trkpt>
      <trkpt lat="59.503890718" lon="17.8141980827">
        <ele>115</ele>
        <time>2012-09-15T18:50:11Z</time>
      </trkpt>
      <trkpt lat="59.5039229045" lon="17.8144895214">
        <ele>115</ele>
        <time>2012-09-15T18:50:16Z</time>
      </trkpt>
      <trkpt lat="59.5039351421" lon="17.8145626953">
        <ele>115</ele>
        <time>2012-09-15T18:50:18Z</time>
      </trkpt>
      <trkpt lat="59.5038270994" lon="17.8146953808">
        <ele>117</ele>
        <time>2012-09-15T18:51:06Z</time>
      </trkpt>
      <trkpt lat="59.5036680947" lon="17.8147197722">
        <ele>117</ele>
        <time>2012-09-15T18:51:11Z</time>
      </trkpt>
      <trkpt lat="59.5036521691" lon="17.8148028368">
        <ele>117</ele>
        <time>2012-09-15T18:51:13Z</time>
      </trkpt>
      <trkpt lat="59.5036472238" lon="17.8148615939">
        <ele>117</ele>
        <time>2012-09-15T18:51:14Z</time>
      </trkpt>
      <trkpt lat="59.503642949" lon="17.8151568044">
        <ele>117</ele>
        <time>2012-09-15T18:51:19Z</time>
      </trkpt>
      <trkpt lat="59.5036403507" lon="17.8152174056">
        <ele>117.4</ele>
        <time>2012-09-15T18:51:20Z</time>
      </trkpt>
      <trkpt lat="59.5036369979" lon="17.8152762465">
        <ele>117.8</ele>
        <time>2012-09-15T18:51:21Z</time>
      </trkpt>
      <trkpt lat="59.5036300409" lon="17.8153288848">
        <ele>118.4</ele>
        <time>2012-09-15T18:51:22Z</time>
      </trkpt>
      <trkpt lat="59.5036257661" lon="17.8153775837">
        <ele>118.8</ele>
        <time>2012-09-15T18:51:23Z</time>
      </trkpt>
      <trkpt lat="59.5036199826" lon="17.8154250252">
        <ele>119.2</ele>
        <time>2012-09-15T18:51:24Z</time>
      </trkpt>
      <trkpt lat="59.5036142829" lon="17.8154701198">
        <ele>119.2</ele>
        <time>2012-09-15T18:51:25Z</time>
      </trkpt>
      <trkpt lat="59.5036037217" lon="17.8155159688">
        <ele>119.8</ele>
        <time>2012-09-15T18:51:26Z</time>
      </trkpt>
      <trkpt lat="59.5035919033" lon="17.8155647515">
        <ele>120.2</ele>
        <time>2012-09-15T18:51:27Z</time>
      </trkpt>
      <trkpt lat="59.5035745527" lon="17.8156126121">
        <ele>120.6</ele>
        <time>2012-09-15T18:51:28Z</time>
      </trkpt>
      <trkpt lat="59.5035543524" lon="17.8156541025">
        <ele>121.2</ele>
        <time>2012-09-15T18:51:29Z</time>
      </trkpt>
      <trkpt lat="59.5035360798" lon="17.8157036396">
        <ele>121.6</ele>
        <time>2012-09-15T18:51:30Z</time>
      </trkpt>
      <trkpt lat="59.5035232555" lon="17.8157496562">
        <ele>121.6</ele>
        <time>2012-09-15T18:51:31Z</time>
      </trkpt>
      <trkpt lat="59.5034965172" lon="17.8158841019">
        <ele>122</ele>
        <time>2012-09-15T18:51:34Z</time>
      </trkpt>
      <trkpt lat="59.5034827709" lon="17.8159378299">
        <ele>122.6</ele>
        <time>2012-09-15T18:51:35Z</time>
      </trkpt>
      <trkpt lat="59.503464666" lon="17.8159857743">
        <ele>123</ele>
        <time>2012-09-15T18:51:36Z</time>
      </trkpt>
      <trkpt lat="59.5034427893" lon="17.8160523266">
        <ele>123.4</ele>
        <time>2012-09-15T18:51:37Z</time>
      </trkpt>
      <trkpt lat="59.5034215831" lon="17.8161194656">
        <ele>123.8</ele>
        <time>2012-09-15T18:51:38Z</time>
      </trkpt>
      <trkpt lat="59.503370202" lon="17.8162298553">
        <ele>123.8</ele>
        <time>2012-09-15T18:51:40Z</time>
      </trkpt>
      <trkpt lat="59.503188231" lon="17.8164417497">
        <ele>123.8</ele>
        <time>2012-09-15T18:51:46Z</time>
      </trkpt>
      <trkpt lat="59.5030149771" lon="17.8166419933">
        <ele>123.8</ele>
        <time>2012-09-15T18:51:52Z</time>
      </trkpt>
      <trkpt lat="59.5028901706" lon="17.8168801231">
        <ele>123.8</ele>
        <time>2012-09-15T18:51:57Z</time>
      </trkpt>
      <trkpt lat="59.5028058487" lon="17.8170221124">
        <ele>124.2</ele>
        <time>2012-09-15T18:52:00Z</time>
      </trkpt>
      <trkpt lat="59.5027626819" lon="17.8170922689">
        <ele>124.6</ele>
        <time>2012-09-15T18:52:01Z</time>
      </trkpt>
      <trkpt lat="59.5027245443" lon="17.8171642695">
        <ele>125</ele>
        <time>2012-09-15T18:52:02Z</time>
      </trkpt>
      <trkpt lat="59.502693196" lon="17.8172359347">
        <ele>125.4</ele>
        <time>2012-09-15T18:52:03Z</time>
      </trkpt>
      <trkpt lat="59.5026666253" lon="17.8173045825">
        <ele>125.8</ele>
        <time>2012-09-15T18:52:04Z</time>
      </trkpt>
      <trkpt lat="59.5025525477" lon="17.8175007189">
        <ele>125.8</ele>
        <time>2012-09-15T18:52:08Z</time>
      </trkpt>
      <trkpt lat="59.502431513" lon="17.8175615715">
        <ele>126.2</ele>
        <time>2012-09-15T18:52:12Z</time>
      </trkpt>
      <trkpt lat="59.5024031822" lon="17.8175747311">
        <ele>126.6</ele>
        <time>2012-09-15T18:52:13Z</time>
      </trkpt>
      <trkpt lat="59.5023751028" lon="17.8175925007">
        <ele>127</ele>
        <time>2012-09-15T18:52:14Z</time>
      </trkpt>
      <trkpt lat="59.502342162" lon="17.8176144613">
        <ele>127.8</ele>
        <time>2012-09-15T18:52:15Z</time>
      </trkpt>
      <trkpt lat="59.5022022681" lon="17.8176292973">
        <ele>127.8</ele>
        <time>2012-09-15T18:52:19Z</time>
      </trkpt>
      <trkpt lat="59.5020606978" lon="17.8175386889">
        <ele>128.2</ele>
        <time>2012-09-15T18:52:24Z</time>
      </trkpt>
      <trkpt lat="59.5020446045" lon="17.8174994617">
        <ele>128.6</ele>
        <time>2012-09-15T18:52:25Z</time>
      </trkpt>
      <trkpt lat="59.5020316964" lon="17.8174521039">
        <ele>129</ele>
        <time>2012-09-15T18:52:26Z</time>
      </trkpt>
      <trkpt lat="59.5020247394" lon="17.8173924248">
        <ele>129.4</ele>
        <time>2012-09-15T18:52:27Z</time>
      </trkpt>
      <trkpt lat="59.5020228116" lon="17.8173177421">
        <ele>130</ele>
        <time>2012-09-15T18:52:28Z</time>
      </trkpt>
      <trkpt lat="59.5020492146" lon="17.8170534608">
        <ele>129.4</ele>
        <time>2012-09-15T18:52:31Z</time>
      </trkpt>
      <trkpt lat="59.5020600272" lon="17.8169572365">
        <ele>129</ele>
        <time>2012-09-15T18:52:32Z</time>
      </trkpt>
      <trkpt lat="59.5020746117" lon="17.8168483557">
        <ele>128.6</ele>
        <time>2012-09-15T18:52:33Z</time>
      </trkpt>
      <trkpt lat="59.5020775454" lon="17.8167425761">
        <ele>128.2</ele>
        <time>2012-09-15T18:52:34Z</time>
      </trkpt>
      <trkpt lat="59.5020737735" lon="17.8166377185">
        <ele>127.8</ele>
        <time>2012-09-15T18:52:35Z</time>
      </trkpt>
      <trkpt lat="59.5020657269" lon="17.8165440927">
        <ele>127.2</ele>
        <time>2012-09-15T18:52:36Z</time>
      </trkpt>
      <trkpt lat="59.502047622" lon="17.8164619501">
        <ele>126.6</ele>
        <time>2012-09-15T18:52:37Z</time>
      </trkpt>
      <trkpt lat="59.5020142621" lon="17.8164029415">
        <ele>126</ele>
        <time>2012-09-15T18:52:38Z</time>
      </trkpt>
      <trkpt lat="59.5019598635" lon="17.8163666479">
        <ele>125.4</ele>
        <time>2012-09-15T18:52:39Z</time>
      </trkpt>
      <trkpt lat="59.5018976698" lon="17.8163532368">
        <ele>124.4</ele>
        <time>2012-09-15T18:52:40Z</time>
      </trkpt>
      <trkpt lat="59.5018400862" lon="17.8163629598">
        <ele>123.8</ele>
        <time>2012-09-15T18:52:41Z</time>
      </trkpt>
      <trkpt lat="59.5017863582" lon="17.8163897819">
        <ele>123.4</ele>
        <time>2012-09-15T18:52:42Z</time>
      </trkpt>
      <trkpt lat="59.5016699336" lon="17.8165584257">
        <ele>123.4</ele>
        <time>2012-09-15T18:52:45Z</time>
      </trkpt>
      <trkpt lat="59.5015685126" lon="17.8166766943">
        <ele>123.4</ele>
        <time>2012-09-15T18:52:48Z</time>
      </trkpt>
      <trkpt lat="59.501521574" lon="17.8166817235">
        <ele>123.4</ele>
        <time>2012-09-15T18:52:49Z</time>
      </trkpt>
      <trkpt lat="59.5013254375" lon="17.8166831484">
        <ele>123.4</ele>
        <time>2012-09-15T18:52:53Z</time>
      </trkpt>
      <trkpt lat="59.5011814365" lon="17.816888505">
        <ele>123.4</ele>
        <time>2012-09-15T18:52:57Z</time>
      </trkpt>
      <trkpt lat="59.5010128765" lon="17.816984813">
        <ele>123.4</ele>
        <time>2012-09-15T18:53:01Z</time>
      </trkpt>
      <trkpt lat="59.5009088571" lon="17.8170040075">
        <ele>123.4</ele>
        <time>2012-09-15T18:53:04Z</time>
      </trkpt>
      <trkpt lat="59.5008426401" lon="17.8170516167">
        <ele>123.4</ele>
        <time>2012-09-15T18:53:06Z</time>
      </trkpt>
      <trkpt lat="59.5007951985" lon="17.817157983">
        <ele>123.8</ele>
        <time>2012-09-15T18:53:08Z</time>
      </trkpt>
      <trkpt lat="59.500781536" lon="17.8172239486">
        <ele>124.2</ele>
        <time>2012-09-15T18:53:09Z</time>
      </trkpt>
      <trkpt lat="59.5007734894" lon="17.8172863099">
        <ele>124.6</ele>
        <time>2012-09-15T18:53:10Z</time>
      </trkpt>
      <trkpt lat="59.5007645208" lon="17.8173392835">
        <ele>125</ele>
        <time>2012-09-15T18:53:11Z</time>
      </trkpt>
      <trkpt lat="59.5007546301" lon="17.8173951908">
        <ele>125.4</ele>
        <time>2012-09-15T18:53:12Z</time>
      </trkpt>
      <trkpt lat="59.5007457453" lon="17.8174550376">
        <ele>125.4</ele>
        <time>2012-09-15T18:53:13Z</time>
      </trkpt>
      <trkpt lat="59.5007311608" lon="17.817593758">
        <ele>125.4</ele>
        <time>2012-09-15T18:53:15Z</time>
      </trkpt>
      <trkpt lat="59.5006901733" lon="17.817912354">
        <ele>125.8</ele>
        <time>2012-09-15T18:53:20Z</time>
      </trkpt>
      <trkpt lat="59.5006833001" lon="17.8179742125">
        <ele>126.2</ele>
        <time>2012-09-15T18:53:21Z</time>
      </trkpt>
      <trkpt lat="59.5006774328" lon="17.8180398427">
        <ele>126.6</ele>
        <time>2012-09-15T18:53:22Z</time>
      </trkpt>
      <trkpt lat="59.5006719008" lon="17.8181022879">
        <ele>127</ele>
        <time>2012-09-15T18:53:23Z</time>
      </trkpt>
      <trkpt lat="59.5006629321" lon="17.818161967">
        <ele>127.4</ele>
        <time>2012-09-15T18:53:24Z</time>
      </trkpt>
      <trkpt lat="59.5006364453" lon="17.8182777211">
        <ele>127.4</ele>
        <time>2012-09-15T18:53:26Z</time>
      </trkpt>
      <trkpt lat="59.5005215295" lon="17.8184200457">
        <ele>127.4</ele>
        <time>2012-09-15T18:53:30Z</time>
      </trkpt>
      <trkpt lat="59.5002931227" lon="17.8184506397">
        <ele>127.4</ele>
        <time>2012-09-15T18:53:36Z</time>
      </trkpt>
      <trkpt lat="59.5000867603" lon="17.8184135917">
        <ele>127.8</ele>
        <time>2012-09-15T18:53:42Z</time>
      </trkpt>
      <trkpt lat="59.5000573399" lon="17.8184030305">
        <ele>128.2</ele>
        <time>2012-09-15T18:53:43Z</time>
      </trkpt>
      <trkpt lat="59.5000285061" lon="17.8183876916">
        <ele>128.6</ele>
        <time>2012-09-15T18:53:44Z</time>
      </trkpt>
      <trkpt lat="59.5000026061" lon="17.8183777171">
        <ele>129</ele>
        <time>2012-09-15T18:53:45Z</time>
      </trkpt>
      <trkpt lat="59.4999793044" lon="17.8183747835">
        <ele>129.4</ele>
        <time>2012-09-15T18:53:46Z</time>
      </trkpt>
      <trkpt lat="59.499959104" lon="17.8183700058">
        <ele>129.4</ele>
        <time>2012-09-15T18:53:47Z</time>
      </trkpt>
      <trkpt lat="59.4998013566" lon="17.8183480452">
        <ele>129.4</ele>
        <time>2012-09-15T18:53:52Z</time>
      </trkpt>
      <trkpt lat="59.4995791525" lon="17.8181928124">
        <ele>129.4</ele>
        <time>2012-09-15T18:53:58Z</time>
      </trkpt>
      <trkpt lat="59.4992744704" lon="17.8179812533">
        <ele>129.4</ele>
        <time>2012-09-15T18:54:05Z</time>
      </trkpt>
      <trkpt lat="59.4990855424" lon="17.8178698578">
        <ele>129.8</ele>
        <time>2012-09-15T18:54:09Z</time>
      </trkpt>
      <trkpt lat="59.4990365921" lon="17.8178458856">
        <ele>130.2</ele>
        <time>2012-09-15T18:54:10Z</time>
      </trkpt>
      <trkpt lat="59.4989864683" lon="17.8178366655">
        <ele>130.6</ele>
        <time>2012-09-15T18:54:11Z</time>
      </trkpt>
      <trkpt lat="59.4989382724" lon="17.8178355758">
        <ele>131</ele>
        <time>2012-09-15T18:54:12Z</time>
      </trkpt>
      <trkpt lat="59.4988890706" lon="17.8178385095">
        <ele>131.4</ele>
        <time>2012-09-15T18:54:13Z</time>
      </trkpt>
      <trkpt lat="59.4988425511" lon="17.817838761">
        <ele>131.4</ele>
        <time>2012-09-15T18:54:14Z</time>
      </trkpt>
      <trkpt lat="59.4986479234" lon="17.8178738811">
        <ele>131.4</ele>
        <time>2012-09-15T18:54:19Z</time>
      </trkpt>
      <trkpt lat="59.4985796109" lon="17.8178939139">
        <ele>131.8</ele>
        <time>2012-09-15T18:54:22Z</time>
      </trkpt>
      <trkpt lat="59.4985620927" lon="17.8179021281">
        <ele>132.2</ele>
        <time>2012-09-15T18:54:23Z</time>
      </trkpt>
      <trkpt lat="59.4985434849" lon="17.8179022119">
        <ele>132.8</ele>
        <time>2012-09-15T18:54:24Z</time>
      </trkpt>
      <trkpt lat="59.4985243742" lon="17.8179004517">
        <ele>133.2</ele>
        <time>2012-09-15T18:54:25Z</time>
      </trkpt>
      <trkpt lat="59.4985040061" lon="17.817893411">
        <ele>133.6</ele>
        <time>2012-09-15T18:54:26Z</time>
      </trkpt>
      <trkpt lat="59.4984352746" lon="17.8178605539">
        <ele>134</ele>
        <time>2012-09-15T18:54:29Z</time>
      </trkpt>
      <trkpt lat="59.4984057703" lon="17.8178331451">
        <ele>134.4</ele>
        <time>2012-09-15T18:54:30Z</time>
      </trkpt>
      <trkpt lat="59.4983724103" lon="17.8177945884">
        <ele>134.8</ele>
        <time>2012-09-15T18:54:31Z</time>
      </trkpt>
      <trkpt lat="59.4983348594" lon="17.8177625695">
        <ele>135.2</ele>
        <time>2012-09-15T18:54:32Z</time>
      </trkpt>
      <trkpt lat="59.4982895971" lon="17.8177396031">
        <ele>135.6</ele>
        <time>2012-09-15T18:54:33Z</time>
      </trkpt>
      <trkpt lat="59.4981965581" lon="17.8177297963">
        <ele>135.6</ele>
        <time>2012-09-15T18:54:35Z</time>
      </trkpt>
      <trkpt lat="59.4979797183" lon="17.8178153755">
        <ele>135.6</ele>
        <time>2012-09-15T18:54:40Z</time>
      </trkpt>
      <trkpt lat="59.4977851744" lon="17.8180701014">
        <ele>135.6</ele>
        <time>2012-09-15T18:54:45Z</time>
      </trkpt>
      <trkpt lat="59.4977518983" lon="17.81812911">
        <ele>135.6</ele>
        <time>2012-09-15T18:54:46Z</time>
      </trkpt>
      <trkpt lat="59.4975937318" lon="17.8184216383">
        <ele>135.6</ele>
        <time>2012-09-15T18:54:51Z</time>
      </trkpt>
      <trkpt lat="59.4974338052" lon="17.8185954789">
        <ele>135.6</ele>
        <time>2012-09-15T18:54:55Z</time>
      </trkpt>
      <trkpt lat="59.4973869503" lon="17.8186309343">
        <ele>135.6</ele>
        <time>2012-09-15T18:54:56Z</time>
      </trkpt>
      <trkpt lat="59.4972412729" lon="17.8187412401">
        <ele>135.6</ele>
        <time>2012-09-15T18:54:59Z</time>
      </trkpt>
      <trkpt lat="59.4971363315" lon="17.8187776176">
        <ele>135.6</ele>
        <time>2012-09-15T18:55:01Z</time>
      </trkpt>
      <trkpt lat="59.4969612336" lon="17.8186972352">
        <ele>135.6</ele>
        <time>2012-09-15T18:55:05Z</time>
      </trkpt>
      <trkpt lat="59.4967676956" lon="17.8185652202">
        <ele>135.6</ele>
        <time>2012-09-15T18:55:09Z</time>
      </trkpt>
      <trkpt lat="59.4967173203" lon="17.8185488755">
        <ele>135.6</ele>
        <time>2012-09-15T18:55:10Z</time>
      </trkpt>
      <trkpt lat="59.4965728164" lon="17.8185873485">
        <ele>136</ele>
        <time>2012-09-15T18:55:14Z</time>
      </trkpt>
      <trkpt lat="59.4965453238" lon="17.8186089738">
        <ele>136.4</ele>
        <time>2012-09-15T18:55:15Z</time>
      </trkpt>
      <trkpt lat="59.4965221059" lon="17.8186368855">
        <ele>136.8</ele>
        <time>2012-09-15T18:55:16Z</time>
      </trkpt>
      <trkpt lat="59.4965019893" lon="17.8186627017">
        <ele>137.2</ele>
        <time>2012-09-15T18:55:17Z</time>
      </trkpt>
      <trkpt lat="59.4964786038" lon="17.8186880989">
        <ele>137.6</ele>
        <time>2012-09-15T18:55:18Z</time>
      </trkpt>
      <trkpt lat="59.4964426455" lon="17.8187540644">
        <ele>137.6</ele>
        <time>2012-09-15T18:55:20Z</time>
      </trkpt>
      <trkpt lat="59.496430827" lon="17.8187927888">
        <ele>138.2</ele>
        <time>2012-09-15T18:55:21Z</time>
      </trkpt>
      <trkpt lat="59.4964206849" lon="17.8188304236">
        <ele>138.6</ele>
        <time>2012-09-15T18:55:22Z</time>
      </trkpt>
      <trkpt lat="59.4964058489" lon="17.8188602631">
        <ele>139</ele>
        <time>2012-09-15T18:55:23Z</time>
      </trkpt>
      <trkpt lat="59.4963867382" lon="17.818887169">
        <ele>139.4</ele>
        <time>2012-09-15T18:55:24Z</time>
      </trkpt>
      <trkpt lat="59.4963711479" lon="17.8189082076">
        <ele>139.8</ele>
        <time>2012-09-15T18:55:25Z</time>
      </trkpt>
      <trkpt lat="59.4963553061" lon="17.8189282403">
        <ele>140.2</ele>
        <time>2012-09-15T18:55:26Z</time>
      </trkpt>
      <trkpt lat="59.4963320044" lon="17.8189610136">
        <ele>140.6</ele>
        <time>2012-09-15T18:55:27Z</time>
      </trkpt>
      <trkpt lat="59.4963085351" lon="17.8189907693">
        <ele>141</ele>
        <time>2012-09-15T18:55:28Z</time>
      </trkpt>
      <trkpt lat="59.4962824674" lon="17.8190192678">
        <ele>141.4</ele>
        <time>2012-09-15T18:55:29Z</time>
      </trkpt>
      <trkpt lat="59.4962512867" lon="17.8190490235">
        <ele>141.8</ele>
        <time>2012-09-15T18:55:30Z</time>
      </trkpt>
      <trkpt lat="59.4962213633" lon="17.8190749236">
        <ele>141.8</ele>
        <time>2012-09-15T18:55:31Z</time>
      </trkpt>
      <trkpt lat="59.4961623547" lon="17.8191278134">
        <ele>142.8</ele>
        <time>2012-09-15T18:55:33Z</time>
      </trkpt>
      <trkpt lat="59.4961325152" lon="17.8191642746">
        <ele>143.2</ele>
        <time>2012-09-15T18:55:34Z</time>
      </trkpt>
      <trkpt lat="59.4961035976" lon="17.8192004006">
        <ele>143.6</ele>
        <time>2012-09-15T18:55:35Z</time>
      </trkpt>
      <trkpt lat="59.4960792901" lon="17.8192357722">
        <ele>144</ele>
        <time>2012-09-15T18:55:36Z</time>
      </trkpt>
      <trkpt lat="59.4960346146" lon="17.819293775">
        <ele>144</ele>
        <time>2012-09-15T18:55:38Z</time>
      </trkpt>
      <trkpt lat="59.4959101434" lon="17.8194420508">
        <ele>144</ele>
        <time>2012-09-15T18:55:43Z</time>
      </trkpt>
      <trkpt lat="59.4958699103" lon="17.8194619159">
        <ele>144.4</ele>
        <time>2012-09-15T18:55:44Z</time>
      </trkpt>
      <trkpt lat="59.4958351254" lon="17.8194816134">
        <ele>144.8</ele>
        <time>2012-09-15T18:55:45Z</time>
      </trkpt>
      <trkpt lat="59.4958025198" lon="17.8195092736">
        <ele>145.4</ele>
        <time>2012-09-15T18:55:46Z</time>
      </trkpt>
      <trkpt lat="59.4957683216" lon="17.8195341679">
        <ele>145.8</ele>
        <time>2012-09-15T18:55:47Z</time>
      </trkpt>
      <trkpt lat="59.4957315251" lon="17.8195571343">
        <ele>146.2</ele>
        <time>2012-09-15T18:55:48Z</time>
      </trkpt>
      <trkpt lat="59.4955348857" lon="17.8196828628">
        <ele>146.2</ele>
        <time>2012-09-15T18:55:54Z</time>
      </trkpt>
      <trkpt lat="59.4953819999" lon="17.8199080006">
        <ele>146.2</ele>
        <time>2012-09-15T18:55:59Z</time>
      </trkpt>
      <trkpt lat="59.4952125178" lon="17.8202441986">
        <ele>146.2</ele>
        <time>2012-09-15T18:56:05Z</time>
      </trkpt>
      <trkpt lat="59.4950673433" lon="17.8204793109">
        <ele>146.2</ele>
        <time>2012-09-15T18:56:10Z</time>
      </trkpt>
      <trkpt lat="59.4948664292" lon="17.8206725975">
        <ele>146.2</ele>
        <time>2012-09-15T18:56:15Z</time>
      </trkpt>
      <trkpt lat="59.4947008028" lon="17.8210098852">
        <ele>146.2</ele>
        <time>2012-09-15T18:56:20Z</time>
      </trkpt>
      <trkpt lat="59.4946452308" lon="17.8212082848">
        <ele>146.2</ele>
        <time>2012-09-15T18:56:22Z</time>
      </trkpt>
      <trkpt lat="59.4946112842" lon="17.8214238672">
        <ele>146.2</ele>
        <time>2012-09-15T18:56:24Z</time>
      </trkpt>
      <trkpt lat="59.4945241124" lon="17.8218568762">
        <ele>146.2</ele>
        <time>2012-09-15T18:56:29Z</time>
      </trkpt>
      <trkpt lat="59.4945194185" lon="17.8219422877">
        <ele>146.2</ele>
        <time>2012-09-15T18:56:30Z</time>
      </trkpt>
      <trkpt lat="59.4945253697" lon="17.8222970098">
        <ele>146.2</ele>
        <time>2012-09-15T18:56:34Z</time>
      </trkpt>
      <trkpt lat="59.4945226875" lon="17.8223913899">
        <ele>146.2</ele>
        <time>2012-09-15T18:56:35Z</time>
      </trkpt>
      <trkpt lat="59.4945190833" lon="17.8224878656">
        <ele>146.2</ele>
        <time>2012-09-15T18:56:36Z</time>
      </trkpt>
      <trkpt lat="59.4945158143" lon="17.8227501353">
        <ele>146.2</ele>
        <time>2012-09-15T18:56:39Z</time>
      </trkpt>
      <trkpt lat="59.4945680335" lon="17.8233601699">
        <ele>146.2</ele>
        <time>2012-09-15T18:56:45Z</time>
      </trkpt>
      <trkpt lat="59.4946034052" lon="17.8237316558">
        <ele>146.2</ele>
        <time>2012-09-15T18:56:49Z</time>
      </trkpt>
      <trkpt lat="59.4946014773" lon="17.8239208352">
        <ele>146.2</ele>
        <time>2012-09-15T18:56:51Z</time>
      </trkpt>
      <trkpt lat="59.4945811931" lon="17.8241300475">
        <ele>146.2</ele>
        <time>2012-09-15T18:56:53Z</time>
      </trkpt>
      <trkpt lat="59.4945235257" lon="17.8243110127">
        <ele>146.2</ele>
        <time>2012-09-15T18:56:55Z</time>
      </trkpt>
      <trkpt lat="59.49444373" lon="17.8244669998">
        <ele>146.2</ele>
        <time>2012-09-15T18:56:57Z</time>
      </trkpt>
      <trkpt lat="59.4943957017" lon="17.824541934">
        <ele>146.2</ele>
        <time>2012-09-15T18:56:58Z</time>
      </trkpt>
      <trkpt lat="59.4943020759" lon="17.8246692551">
        <ele>145.8</ele>
        <time>2012-09-15T18:57:00Z</time>
      </trkpt>
      <trkpt lat="59.4942545505" lon="17.8247223963">
        <ele>145.4</ele>
        <time>2012-09-15T18:57:01Z</time>
      </trkpt>
      <trkpt lat="59.4942059355" lon="17.8247721848">
        <ele>145</ele>
        <time>2012-09-15T18:57:02Z</time>
      </trkpt>
      <trkpt lat="59.4941590806" lon="17.8248213866">
        <ele>144.4</ele>
        <time>2012-09-15T18:57:03Z</time>
      </trkpt>
      <trkpt lat="59.4941152433" lon="17.8248624579">
        <ele>144</ele>
        <time>2012-09-15T18:57:04Z</time>
      </trkpt>
      <trkpt lat="59.4940302508" lon="17.8249259089">
        <ele>144</ele>
        <time>2012-09-15T18:57:06Z</time>
      </trkpt>
      <trkpt lat="59.4937989104" lon="17.8250943012">
        <ele>144</ele>
        <time>2012-09-15T18:57:12Z</time>
      </trkpt>
      <trkpt lat="59.4934881934" lon="17.8253985642">
        <ele>144</ele>
        <time>2012-09-15T18:57:19Z</time>
      </trkpt>
      <trkpt lat="59.4933657338" lon="17.8255755899">
        <ele>144</ele>
        <time>2012-09-15T18:57:22Z</time>
      </trkpt>
      <trkpt lat="59.4932099143" lon="17.8257190042">
        <ele>144</ele>
        <time>2012-09-15T18:57:25Z</time>
      </trkpt>
      <trkpt lat="59.4929987742" lon="17.8257633445">
        <ele>144</ele>
        <time>2012-09-15T18:57:29Z</time>
      </trkpt>
      <trkpt lat="59.4929480637" lon="17.8257607461">
        <ele>144</ele>
        <time>2012-09-15T18:57:30Z</time>
      </trkpt>
      <trkpt lat="59.4928507499" lon="17.8257347622">
        <ele>144</ele>
        <time>2012-09-15T18:57:32Z</time>
      </trkpt>
      <trkpt lat="59.4927059945" lon="17.825666785">
        <ele>144</ele>
        <time>2012-09-15T18:57:35Z</time>
      </trkpt>
      <trkpt lat="59.4924207584" lon="17.8255347701">
        <ele>144</ele>
        <time>2012-09-15T18:57:41Z</time>
      </trkpt>
      <trkpt lat="59.4922642683" lon="17.8254812097">
        <ele>144</ele>
        <time>2012-09-15T18:57:44Z</time>
      </trkpt>
      <trkpt lat="59.4921594946" lon="17.8254647812">
        <ele>144</ele>
        <time>2012-09-15T18:57:46Z</time>
      </trkpt>
      <trkpt lat="59.4919358655" lon="17.8253263122">
        <ele>144.4</ele>
        <time>2012-09-15T18:57:50Z</time>
      </trkpt>
      <trkpt lat="59.4918755996" lon="17.8252787869">
        <ele>144.8</ele>
        <time>2012-09-15T18:57:51Z</time>
      </trkpt>
      <trkpt lat="59.4918134898" lon="17.8252197783">
        <ele>145.2</ele>
        <time>2012-09-15T18:57:52Z</time>
      </trkpt>
      <trkpt lat="59.4917590912" lon="17.8251575008">
        <ele>145.6</ele>
        <time>2012-09-15T18:57:53Z</time>
      </trkpt>
      <trkpt lat="59.4917069558" lon="17.8251010068">
        <ele>146</ele>
        <time>2012-09-15T18:57:54Z</time>
      </trkpt>
      <trkpt lat="59.4916538146" lon="17.8250392322">
        <ele>146</ele>
        <time>2012-09-15T18:57:55Z</time>
      </trkpt>
      <trkpt lat="59.4913814028" lon="17.8246663214">
        <ele>146</ele>
        <time>2012-09-15T18:58:01Z</time>
      </trkpt>
      <trkpt lat="59.4912625475" lon="17.8244867811">
        <ele>146</ele>
        <time>2012-09-15T18:58:04Z</time>
      </trkpt>
      <trkpt lat="59.4911876133" lon="17.8243713624">
        <ele>146</ele>
        <time>2012-09-15T18:58:06Z</time>
      </trkpt>
      <trkpt lat="59.4911428539" lon="17.8243230826">
        <ele>146</ele>
        <time>2012-09-15T18:58:07Z</time>
      </trkpt>
      <trkpt lat="59.4909969251" lon="17.8241396028">
        <ele>146</ele>
        <time>2012-09-15T18:58:10Z</time>
      </trkpt>
      <trkpt lat="59.4907044806" lon="17.8237558794">
        <ele>146</ele>
        <time>2012-09-15T18:58:16Z</time>
      </trkpt>
      <trkpt lat="59.4904327394" lon="17.8234076953">
        <ele>146</ele>
        <time>2012-09-15T18:58:22Z</time>
      </trkpt>
      <trkpt lat="59.4902383631" lon="17.8231123172">
        <ele>146</ele>
        <time>2012-09-15T18:58:27Z</time>
      </trkpt>
      <trkpt lat="59.4899657837" lon="17.822734964">
        <ele>146</ele>
        <time>2012-09-15T18:58:33Z</time>
      </trkpt>
      <trkpt lat="59.4898296617" lon="17.8225363968">
        <ele>146</ele>
        <time>2012-09-15T18:58:36Z</time>
      </trkpt>
      <trkpt lat="59.4896740098" lon="17.8223535038">
        <ele>146</ele>
        <time>2012-09-15T18:58:39Z</time>
      </trkpt>
      <trkpt lat="59.4893383147" lon="17.8218609833">
        <ele>146</ele>
        <time>2012-09-15T18:58:46Z</time>
      </trkpt>
      <trkpt lat="59.4890034578" lon="17.8213996435">
        <ele>146</ele>
        <time>2012-09-15T18:58:53Z</time>
      </trkpt>
      <trkpt lat="59.4886665892" lon="17.8209346995">
        <ele>146</ele>
        <time>2012-09-15T18:59:00Z</time>
      </trkpt>
      <trkpt lat="59.4886187286" lon="17.8208558259">
        <ele>146</ele>
        <time>2012-09-15T18:59:01Z</time>
      </trkpt>
      <trkpt lat="59.488448576" lon="17.8205078094">
        <ele>146</ele>
        <time>2012-09-15T18:59:05Z</time>
      </trkpt>
      <trkpt lat="59.4882626655" lon="17.8200566117">
        <ele>146</ele>
        <time>2012-09-15T18:59:10Z</time>
      </trkpt>
      <trkpt lat="59.4880713905" lon="17.8196691165">
        <ele>146</ele>
        <time>2012-09-15T18:59:15Z</time>
      </trkpt>
      <trkpt lat="59.4880303192" lon="17.8196058331">
        <ele>146</ele>
        <time>2012-09-15T18:59:16Z</time>
      </trkpt>
      <trkpt lat="59.4879406329" lon="17.8194730638">
        <ele>146</ele>
        <time>2012-09-15T18:59:18Z</time>
      </trkpt>
      <trkpt lat="59.4878508627" lon="17.8193505204">
        <ele>146</ele>
        <time>2012-09-15T18:59:20Z</time>
      </trkpt>
      <trkpt lat="59.4876907684" lon="17.8190745045">
        <ele>146</ele>
        <time>2012-09-15T18:59:24Z</time>
      </trkpt>
      <trkpt lat="59.4874136628" lon="17.8186091414">
        <ele>146</ele>
        <time>2012-09-15T18:59:31Z</time>
      </trkpt>
      <trkpt lat="59.487135719" lon="17.8180572771">
        <ele>146</ele>
        <time>2012-09-15T18:59:38Z</time>
      </trkpt>
      <trkpt lat="59.4869519878" lon="17.8176378468">
        <ele>146</ele>
        <time>2012-09-15T18:59:43Z</time>
      </trkpt>
      <trkpt lat="59.486721737" lon="17.8171791054">
        <ele>146</ele>
        <time>2012-09-15T18:59:49Z</time>
      </trkpt>
      <trkpt lat="59.4865118542" lon="17.8169084539">
        <ele>146</ele>
        <time>2012-09-15T18:59:53Z</time>
      </trkpt>
      <trkpt lat="59.4864527618" lon="17.8168761836">
        <ele>146</ele>
        <time>2012-09-15T18:59:54Z</time>
      </trkpt>
      <trkpt lat="59.4861994608" lon="17.8169067775">
        <ele>146</ele>
        <time>2012-09-15T18:59:58Z</time>
      </trkpt>
      <trkpt lat="59.4858220238" lon="17.8170866531">
        <ele>146</ele>
        <time>2012-09-15T19:00:04Z</time>
      </trkpt>
      <trkpt lat="59.4857660327" lon="17.8171442367">
        <ele>146</ele>
        <time>2012-09-15T19:00:05Z</time>
      </trkpt>
      <trkpt lat="59.4854479396" lon="17.8174494217">
        <ele>146</ele>
        <time>2012-09-15T19:00:11Z</time>
      </trkpt>
      <trkpt lat="59.485274099" lon="17.8175376831">
        <ele>146</ele>
        <time>2012-09-15T19:00:15Z</time>
      </trkpt>
      <trkpt lat="59.4852373863" lon="17.8175236853">
        <ele>146</ele>
        <time>2012-09-15T19:00:16Z</time>
      </trkpt>
      <trkpt lat="59.4851206264" lon="17.8174116193">
        <ele>146</ele>
        <time>2012-09-15T19:00:19Z</time>
      </trkpt>
      <trkpt lat="59.4850775435" lon="17.8173590648">
        <ele>146</ele>
        <time>2012-09-15T19:00:20Z</time>
      </trkpt>
      <trkpt lat="59.4849801458" lon="17.8172677859">
        <ele>146</ele>
        <time>2012-09-15T19:00:22Z</time>
      </trkpt>
      <trkpt lat="59.4849288485" lon="17.8172420535">
        <ele>146</ele>
        <time>2012-09-15T19:00:23Z</time>
      </trkpt>
      <trkpt lat="59.4848299421" lon="17.8172133874">
        <ele>146.6</ele>
        <time>2012-09-15T19:00:25Z</time>
      </trkpt>
      <trkpt lat="59.4847817462" lon="17.8171977133">
        <ele>147</ele>
        <time>2012-09-15T19:00:26Z</time>
      </trkpt>
      <trkpt lat="59.4847334665" lon="17.8171803627">
        <ele>147.4</ele>
        <time>2012-09-15T19:00:27Z</time>
      </trkpt>
      <trkpt lat="59.4846862764" lon="17.8171648562">
        <ele>147.8</ele>
        <time>2012-09-15T19:00:28Z</time>
      </trkpt>
      <trkpt lat="59.4846400921" lon="17.8171484277">
        <ele>148.4</ele>
        <time>2012-09-15T19:00:29Z</time>
      </trkpt>
      <trkpt lat="59.4844483142" lon="17.8170492698">
        <ele>148.4</ele>
        <time>2012-09-15T19:00:33Z</time>
      </trkpt>
      <trkpt lat="59.484402549" lon="17.8170232859">
        <ele>148.4</ele>
        <time>2012-09-15T19:00:34Z</time>
      </trkpt>
      <trkpt lat="59.4843143715" lon="17.8169651993">
        <ele>148.4</ele>
        <time>2012-09-15T19:00:36Z</time>
      </trkpt>
      <trkpt lat="59.4841322328" lon="17.8167893471">
        <ele>148.4</ele>
        <time>2012-09-15T19:00:40Z</time>
      </trkpt>
      <trkpt lat="59.4837591544" lon="17.816405037">
        <ele>148.4</ele>
        <time>2012-09-15T19:00:47Z</time>
      </trkpt>
      <trkpt lat="59.4836240382" lon="17.8162265025">
        <ele>148.4</ele>
        <time>2012-09-15T19:00:50Z</time>
      </trkpt>
      <trkpt lat="59.4835501098" lon="17.8160676655">
        <ele>148.4</ele>
        <time>2012-09-15T19:00:52Z</time>
      </trkpt>
      <trkpt lat="59.4834854015" lon="17.8158878737">
        <ele>148.4</ele>
        <time>2012-09-15T19:00:54Z</time>
      </trkpt>
      <trkpt lat="59.4834072822" lon="17.8157125244">
        <ele>148.4</ele>
        <time>2012-09-15T19:00:56Z</time>
      </trkpt>
      <trkpt lat="59.4833232956" lon="17.8155771567">
        <ele>148.4</ele>
        <time>2012-09-15T19:00:58Z</time>
      </trkpt>
      <trkpt lat="59.4832348666" lon="17.8154646716">
        <ele>148.4</ele>
        <time>2012-09-15T19:01:00Z</time>
      </trkpt>
      <trkpt lat="59.483092961" lon="17.8152793478">
        <ele>148.4</ele>
        <time>2012-09-15T19:01:03Z</time>
      </trkpt>
      <trkpt lat="59.482886431" lon="17.8149449938">
        <ele>148.4</ele>
        <time>2012-09-15T19:01:08Z</time>
      </trkpt>
      <trkpt lat="59.4826664061" lon="17.8144912816">
        <ele>148.4</ele>
        <time>2012-09-15T19:01:14Z</time>
      </trkpt>
      <trkpt lat="59.482591891" lon="17.814341497">
        <ele>148.4</ele>
        <time>2012-09-15T19:01:16Z</time>
      </trkpt>
      <trkpt lat="59.4824698505" lon="17.8142151818">
        <ele>148.4</ele>
        <time>2012-09-15T19:01:19Z</time>
      </trkpt>
      <trkpt lat="59.4823312139" lon="17.8141743619">
        <ele>148.4</ele>
        <time>2012-09-15T19:01:22Z</time>
      </trkpt>
      <trkpt lat="59.4822230874" lon="17.8141630464">
        <ele>148.4</ele>
        <time>2012-09-15T19:01:24Z</time>
      </trkpt>
      <trkpt lat="59.4821178946" lon="17.8141213883">
        <ele>148.4</ele>
        <time>2012-09-15T19:01:26Z</time>
      </trkpt>
      <trkpt lat="59.4819867178" lon="17.8139705979">
        <ele>148.4</ele>
        <time>2012-09-15T19:01:29Z</time>
      </trkpt>
      <trkpt lat="59.4819443054" lon="17.8139150259">
        <ele>148.4</ele>
        <time>2012-09-15T19:01:30Z</time>
      </trkpt>
      <trkpt lat="59.481852356" lon="17.8138215678">
        <ele>148.4</ele>
        <time>2012-09-15T19:01:32Z</time>
      </trkpt>
      <trkpt lat="59.481748169" lon="17.8137509083">
        <ele>148.4</ele>
        <time>2012-09-15T19:01:34Z</time>
      </trkpt>
      <trkpt lat="59.4816982966" lon="17.81371495">
        <ele>148.4</ele>
        <time>2012-09-15T19:01:35Z</time>
      </trkpt>
      <trkpt lat="59.4814135635" lon="17.8135451327">
        <ele>148.4</ele>
        <time>2012-09-15T19:01:41Z</time>
      </trkpt>
      <trkpt lat="59.4813750068" lon="17.813503307">
        <ele>148.4</ele>
        <time>2012-09-15T19:01:42Z</time>
      </trkpt>
      <trkpt lat="59.481216505" lon="17.8133437994">
        <ele>148.4</ele>
        <time>2012-09-15T19:01:46Z</time>
      </trkpt>
      <trkpt lat="59.4810653794" lon="17.8130920072">
        <ele>148.4</ele>
        <time>2012-09-15T19:01:50Z</time>
      </trkpt>
      <trkpt lat="59.4810302592" lon="17.8130136364">
        <ele>148.4</ele>
        <time>2012-09-15T19:01:51Z</time>
      </trkpt>
      <trkpt lat="59.4808306024" lon="17.8125492791">
        <ele>147.8</ele>
        <time>2012-09-15T19:01:57Z</time>
      </trkpt>
      <trkpt lat="59.4807933029" lon="17.8124728362">
        <ele>147.4</ele>
        <time>2012-09-15T19:01:58Z</time>
      </trkpt>
      <trkpt lat="59.4807479568" lon="17.8124022606">
        <ele>147</ele>
        <time>2012-09-15T19:01:59Z</time>
      </trkpt>
      <trkpt lat="59.4807058797" lon="17.8123342834">
        <ele>146.6</ele>
        <time>2012-09-15T19:02:00Z</time>
      </trkpt>
      <trkpt lat="59.4806565103" lon="17.8122704972">
        <ele>146</ele>
        <time>2012-09-15T19:02:01Z</time>
      </trkpt>
      <trkpt lat="59.4806053807" lon="17.8122056212">
        <ele>146</ele>
        <time>2012-09-15T19:02:02Z</time>
      </trkpt>
      <trkpt lat="59.4803395907" lon="17.8118332134">
        <ele>146</ele>
        <time>2012-09-15T19:02:08Z</time>
      </trkpt>
      <trkpt lat="59.4802025466" lon="17.8115853606">
        <ele>145.6</ele>
        <time>2012-09-15T19:02:12Z</time>
      </trkpt>
      <trkpt lat="59.4801655824" lon="17.8115245919">
        <ele>145.2</ele>
        <time>2012-09-15T19:02:13Z</time>
      </trkpt>
      <trkpt lat="59.4801245949" lon="17.8114587101">
        <ele>144.8</ele>
        <time>2012-09-15T19:02:14Z</time>
      </trkpt>
      <trkpt lat="59.4800925761" lon="17.8113936666">
        <ele>144.4</ele>
        <time>2012-09-15T19:02:15Z</time>
      </trkpt>
      <trkpt lat="59.4800668436" lon="17.811340693">
        <ele>144</ele>
        <time>2012-09-15T19:02:16Z</time>
      </trkpt>
      <trkpt lat="59.4800331484" lon="17.8112331532">
        <ele>144</ele>
        <time>2012-09-15T19:02:18Z</time>
      </trkpt>
      <trkpt lat="59.4800175581" lon="17.8110743162">
        <ele>143.6</ele>
        <time>2012-09-15T19:02:21Z</time>
      </trkpt>
      <trkpt lat="59.4800118584" lon="17.8110223484">
        <ele>143.2</ele>
        <time>2012-09-15T19:02:22Z</time>
      </trkpt>
      <trkpt lat="59.4800014648" lon="17.810979936">
        <ele>142.8</ele>
        <time>2012-09-15T19:02:23Z</time>
      </trkpt>
      <trkpt lat="59.4799979444" lon="17.8109353443">
        <ele>142.4</ele>
        <time>2012-09-15T19:02:24Z</time>
      </trkpt>
      <trkpt lat="59.4799966033" lon="17.8108846338">
        <ele>142</ele>
        <time>2012-09-15T19:02:25Z</time>
      </trkpt>
      <trkpt lat="59.4800288736" lon="17.8107645212">
        <ele>142</ele>
        <time>2012-09-15T19:02:27Z</time>
      </trkpt>
      <trkpt lat="59.4802354875" lon="17.8104957136">
        <ele>142</ele>
        <time>2012-09-15T19:02:32Z</time>
      </trkpt>
      <trkpt lat="59.4803530855" lon="17.8103714939">
        <ele>142</ele>
        <time>2012-09-15T19:02:35Z</time>
      </trkpt>
      <trkpt lat="59.4804430233" lon="17.8103202805">
        <ele>142</ele>
        <time>2012-09-15T19:02:37Z</time>
      </trkpt>
      <trkpt lat="59.4807255772" lon="17.8102236372">
        <ele>142</ele>
        <time>2012-09-15T19:02:43Z</time>
      </trkpt>
      <trkpt lat="59.4807393235" lon="17.8101665564">
        <ele>142</ele>
        <time>2012-09-15T19:02:44Z</time>
      </trkpt>
      <trkpt lat="59.4807426762" lon="17.8101127446">
        <ele>142</ele>
        <time>2012-09-15T19:02:45Z</time>
      </trkpt>
      <trkpt lat="59.480781233" lon="17.809797669">
        <ele>142</ele>
        <time>2012-09-15T19:02:49Z</time>
      </trkpt>
      <trkpt lat="59.4808206279" lon="17.8096111717">
        <ele>142</ele>
        <time>2012-09-15T19:02:51Z</time>
      </trkpt>
      <trkpt lat="59.4808664769" lon="17.8093665041">
        <ele>142</ele>
        <time>2012-09-15T19:02:54Z</time>
      </trkpt>
      <trkpt lat="59.4809582587" lon="17.8089520191">
        <ele>142</ele>
        <time>2012-09-15T19:02:59Z</time>
      </trkpt>
      <trkpt lat="59.4809913672" lon="17.8087280548">
        <ele>142</ele>
        <time>2012-09-15T19:03:01Z</time>
      </trkpt>
      <trkpt lat="59.4809927921" lon="17.8084707304">
        <ele>142</ele>
        <time>2012-09-15T19:03:03Z</time>
      </trkpt>
      <trkpt lat="59.480987763" lon="17.808309295">
        <ele>141.6</ele>
        <time>2012-09-15T19:03:05Z</time>
      </trkpt>
      <trkpt lat="59.4809863381" lon="17.8082565729">
        <ele>141.2</ele>
        <time>2012-09-15T19:03:06Z</time>
      </trkpt>
      <trkpt lat="59.4809739329" lon="17.8082119812">
        <ele>140.8</ele>
        <time>2012-09-15T19:03:07Z</time>
      </trkpt>
      <trkpt lat="59.4809637908" lon="17.8081603487">
        <ele>140.2</ele>
        <time>2012-09-15T19:03:08Z</time>
      </trkpt>
      <trkpt lat="59.4809669759" lon="17.8081077103">
        <ele>139.8</ele>
        <time>2012-09-15T19:03:09Z</time>
      </trkpt>
      <trkpt lat="59.4809876792" lon="17.8077385715">
        <ele>139.8</ele>
        <time>2012-09-15T19:03:14Z</time>
      </trkpt>
      <trkpt lat="59.4809831529" lon="17.8076282657">
        <ele>139.8</ele>
        <time>2012-09-15T19:03:15Z</time>
      </trkpt>
      <trkpt lat="59.4809328615" lon="17.8072219111">
        <ele>139.8</ele>
        <time>2012-09-15T19:03:19Z</time>
      </trkpt>
      <trkpt lat="59.4807927162" lon="17.8070819334">
        <ele>139.8</ele>
        <time>2012-09-15T19:03:22Z</time>
      </trkpt>
      <trkpt lat="59.4807295166" lon="17.8070424547">
        <ele>139.8</ele>
        <time>2012-09-15T19:03:23Z</time>
      </trkpt>
      <trkpt lat="59.4806140979" lon="17.8069858768">
        <ele>139.8</ele>
        <time>2012-09-15T19:03:25Z</time>
      </trkpt>
      <trkpt lat="59.4805564304" lon="17.8069944264">
        <ele>139.8</ele>
        <time>2012-09-15T19:03:26Z</time>
      </trkpt>
      <trkpt lat="59.4803898821" lon="17.8071362481">
        <ele>139.4</ele>
        <time>2012-09-15T19:03:29Z</time>
      </trkpt>
      <trkpt lat="59.4803317955" lon="17.8071731285">
        <ele>139</ele>
        <time>2012-09-15T19:03:30Z</time>
      </trkpt>
      <trkpt lat="59.4802755529" lon="17.8072087516">
        <ele>138.6</ele>
        <time>2012-09-15T19:03:31Z</time>
      </trkpt>
      <trkpt lat="59.4802216573" lon="17.8072370824">
        <ele>138.2</ele>
        <time>2012-09-15T19:03:32Z</time>
      </trkpt>
      <trkpt lat="59.4801674264" lon="17.8072555226">
        <ele>137.8</ele>
        <time>2012-09-15T19:03:33Z</time>
      </trkpt>
      <trkpt lat="59.4801102619" lon="17.8072561093">
        <ele>137.8</ele>
        <time>2012-09-15T19:03:34Z</time>
      </trkpt>
      <trkpt lat="59.4799843657" lon="17.8070630741">
        <ele>137.8</ele>
        <time>2012-09-15T19:03:37Z</time>
      </trkpt>
      <trkpt lat="59.4799287937" lon="17.8068515988">
        <ele>137.8</ele>
        <time>2012-09-15T19:03:39Z</time>
      </trkpt>
      <trkpt lat="59.479869869" lon="17.8066289755">
        <ele>137.4</ele>
        <time>2012-09-15T19:03:41Z</time>
      </trkpt>
      <trkpt lat="59.4798461482" lon="17.8065301529">
        <ele>137</ele>
        <time>2012-09-15T19:03:42Z</time>
      </trkpt>
      <trkpt lat="59.4798255287" lon="17.8064415563">
        <ele>136.6</ele>
        <time>2012-09-15T19:03:43Z</time>
      </trkpt>
      <trkpt lat="59.4798147999" lon="17.8063659515">
        <ele>136</ele>
        <time>2012-09-15T19:03:44Z</time>
      </trkpt>
      <trkpt lat="59.479817985" lon="17.8062983096">
        <ele>135.6</ele>
        <time>2012-09-15T19:03:45Z</time>
      </trkpt>
      <trkpt lat="59.4798454777" lon="17.806241145">
        <ele>135.2</ele>
        <time>2012-09-15T19:03:46Z</time>
      </trkpt>
      <trkpt lat="59.4798871357" lon="17.8062004928">
        <ele>134.4</ele>
        <time>2012-09-15T19:03:47Z</time>
      </trkpt>
      <trkpt lat="59.4799277879" lon="17.806160595">
        <ele>134</ele>
        <time>2012-09-15T19:03:48Z</time>
      </trkpt>
      <trkpt lat="59.4799800071" lon="17.8061248043">
        <ele>133.6</ele>
        <time>2012-09-15T19:03:49Z</time>
      </trkpt>
      <trkpt lat="59.480038429" lon="17.8060916958">
        <ele>133.6</ele>
        <time>2012-09-15T19:03:50Z</time>
      </trkpt>
      <trkpt lat="59.4800918217" lon="17.8060409014">
        <ele>133.6</ele>
        <time>2012-09-15T19:03:51Z</time>
      </trkpt>
      <trkpt lat="59.4801460526" lon="17.8059936275">
        <ele>133.6</ele>
        <time>2012-09-15T19:03:52Z</time>
      </trkpt>
      <trkpt lat="59.4804488068" lon="17.8057588505">
        <ele>133.6</ele>
        <time>2012-09-15T19:03:58Z</time>
      </trkpt>
      <trkpt lat="59.4805687518" lon="17.8056922982">
        <ele>133.6</ele>
        <time>2012-09-15T19:04:00Z</time>
      </trkpt>
      <trkpt lat="59.4807368927" lon="17.8056299369">
        <ele>133.6</ele>
        <time>2012-09-15T19:04:03Z</time>
      </trkpt>
      <trkpt lat="59.4810923691" lon="17.8055156078">
        <ele>133.6</ele>
        <time>2012-09-15T19:04:09Z</time>
      </trkpt>
      <trkpt lat="59.4815169962" lon="17.8054090738">
        <ele>133.6</ele>
        <time>2012-09-15T19:04:16Z</time>
      </trkpt>
      <trkpt lat="59.4818780884" lon="17.8053799886">
        <ele>133.6</ele>
        <time>2012-09-15T19:04:22Z</time>
      </trkpt>
      <trkpt lat="59.4821015499" lon="17.8053697627">
        <ele>133.6</ele>
        <time>2012-09-15T19:04:26Z</time>
      </trkpt>
      <trkpt lat="59.4821551102" lon="17.8053323794">
        <ele>133.6</ele>
        <time>2012-09-15T19:04:27Z</time>
      </trkpt>
      <trkpt lat="59.4823243408" lon="17.8051215746">
        <ele>133.2</ele>
        <time>2012-09-15T19:04:30Z</time>
      </trkpt>
      <trkpt lat="59.4823768953" lon="17.8050323912">
        <ele>132.8</ele>
        <time>2012-09-15T19:04:31Z</time>
      </trkpt>
      <trkpt lat="59.4824341437" lon="17.8049448842">
        <ele>132.2</ele>
        <time>2012-09-15T19:04:32Z</time>
      </trkpt>
      <trkpt lat="59.4824923979" lon="17.8048594726">
        <ele>131.8</ele>
        <time>2012-09-15T19:04:33Z</time>
      </trkpt>
      <trkpt lat="59.4825483051" lon="17.8047714627">
        <ele>131.4</ele>
        <time>2012-09-15T19:04:34Z</time>
      </trkpt>
      <trkpt lat="59.482714602" lon="17.8045285552">
        <ele>131</ele>
        <time>2012-09-15T19:04:37Z</time>
      </trkpt>
      <trkpt lat="59.4827713475" lon="17.8044382822">
        <ele>130.6</ele>
        <time>2012-09-15T19:04:38Z</time>
      </trkpt>
      <trkpt lat="59.4828140114" lon="17.8043442372">
        <ele>130.2</ele>
        <time>2012-09-15T19:04:39Z</time>
      </trkpt>
      <trkpt lat="59.4828439347" lon="17.8042571493">
        <ele>129.6</ele>
        <time>2012-09-15T19:04:40Z</time>
      </trkpt>
      <trkpt lat="59.4828665659" lon="17.8041852326">
        <ele>129.2</ele>
        <time>2012-09-15T19:04:41Z</time>
      </trkpt>
      <trkpt lat="59.4829275861" lon="17.8040102185">
        <ele>128.8</ele>
        <time>2012-09-15T19:04:44Z</time>
      </trkpt>
      <trkpt lat="59.4829587668" lon="17.8039326021">
        <ele>128.4</ele>
        <time>2012-09-15T19:04:45Z</time>
      </trkpt>
      <trkpt lat="59.482985505" lon="17.80384191">
        <ele>128</ele>
        <time>2012-09-15T19:04:46Z</time>
      </trkpt>
      <trkpt lat="59.4830108184" lon="17.8037381421">
        <ele>127.6</ele>
        <time>2012-09-15T19:04:47Z</time>
      </trkpt>
      <trkpt lat="59.4830329466" lon="17.8036355476">
        <ele>127</ele>
        <time>2012-09-15T19:04:48Z</time>
      </trkpt>
      <trkpt lat="59.4830589305" lon="17.8035254932">
        <ele>127</ele>
        <time>2012-09-15T19:04:49Z</time>
      </trkpt>
      <trkpt lat="59.4830937154" lon="17.803284346">
        <ele>127</ele>
        <time>2012-09-15T19:04:51Z</time>
      </trkpt>
      <trkpt lat="59.4831505446" lon="17.8029297916">
        <ele>127</ele>
        <time>2012-09-15T19:04:54Z</time>
      </trkpt>
      <trkpt lat="59.4831761933" lon="17.8028199887">
        <ele>127</ele>
        <time>2012-09-15T19:04:55Z</time>
      </trkpt>
      <trkpt lat="59.4832796259" lon="17.8025297235">
        <ele>127</ele>
        <time>2012-09-15T19:04:58Z</time>
      </trkpt>
      <trkpt lat="59.4834434082" lon="17.8023328327">
        <ele>126.6</ele>
        <time>2012-09-15T19:05:01Z</time>
      </trkpt>
      <trkpt lat="59.4835125589" lon="17.8022844691">
        <ele>126</ele>
        <time>2012-09-15T19:05:02Z</time>
      </trkpt>
      <trkpt lat="59.4835804523" lon="17.8022247062">
        <ele>125.6</ele>
        <time>2012-09-15T19:05:03Z</time>
      </trkpt>
      <trkpt lat="59.4836446576" lon="17.8021559746">
        <ele>125.2</ele>
        <time>2012-09-15T19:05:04Z</time>
      </trkpt>
      <trkpt lat="59.4836968769" lon="17.8021013246">
        <ele>124.6</ele>
        <time>2012-09-15T19:05:05Z</time>
      </trkpt>
      <trkpt lat="59.4837339249" lon="17.8020528772">
        <ele>124.2</ele>
        <time>2012-09-15T19:05:06Z</time>
      </trkpt>
      <trkpt lat="59.4837550473" lon="17.8020038431">
        <ele>123.8</ele>
        <time>2012-09-15T19:05:07Z</time>
      </trkpt>
      <trkpt lat="59.4837647703" lon="17.8019474329">
        <ele>123.4</ele>
        <time>2012-09-15T19:05:08Z</time>
      </trkpt>
      <trkpt lat="59.483764435" lon="17.8018826408">
        <ele>122.8</ele>
        <time>2012-09-15T19:05:09Z</time>
      </trkpt>
      <trkpt lat="59.4837745771" lon="17.8018057788">
        <ele>122.4</ele>
        <time>2012-09-15T19:05:10Z</time>
      </trkpt>
      <trkpt lat="59.4837881558" lon="17.8017348679">
        <ele>122</ele>
        <time>2012-09-15T19:05:11Z</time>
      </trkpt>
      <trkpt lat="59.4838017345" lon="17.8016838222">
        <ele>121.6</ele>
        <time>2012-09-15T19:05:12Z</time>
      </trkpt>
      <trkpt lat="59.4838106193" lon="17.8016512166">
        <ele>121.2</ele>
        <time>2012-09-15T19:05:13Z</time>
      </trkpt>
      <trkpt lat="59.4838174924" lon="17.8016181919">
        <ele>120.6</ele>
        <time>2012-09-15T19:05:14Z</time>
      </trkpt>
      <trkpt lat="59.4838201746" lon="17.8015875141">
        <ele>120.2</ele>
        <time>2012-09-15T19:05:15Z</time>
      </trkpt>
      <trkpt lat="59.483819085" lon="17.8015635419">
        <ele>119.8</ele>
        <time>2012-09-15T19:05:16Z</time>
      </trkpt>
      <trkpt lat="59.4838150617" lon="17.8015396535">
        <ele>119.4</ele>
        <time>2012-09-15T19:05:17Z</time>
      </trkpt>
      <trkpt lat="59.4838141397" lon="17.8015195369">
        <ele>119</ele>
        <time>2012-09-15T19:05:18Z</time>
      </trkpt>
      <trkpt lat="59.483820007" lon="17.8015024379">
        <ele>118.6</ele>
        <time>2012-09-15T19:05:19Z</time>
      </trkpt>
      <trkpt lat="59.4838295624" lon="17.801481064">
        <ele>118.2</ele>
        <time>2012-09-15T19:05:20Z</time>
      </trkpt>
      <trkpt lat="59.4838423029" lon="17.8013829958">
        <ele>118.2</ele>
        <time>2012-09-15T19:05:23Z</time>
      </trkpt>
      <trkpt lat="59.4838376928" lon="17.8013384041">
        <ele>118.2</ele>
        <time>2012-09-15T19:05:24Z</time>
      </trkpt>
      <trkpt lat="59.4838236112" lon="17.8012973328">
        <ele>118.2</ele>
        <time>2012-09-15T19:05:25Z</time>
      </trkpt>
      <trkpt lat="59.4837138083" lon="17.8012102448">
        <ele>118.2</ele>
        <time>2012-09-15T19:05:28Z</time>
      </trkpt>
      <trkpt lat="59.4835198512" lon="17.8010290282">
        <ele>118.2</ele>
        <time>2012-09-15T19:05:32Z</time>
      </trkpt>
      <trkpt lat="59.4834668775" lon="17.8009783177">
        <ele>118.2</ele>
        <time>2012-09-15T19:05:33Z</time>
      </trkpt>
      <trkpt lat="59.4832642032" lon="17.800758209">
        <ele>118.2</ele>
        <time>2012-09-15T19:05:38Z</time>
      </trkpt>
      <trkpt lat="59.4831160112" lon="17.8005917444">
        <ele>118.6</ele>
        <time>2012-09-15T19:05:43Z</time>
      </trkpt>
      <trkpt lat="59.4830829027" lon="17.8005570434">
        <ele>119</ele>
        <time>2012-09-15T19:05:44Z</time>
      </trkpt>
      <trkpt lat="59.4830477825" lon="17.8005235158">
        <ele>119.4</ele>
        <time>2012-09-15T19:05:46Z</time>
      </trkpt>
      <trkpt lat="59.4830116566" lon="17.8004888147">
        <ele>119.8</ele>
        <time>2012-09-15T19:05:47Z</time>
      </trkpt>
      <trkpt lat="59.4829819008" lon="17.8004432172">
        <ele>120.2</ele>
        <time>2012-09-15T19:05:48Z</time>
      </trkpt>
      <trkpt lat="59.4829156838" lon="17.8003702946">
        <ele>120.6</ele>
        <time>2012-09-15T19:05:50Z</time>
      </trkpt>
      <trkpt lat="59.4828790549" lon="17.8003309835">
        <ele>121</ele>
        <time>2012-09-15T19:05:51Z</time>
      </trkpt>
      <trkpt lat="59.4828455273" lon="17.8002899122">
        <ele>121.6</ele>
        <time>2012-09-15T19:05:52Z</time>
      </trkpt>
      <trkpt lat="59.4828104071" lon="17.80025387">
        <ele>122</ele>
        <time>2012-09-15T19:05:53Z</time>
      </trkpt>
      <trkpt lat="59.4827712637" lon="17.8002153971">
        <ele>122.4</ele>
        <time>2012-09-15T19:05:54Z</time>
      </trkpt>
      <trkpt lat="59.4826534142" lon="17.800114982">
        <ele>122.8</ele>
        <time>2012-09-15T19:05:57Z</time>
      </trkpt>
      <trkpt lat="59.4826161147" lon="17.8000857291">
        <ele>123.2</ele>
        <time>2012-09-15T19:05:58Z</time>
      </trkpt>
      <trkpt lat="59.4825763845" lon="17.8000629304">
        <ele>123.6</ele>
        <time>2012-09-15T19:05:59Z</time>
      </trkpt>
      <trkpt lat="59.482534475" lon="17.8000397963">
        <ele>124</ele>
        <time>2012-09-15T19:06:00Z</time>
      </trkpt>
      <trkpt lat="59.4824928169" lon="17.8000128904">
        <ele>124.4</ele>
        <time>2012-09-15T19:06:01Z</time>
      </trkpt>
      <trkpt lat="59.4823628975" lon="17.7999301611">
        <ele>124.4</ele>
        <time>2012-09-15T19:06:04Z</time>
      </trkpt>
      <trkpt lat="59.4823212395" lon="17.7998919396">
        <ele>124.4</ele>
        <time>2012-09-15T19:06:05Z</time>
      </trkpt>
      <trkpt lat="59.4821767355" lon="17.7998061928">
        <ele>124.4</ele>
        <time>2012-09-15T19:06:08Z</time>
      </trkpt>
      <trkpt lat="59.481873646" lon="17.7997183504">
        <ele>124.4</ele>
        <time>2012-09-15T19:06:14Z</time>
      </trkpt>
      <trkpt lat="59.4817583111" lon="17.7997325159">
        <ele>124.4</ele>
        <time>2012-09-15T19:06:16Z</time>
      </trkpt>
      <trkpt lat="59.4816500169" lon="17.7997895128">
        <ele>124.4</ele>
        <time>2012-09-15T19:06:18Z</time>
      </trkpt>
      <trkpt lat="59.4815512781" lon="17.7998592502">
        <ele>124.4</ele>
        <time>2012-09-15T19:06:20Z</time>
      </trkpt>
      <trkpt lat="59.4813816285" lon="17.8000340966">
        <ele>124.4</ele>
        <time>2012-09-15T19:06:24Z</time>
      </trkpt>
      <trkpt lat="59.4813429879" lon="17.8000881599">
        <ele>124.4</ele>
        <time>2012-09-15T19:06:25Z</time>
      </trkpt>
      <trkpt lat="59.4811771101" lon="17.8002449014">
        <ele>124.4</ele>
        <time>2012-09-15T19:06:29Z</time>
      </trkpt>
      <trkpt lat="59.4809693228" lon="17.8003304806">
        <ele>124.4</ele>
        <time>2012-09-15T19:06:35Z</time>
      </trkpt>
      <trkpt lat="59.4808901977" lon="17.8003716357">
        <ele>124.8</ele>
        <time>2012-09-15T19:06:38Z</time>
      </trkpt>
      <trkpt lat="59.4808631241" lon="17.800383538">
        <ele>125.8</ele>
        <time>2012-09-15T19:06:39Z</time>
      </trkpt>
      <trkpt lat="59.4808329493" lon="17.8003925067">
        <ele>126.2</ele>
        <time>2012-09-15T19:06:40Z</time>
      </trkpt>
      <trkpt lat="59.4808000922" lon="17.8004034031">
        <ele>126.6</ele>
        <time>2012-09-15T19:06:41Z</time>
      </trkpt>
      <trkpt lat="59.4807270021" lon="17.8004244417">
        <ele>127</ele>
        <time>2012-09-15T19:06:43Z</time>
      </trkpt>
      <trkpt lat="59.4806957376" lon="17.8004254475">
        <ele>127.6</ele>
        <time>2012-09-15T19:06:44Z</time>
      </trkpt>
      <trkpt lat="59.4806645569" lon="17.8004277106">
        <ele>128</ele>
        <time>2012-09-15T19:06:45Z</time>
      </trkpt>
      <trkpt lat="59.4806301073" lon="17.8004310634">
        <ele>128.4</ele>
        <time>2012-09-15T19:06:46Z</time>
      </trkpt>
      <trkpt lat="59.4805909638" lon="17.8004288841">
        <ele>128.8</ele>
        <time>2012-09-15T19:06:47Z</time>
      </trkpt>
      <trkpt lat="59.4804780596" lon="17.8004070912">
        <ele>129.4</ele>
        <time>2012-09-15T19:06:50Z</time>
      </trkpt>
      <trkpt lat="59.4804385809" lon="17.8003980387">
        <ele>129.8</ele>
        <time>2012-09-15T19:06:51Z</time>
      </trkpt>
      <trkpt lat="59.4803958332" lon="17.800389573">
        <ele>130.2</ele>
        <time>2012-09-15T19:06:52Z</time>
      </trkpt>
      <trkpt lat="59.4803518282" lon="17.8003880643">
        <ele>130.6</ele>
        <time>2012-09-15T19:06:53Z</time>
      </trkpt>
      <trkpt lat="59.4803051411" lon="17.8003881481">
        <ele>131</ele>
        <time>2012-09-15T19:06:54Z</time>
      </trkpt>
      <trkpt lat="59.480153261" lon="17.8003733121">
        <ele>131</ele>
        <time>2012-09-15T19:06:57Z</time>
      </trkpt>
      <trkpt lat="59.4798123691" lon="17.8002754115">
        <ele>131</ele>
        <time>2012-09-15T19:07:04Z</time>
      </trkpt>
      <trkpt lat="59.4794538753" lon="17.8000410536">
        <ele>131</ele>
        <time>2012-09-15T19:07:11Z</time>
      </trkpt>
      <trkpt lat="59.4794038353" lon="17.7999767644">
        <ele>131</ele>
        <time>2012-09-15T19:07:12Z</time>
      </trkpt>
      <trkpt lat="59.4792364488" lon="17.7998480184">
        <ele>131</ele>
        <time>2012-09-15T19:07:15Z</time>
      </trkpt>
      <trkpt lat="59.4788817268" lon="17.7996628623">
        <ele>131</ele>
        <time>2012-09-15T19:07:20Z</time>
      </trkpt>
      <trkpt lat="59.478672766" lon="17.7995333619">
        <ele>131</ele>
        <time>2012-09-15T19:07:23Z</time>
      </trkpt>
      <trkpt lat="59.4785301899" lon="17.7994145066">
        <ele>131</ele>
        <time>2012-09-15T19:07:25Z</time>
      </trkpt>
      <trkpt lat="59.4783874461" lon="17.7992268358">
        <ele>130.6</ele>
        <time>2012-09-15T19:07:27Z</time>
      </trkpt>
      <trkpt lat="59.4783255039" lon="17.7991182064">
        <ele>130.2</ele>
        <time>2012-09-15T19:07:28Z</time>
      </trkpt>
      <trkpt lat="59.478263394" lon="17.7989933999">
        <ele>129.4</ele>
        <time>2012-09-15T19:07:29Z</time>
      </trkpt>
      <trkpt lat="59.4782105881" lon="17.7988714433">
        <ele>128.8</ele>
        <time>2012-09-15T19:07:30Z</time>
      </trkpt>
      <trkpt lat="59.4781590394" lon="17.7987437869">
        <ele>128.8</ele>
        <time>2012-09-15T19:07:31Z</time>
      </trkpt>
      <trkpt lat="59.4781083289" lon="17.7986136998">
        <ele>128.4</ele>
        <time>2012-09-15T19:07:32Z</time>
      </trkpt>
      <trkpt lat="59.4780582889" lon="17.7984800924">
        <ele>128</ele>
        <time>2012-09-15T19:07:33Z</time>
      </trkpt>
      <trkpt lat="59.4780095063" lon="17.7983440541">
        <ele>127.6</ele>
        <time>2012-09-15T19:07:34Z</time>
      </trkpt>
      <trkpt lat="59.4779595502" lon="17.7981946887">
        <ele>127.2</ele>
        <time>2012-09-15T19:07:35Z</time>
      </trkpt>
      <trkpt lat="59.4779097617" lon="17.7980448203">
        <ele>126.8</ele>
        <time>2012-09-15T19:07:36Z</time>
      </trkpt>
      <trkpt lat="59.4777274553" lon="17.797567052">
        <ele>126.4</ele>
        <time>2012-09-15T19:07:39Z</time>
      </trkpt>
      <trkpt lat="59.4776513477" lon="17.7974353723">
        <ele>126</ele>
        <time>2012-09-15T19:07:40Z</time>
      </trkpt>
      <trkpt lat="59.4775739828" lon="17.7973199536">
        <ele>125.6</ele>
        <time>2012-09-15T19:07:41Z</time>
      </trkpt>
      <trkpt lat="59.4774970369" lon="17.7972207957">
        <ele>125</ele>
        <time>2012-09-15T19:07:42Z</time>
      </trkpt>
      <trkpt lat="59.4774160678" lon="17.7971330372">
        <ele>124.6</ele>
        <time>2012-09-15T19:07:43Z</time>
      </trkpt>
      <trkpt lat="59.4771723221" lon="17.7969934786">
        <ele>124.6</ele>
        <time>2012-09-15T19:07:46Z</time>
      </trkpt>
      <trkpt lat="59.476819025" lon="17.797013679">
        <ele>124.6</ele>
        <time>2012-09-15T19:07:50Z</time>
      </trkpt>
      <trkpt lat="59.476549044" lon="17.7970233181">
        <ele>124.6</ele>
        <time>2012-09-15T19:07:53Z</time>
      </trkpt>
      <trkpt lat="59.4763674921" lon="17.7970023634">
        <ele>124.6</ele>
        <time>2012-09-15T19:07:55Z</time>
      </trkpt>
      <trkpt lat="59.4762825834" lon="17.7969685005">
        <ele>124.6</ele>
        <time>2012-09-15T19:07:56Z</time>
      </trkpt>
      <trkpt lat="59.4760350659" lon="17.7968239966">
        <ele>124.6</ele>
        <time>2012-09-15T19:07:59Z</time>
      </trkpt>
      <trkpt lat="59.4758802522" lon="17.7966570291">
        <ele>124.2</ele>
        <time>2012-09-15T19:08:01Z</time>
      </trkpt>
      <trkpt lat="59.4758089223" lon="17.7965637386">
        <ele>123.8</ele>
        <time>2012-09-15T19:08:02Z</time>
      </trkpt>
      <trkpt lat="59.4757401069" lon="17.7964692746">
        <ele>123.4</ele>
        <time>2012-09-15T19:08:03Z</time>
      </trkpt>
      <trkpt lat="59.4756803439" lon="17.7963580467">
        <ele>123</ele>
        <time>2012-09-15T19:08:04Z</time>
      </trkpt>
      <trkpt lat="59.4756204133" lon="17.7962544465">
        <ele>122.6</ele>
        <time>2012-09-15T19:08:05Z</time>
      </trkpt>
      <trkpt lat="59.4754981214" lon="17.7960345892">
        <ele>122.6</ele>
        <time>2012-09-15T19:08:07Z</time>
      </trkpt>
      <trkpt lat="59.4753064273" lon="17.7956916857">
        <ele>122.2</ele>
        <time>2012-09-15T19:08:10Z</time>
      </trkpt>
      <trkpt lat="59.4752441498" lon="17.7955725789">
        <ele>121.8</ele>
        <time>2012-09-15T19:08:11Z</time>
      </trkpt>
      <trkpt lat="59.4751854765" lon="17.7954667155">
        <ele>121.4</ele>
        <time>2012-09-15T19:08:12Z</time>
      </trkpt>
      <trkpt lat="59.4751293178" lon="17.7953533084">
        <ele>121</ele>
        <time>2012-09-15T19:08:13Z</time>
      </trkpt>
      <trkpt lat="59.4750757575" lon="17.7952399851">
        <ele>120.4</ele>
        <time>2012-09-15T19:08:14Z</time>
      </trkpt>
      <trkpt lat="59.475021778" lon="17.7951334511">
        <ele>120</ele>
        <time>2012-09-15T19:08:15Z</time>
      </trkpt>
      <trkpt lat="59.4749637753" lon="17.7950378137">
        <ele>119.4</ele>
        <time>2012-09-15T19:08:16Z</time>
      </trkpt>
      <trkpt lat="59.4748963848" lon="17.7949745303">
        <ele>118.8</ele>
        <time>2012-09-15T19:08:17Z</time>
      </trkpt>
      <trkpt lat="59.4748271503" lon="17.7949226464">
        <ele>117.2</ele>
        <time>2012-09-15T19:08:18Z</time>
      </trkpt>
      <trkpt lat="59.4747523838" lon="17.7948752886">
        <ele>116.4</ele>
        <time>2012-09-15T19:08:19Z</time>
      </trkpt>
      <trkpt lat="59.474675857" lon="17.7948163639">
        <ele>115.6</ele>
        <time>2012-09-15T19:08:20Z</time>
      </trkpt>
      <trkpt lat="59.4745996655" lon="17.7947402562">
        <ele>114.8</ele>
        <time>2012-09-15T19:08:21Z</time>
      </trkpt>
      <trkpt lat="59.4745383939" lon="17.7946490611">
        <ele>114.2</ele>
        <time>2012-09-15T19:08:22Z</time>
      </trkpt>
      <trkpt lat="59.4744803073" lon="17.7945545971">
        <ele>113.4</ele>
        <time>2012-09-15T19:08:23Z</time>
      </trkpt>
      <trkpt lat="59.4744239809" lon="17.794463905">
        <ele>112.6</ele>
        <time>2012-09-15T19:08:24Z</time>
      </trkpt>
      <trkpt lat="59.4743693309" lon="17.7943737996">
        <ele>112</ele>
        <time>2012-09-15T19:08:25Z</time>
      </trkpt>
      <trkpt lat="59.4743073887" lon="17.7942839456">
        <ele>111.2</ele>
        <time>2012-09-15T19:08:26Z</time>
      </trkpt>
      <trkpt lat="59.474246117" lon="17.7942191535">
        <ele>110.6</ele>
        <time>2012-09-15T19:08:27Z</time>
      </trkpt>
      <trkpt lat="59.4741749547" lon="17.79416333">
        <ele>109.8</ele>
        <time>2012-09-15T19:08:28Z</time>
      </trkpt>
      <trkpt lat="59.474097003" lon="17.7940899884">
        <ele>109.2</ele>
        <time>2012-09-15T19:08:29Z</time>
      </trkpt>
      <trkpt lat="59.4740234937" lon="17.7940203348">
        <ele>108.6</ele>
        <time>2012-09-15T19:08:30Z</time>
      </trkpt>
      <trkpt lat="59.473946045" lon="17.7939714684">
        <ele>108.2</ele>
        <time>2012-09-15T19:08:31Z</time>
      </trkpt>
      <trkpt lat="59.4738665846" lon="17.7939258708">
        <ele>107.6</ele>
        <time>2012-09-15T19:08:32Z</time>
      </trkpt>
      <trkpt lat="59.473786286" lon="17.7938884037">
        <ele>107</ele>
        <time>2012-09-15T19:08:33Z</time>
      </trkpt>
      <trkpt lat="59.4737078314" lon="17.7938705503">
        <ele>106.4</ele>
        <time>2012-09-15T19:08:34Z</time>
      </trkpt>
      <trkpt lat="59.4732771694" lon="17.7938266291">
        <ele>106.4</ele>
        <time>2012-09-15T19:08:40Z</time>
      </trkpt>
      <trkpt lat="59.4728287377" lon="17.7938074346">
        <ele>106.4</ele>
        <time>2012-09-15T19:08:46Z</time>
      </trkpt>
      <trkpt lat="59.4726965551" lon="17.7938041656">
        <ele>106.4</ele>
        <time>2012-09-15T19:08:49Z</time>
      </trkpt>
      <trkpt lat="59.4726097187" lon="17.7937808639">
        <ele>106.4</ele>
        <time>2012-09-15T19:08:52Z</time>
      </trkpt>
      <trkpt lat="59.4725242233" lon="17.7938125475">
        <ele>106.4</ele>
        <time>2012-09-15T19:08:54Z</time>
      </trkpt>
      <trkpt lat="59.4724860856" lon="17.7938842966">
        <ele>106.4</ele>
        <time>2012-09-15T19:08:55Z</time>
      </trkpt>
      <trkpt lat="59.4723962317" lon="17.794247652">
        <ele>106.4</ele>
        <time>2012-09-15T19:08:58Z</time>
      </trkpt>
      <trkpt lat="59.4723110716" lon="17.7944890507">
        <ele>106.4</ele>
        <time>2012-09-15T19:09:00Z</time>
      </trkpt>
      <trkpt lat="59.4721999276" lon="17.7946830078">
        <ele>106.4</ele>
        <time>2012-09-15T19:09:02Z</time>
      </trkpt>
      <trkpt lat="59.4720035397" lon="17.7948495562">
        <ele>106.4</ele>
        <time>2012-09-15T19:09:05Z</time>
      </trkpt>
      <trkpt lat="59.4716896375" lon="17.7949955689">
        <ele>106.4</ele>
        <time>2012-09-15T19:09:10Z</time>
      </trkpt>
      <trkpt lat="59.4716317186" lon="17.7949969938">
        <ele>106.4</ele>
        <time>2012-09-15T19:09:11Z</time>
      </trkpt>
      <trkpt lat="59.4714097659" lon="17.7951523104">
        <ele>106.4</ele>
        <time>2012-09-15T19:09:15Z</time>
      </trkpt>
      <trkpt lat="59.4712556227" lon="17.7953251452">
        <ele>106.4</ele>
        <time>2012-09-15T19:09:18Z</time>
      </trkpt>
      <trkpt lat="59.4711501784" lon="17.7954196092">
        <ele>106.4</ele>
        <time>2012-09-15T19:09:20Z</time>
      </trkpt>
      <trkpt lat="59.4707566482" lon="17.7957817073">
        <ele>106.4</ele>
        <time>2012-09-15T19:09:27Z</time>
      </trkpt>
      <trkpt lat="59.4704652934" lon="17.79603702">
        <ele>107.4</ele>
        <time>2012-09-15T19:09:32Z</time>
      </trkpt>
      <trkpt lat="59.4704090508" lon="17.7960937654">
        <ele>107.8</ele>
        <time>2012-09-15T19:09:33Z</time>
      </trkpt>
      <trkpt lat="59.4703509642" lon="17.7961460685">
        <ele>108.2</ele>
        <time>2012-09-15T19:09:34Z</time>
      </trkpt>
      <trkpt lat="59.4702958952" lon="17.7961989583">
        <ele>108.6</ele>
        <time>2012-09-15T19:09:35Z</time>
      </trkpt>
      <trkpt lat="59.4699788917" lon="17.7965391796">
        <ele>108.6</ele>
        <time>2012-09-15T19:09:41Z</time>
      </trkpt>
      <trkpt lat="59.469667085" lon="17.7968832566">
        <ele>108.6</ele>
        <time>2012-09-15T19:09:47Z</time>
      </trkpt>
      <trkpt lat="59.4696080765" lon="17.7969156107">
        <ele>108.6</ele>
        <time>2012-09-15T19:09:48Z</time>
      </trkpt>
      <trkpt lat="59.4694874609" lon="17.7969953226">
        <ele>108.6</ele>
        <time>2012-09-15T19:09:50Z</time>
      </trkpt>
      <trkpt lat="59.4693284563" lon="17.7972205442">
        <ele>108.6</ele>
        <time>2012-09-15T19:09:53Z</time>
      </trkpt>
      <trkpt lat="59.4692794222" lon="17.7973148406">
        <ele>108.6</ele>
        <time>2012-09-15T19:09:54Z</time>
      </trkpt>
      <trkpt lat="59.4690385263" lon="17.7977196864">
        <ele>108.6</ele>
        <time>2012-09-15T19:09:59Z</time>
      </trkpt>
      <trkpt lat="59.468702496" lon="17.7984172281">
        <ele>108.2</ele>
        <time>2012-09-15T19:10:07Z</time>
      </trkpt>
      <trkpt lat="59.4686672082" lon="17.7985113568">
        <ele>107.8</ele>
        <time>2012-09-15T19:10:08Z</time>
      </trkpt>
      <trkpt lat="59.4686316689" lon="17.7986030548">
        <ele>107.4</ele>
        <time>2012-09-15T19:10:09Z</time>
      </trkpt>
      <trkpt lat="59.4685958782" lon="17.7986996981">
        <ele>107</ele>
        <time>2012-09-15T19:10:10Z</time>
      </trkpt>
      <trkpt lat="59.4685599199" lon="17.7987929887">
        <ele>106.6</ele>
        <time>2012-09-15T19:10:11Z</time>
      </trkpt>
      <trkpt lat="59.4683207004" lon="17.799312415">
        <ele>106.6</ele>
        <time>2012-09-15T19:10:17Z</time>
      </trkpt>
      <trkpt lat="59.4681744363" lon="17.7996101401">
        <ele>106.6</ele>
        <time>2012-09-15T19:10:21Z</time>
      </trkpt>
      <trkpt lat="59.4680986639" lon="17.7997400596">
        <ele>106.6</ele>
        <time>2012-09-15T19:10:23Z</time>
      </trkpt>
      <trkpt lat="59.4678832491" lon="17.8001257946">
        <ele>106.6</ele>
        <time>2012-09-15T19:10:29Z</time>
      </trkpt>
      <trkpt lat="59.4678047945" lon="17.8002490085">
        <ele>106.6</ele>
        <time>2012-09-15T19:10:31Z</time>
      </trkpt>
      <trkpt lat="59.4677519047" lon="17.8003052511">
        <ele>107</ele>
        <time>2012-09-15T19:10:32Z</time>
      </trkpt>
      <trkpt lat="59.4676981767" lon="17.8003644273">
        <ele>107.4</ele>
        <time>2012-09-15T19:10:33Z</time>
      </trkpt>
      <trkpt lat="59.4676462928" lon="17.8004232682">
        <ele>107.8</ele>
        <time>2012-09-15T19:10:34Z</time>
      </trkpt>
      <trkpt lat="59.4675915589" lon="17.8004780859">
        <ele>108.2</ele>
        <time>2012-09-15T19:10:35Z</time>
      </trkpt>
      <trkpt lat="59.4675350649" lon="17.8005251083">
        <ele>108.6</ele>
        <time>2012-09-15T19:10:36Z</time>
      </trkpt>
      <trkpt lat="59.467291906" lon="17.8006703666">
        <ele>108.6</ele>
        <time>2012-09-15T19:10:40Z</time>
      </trkpt>
      <trkpt lat="59.4669540316" lon="17.8008359092">
        <ele>108.6</ele>
        <time>2012-09-15T19:10:45Z</time>
      </trkpt>
      <trkpt lat="59.4668847971" lon="17.8008701073">
        <ele>108.2</ele>
        <time>2012-09-15T19:10:46Z</time>
      </trkpt>
      <trkpt lat="59.466808438" lon="17.8008765614">
        <ele>107.4</ele>
        <time>2012-09-15T19:10:47Z</time>
      </trkpt>
      <trkpt lat="59.4667414667" lon="17.8008983543">
        <ele>107</ele>
        <time>2012-09-15T19:10:48Z</time>
      </trkpt>
      <trkpt lat="59.4666710587" lon="17.8009330554">
        <ele>106.6</ele>
        <time>2012-09-15T19:10:49Z</time>
      </trkpt>
      <trkpt lat="59.4665366968" lon="17.8009472208">
        <ele>106.6</ele>
        <time>2012-09-15T19:10:51Z</time>
      </trkpt>
      <trkpt lat="59.4664771015" lon="17.8009737914">
        <ele>106.6</ele>
        <time>2012-09-15T19:10:52Z</time>
      </trkpt>
      <trkpt lat="59.4664201046" lon="17.8009820895">
        <ele>106.6</ele>
        <time>2012-09-15T19:10:53Z</time>
      </trkpt>
      <trkpt lat="59.4660441764" lon="17.800997596">
        <ele>106.6</ele>
        <time>2012-09-15T19:10:59Z</time>
      </trkpt>
      <trkpt lat="59.4657093195" lon="17.8009494839">
        <ele>106.6</ele>
        <time>2012-09-15T19:11:04Z</time>
      </trkpt>
      <trkpt lat="59.4656420966" lon="17.8009826762">
        <ele>106.6</ele>
        <time>2012-09-15T19:11:05Z</time>
      </trkpt>
      <trkpt lat="59.4655770531" lon="17.8010090792">
        <ele>106.2</ele>
        <time>2012-09-15T19:11:06Z</time>
      </trkpt>
      <trkpt lat="59.4655136021" lon="17.8010146113">
        <ele>105.8</ele>
        <time>2012-09-15T19:11:07Z</time>
      </trkpt>
      <trkpt lat="59.4654532524" lon="17.8010104203">
        <ele>105.4</ele>
        <time>2012-09-15T19:11:08Z</time>
      </trkpt>
      <trkpt lat="59.4653958364" lon="17.8010032119">
        <ele>104.8</ele>
        <time>2012-09-15T19:11:09Z</time>
      </trkpt>
      <trkpt lat="59.4653365764" lon="17.8009976798">
        <ele>104.4</ele>
        <time>2012-09-15T19:11:10Z</time>
      </trkpt>
      <trkpt lat="59.4649784178" lon="17.800916124">
        <ele>104.4</ele>
        <time>2012-09-15T19:11:16Z</time>
      </trkpt>
      <trkpt lat="59.4647446466" lon="17.8008838536">
        <ele>104.4</ele>
        <time>2012-09-15T19:11:20Z</time>
      </trkpt>
      <trkpt lat="59.4646391185" lon="17.800943449">
        <ele>104.4</ele>
        <time>2012-09-15T19:11:22Z</time>
      </trkpt>
      <trkpt lat="59.464546247" lon="17.8009639846">
        <ele>104.4</ele>
        <time>2012-09-15T19:11:24Z</time>
      </trkpt>
      <trkpt lat="59.4644718996" lon="17.8009622244">
        <ele>104.4</ele>
        <time>2012-09-15T19:11:26Z</time>
      </trkpt>
      <trkpt lat="59.4643343526" lon="17.8009802455">
        <ele>104.4</ele>
        <time>2012-09-15T19:11:31Z</time>
      </trkpt>
      <trkpt lat="59.4643107995" lon="17.8009800779">
        <ele>104.8</ele>
        <time>2012-09-15T19:11:32Z</time>
      </trkpt>
      <trkpt lat="59.4642809599" lon="17.8009602966">
        <ele>105.2</ele>
        <time>2012-09-15T19:11:33Z</time>
      </trkpt>
      <trkpt lat="59.4642519585" lon="17.8009488972">
        <ele>105.8</ele>
        <time>2012-09-15T19:11:34Z</time>
      </trkpt>
      <trkpt lat="59.4642248012" lon="17.8009484781">
        <ele>106.2</ele>
        <time>2012-09-15T19:11:35Z</time>
      </trkpt>
      <trkpt lat="59.4642055228" lon="17.8009360729">
        <ele>106.6</ele>
        <time>2012-09-15T19:11:36Z</time>
      </trkpt>
      <trkpt lat="59.4641029284" lon="17.8009499868">
        <ele>107</ele>
        <time>2012-09-15T19:11:40Z</time>
      </trkpt>
      <trkpt lat="59.464081806" lon="17.8009457121">
        <ele>107.4</ele>
        <time>2012-09-15T19:11:41Z</time>
      </trkpt>
      <trkpt lat="59.4640559897" lon="17.8009496516">
        <ele>107.8</ele>
        <time>2012-09-15T19:11:42Z</time>
      </trkpt>
      <trkpt lat="59.4640274074" lon="17.8009466341">
        <ele>108.2</ele>
        <time>2012-09-15T19:11:43Z</time>
      </trkpt>
      <trkpt lat="59.4639989928" lon="17.8009514956">
        <ele>108.6</ele>
        <time>2012-09-15T19:11:44Z</time>
      </trkpt>
      <trkpt lat="59.4639440075" lon="17.8009571953">
        <ele>108.6</ele>
        <time>2012-09-15T19:11:46Z</time>
      </trkpt>
      <trkpt lat="59.4638476995" lon="17.800915621">
        <ele>109</ele>
        <time>2012-09-15T19:11:49Z</time>
      </trkpt>
      <trkpt lat="59.4638150101" lon="17.8009002822">
        <ele>109.4</ele>
        <time>2012-09-15T19:11:50Z</time>
      </trkpt>
      <trkpt lat="59.463782153" lon="17.8008744659">
        <ele>109.8</ele>
        <time>2012-09-15T19:11:51Z</time>
      </trkpt>
      <trkpt lat="59.463745608" lon="17.8008524215">
        <ele>110.4</ele>
        <time>2012-09-15T19:11:52Z</time>
      </trkpt>
      <trkpt lat="59.4637124156" lon="17.8008418603">
        <ele>110.8</ele>
        <time>2012-09-15T19:11:53Z</time>
      </trkpt>
      <trkpt lat="59.4636397446" lon="17.8008188101">
        <ele>110.8</ele>
        <time>2012-09-15T19:11:55Z</time>
      </trkpt>
      <trkpt lat="59.4635289358" lon="17.8007854501">
        <ele>111.2</ele>
        <time>2012-09-15T19:11:58Z</time>
      </trkpt>
      <trkpt lat="59.4634909658" lon="17.8007969333">
        <ele>111.6</ele>
        <time>2012-09-15T19:11:59Z</time>
      </trkpt>
      <trkpt lat="59.4634536664" lon="17.8008124399">
        <ele>112</ele>
        <time>2012-09-15T19:12:00Z</time>
      </trkpt>
      <trkpt lat="59.4634172051" lon="17.8008307962">
        <ele>112.8</ele>
        <time>2012-09-15T19:12:01Z</time>
      </trkpt>
      <trkpt lat="59.4632779818" lon="17.8009704387">
        <ele>112.8</ele>
        <time>2012-09-15T19:12:06Z</time>
      </trkpt>
      <trkpt lat="59.4631559413" lon="17.8010260107">
        <ele>112.8</ele>
        <time>2012-09-15T19:12:09Z</time>
      </trkpt>
      <trkpt lat="59.4631150376" lon="17.8010285252">
        <ele>112.8</ele>
        <time>2012-09-15T19:12:10Z</time>
      </trkpt>
      <trkpt lat="59.4630764809" lon="17.80102819">
        <ele>113.2</ele>
        <time>2012-09-15T19:12:11Z</time>
      </trkpt>
      <trkpt lat="59.4630354096" lon="17.8010305369">
        <ele>113.6</ele>
        <time>2012-09-15T19:12:12Z</time>
      </trkpt>
      <trkpt lat="59.4629950926" lon="17.8010298663">
        <ele>114</ele>
        <time>2012-09-15T19:12:13Z</time>
      </trkpt>
      <trkpt lat="59.4629548595" lon="17.8010274356">
        <ele>114.4</ele>
        <time>2012-09-15T19:12:14Z</time>
      </trkpt>
      <trkpt lat="59.4629121956" lon="17.8010264298">
        <ele>114.8</ele>
        <time>2012-09-15T19:12:15Z</time>
      </trkpt>
      <trkpt lat="59.4627852937" lon="17.8010320456">
        <ele>114.8</ele>
        <time>2012-09-15T19:12:18Z</time>
      </trkpt>
      <trkpt lat="59.4625339205" lon="17.8010288605">
        <ele>114.8</ele>
        <time>2012-09-15T19:12:24Z</time>
      </trkpt>
      <trkpt lat="59.4624933521" lon="17.8010345602">
        <ele>114.8</ele>
        <time>2012-09-15T19:12:25Z</time>
      </trkpt>
      <trkpt lat="59.4623646899" lon="17.8010441994">
        <ele>114.8</ele>
        <time>2012-09-15T19:12:28Z</time>
      </trkpt>
      <trkpt lat="59.4622744169" lon="17.801021233">
        <ele>115.2</ele>
        <time>2012-09-15T19:12:30Z</time>
      </trkpt>
      <trkpt lat="59.4622262209" lon="17.8010217359">
        <ele>115.6</ele>
        <time>2012-09-15T19:12:31Z</time>
      </trkpt>
      <trkpt lat="59.4621795338" lon="17.8010219874">
        <ele>116</ele>
        <time>2012-09-15T19:12:32Z</time>
      </trkpt>
      <trkpt lat="59.4621342715" lon="17.8010148627">
        <ele>116.4</ele>
        <time>2012-09-15T19:12:33Z</time>
      </trkpt>
      <trkpt lat="59.4620887578" lon="17.8010141084">
        <ele>116.8</ele>
        <time>2012-09-15T19:12:34Z</time>
      </trkpt>
      <trkpt lat="59.4620460939" lon="17.8009975122">
        <ele>116.8</ele>
        <time>2012-09-15T19:12:35Z</time>
      </trkpt>
      <trkpt lat="59.4619548988" lon="17.8009773118">
        <ele>116.8</ele>
        <time>2012-09-15T19:12:37Z</time>
      </trkpt>
      <trkpt lat="59.4618649611" lon="17.8009545969">
        <ele>116.8</ele>
        <time>2012-09-15T19:12:39Z</time>
      </trkpt>
      <trkpt lat="59.4617497937" lon="17.8009217398">
        <ele>116.8</ele>
        <time>2012-09-15T19:12:42Z</time>
      </trkpt>
      <trkpt lat="59.4616006797" lon="17.8008718675">
        <ele>116.8</ele>
        <time>2012-09-15T19:12:46Z</time>
      </trkpt>
      <trkpt lat="59.4615547469" lon="17.8008628989">
        <ele>116.8</ele>
        <time>2012-09-15T19:12:47Z</time>
      </trkpt>
      <trkpt lat="59.4613612089" lon="17.8008167984">
        <ele>117.2</ele>
        <time>2012-09-15T19:12:52Z</time>
      </trkpt>
      <trkpt lat="59.4613156951" lon="17.8008069078">
        <ele>117.6</ele>
        <time>2012-09-15T19:12:53Z</time>
      </trkpt>
      <trkpt lat="59.4612702652" lon="17.8008053152">
        <ele>118.2</ele>
        <time>2012-09-15T19:12:54Z</time>
      </trkpt>
      <trkpt lat="59.4612262603" lon="17.8008136971">
        <ele>118.6</ele>
        <time>2012-09-15T19:12:55Z</time>
      </trkpt>
      <trkpt lat="59.4611843508" lon="17.8008529244">
        <ele>119</ele>
        <time>2012-09-15T19:12:56Z</time>
      </trkpt>
      <trkpt lat="59.461152751" lon="17.8010403437">
        <ele>119</ele>
        <time>2012-09-15T19:12:59Z</time>
      </trkpt>
      <trkpt lat="59.4611621387" lon="17.8012343009">
        <ele>119</ele>
        <time>2012-09-15T19:13:02Z</time>
      </trkpt>
      <trkpt lat="59.46117731" lon="17.801409734">
        <ele>119</ele>
        <time>2012-09-15T19:13:05Z</time>
      </trkpt>
      <trkpt lat="59.4612173755" lon="17.8016342013">
        <ele>119.4</ele>
        <time>2012-09-15T19:13:09Z</time>
      </trkpt>
      <trkpt lat="59.4612292778" lon="17.801713075">
        <ele>119.8</ele>
        <time>2012-09-15T19:13:10Z</time>
      </trkpt>
      <trkpt lat="59.4612372406" lon="17.8018146636">
        <ele>120.4</ele>
        <time>2012-09-15T19:13:11Z</time>
      </trkpt>
      <trkpt lat="59.4612458739" lon="17.8019153303">
        <ele>120.8</ele>
        <time>2012-09-15T19:13:12Z</time>
      </trkpt>
      <trkpt lat="59.4612497296" lon="17.8020168351">
        <ele>121.4</ele>
        <time>2012-09-15T19:13:13Z</time>
      </trkpt>
      <trkpt lat="59.4612598717" lon="17.8021922682">
        <ele>121.4</ele>
        <time>2012-09-15T19:13:15Z</time>
      </trkpt>
      <trkpt lat="59.4612369053" lon="17.802331743">
        <ele>121.4</ele>
        <time>2012-09-15T19:13:18Z</time>
      </trkpt>
      <trkpt lat="59.4611082431" lon="17.8023919251">
        <ele>121.4</ele>
        <time>2012-09-15T19:13:22Z</time>
      </trkpt>
      <trkpt lat="59.4610664174" lon="17.8024224352">
        <ele>121.4</ele>
        <time>2012-09-15T19:13:23Z</time>
      </trkpt>
      <trkpt lat="59.4609103465" lon="17.8025020633">
        <ele>121.4</ele>
        <time>2012-09-15T19:13:27Z</time>
      </trkpt>
      <trkpt lat="59.460833233" lon="17.8025526899">
        <ele>121.8</ele>
        <time>2012-09-15T19:13:29Z</time>
      </trkpt>
      <trkpt lat="59.4607973584" lon="17.8025724712">
        <ele>122.2</ele>
        <time>2012-09-15T19:13:30Z</time>
      </trkpt>
      <trkpt lat="59.460760059" lon="17.8025951862">
        <ele>122.6</ele>
        <time>2012-09-15T19:13:31Z</time>
      </trkpt>
      <trkpt lat="59.4607331531" lon="17.8026173982">
        <ele>123</ele>
        <time>2012-09-15T19:13:32Z</time>
      </trkpt>
      <trkpt lat="59.4607069177" lon="17.8026393588">
        <ele>123.4</ele>
        <time>2012-09-15T19:13:33Z</time>
      </trkpt>
      <trkpt lat="59.4606918303" lon="17.8026724673">
        <ele>123.4</ele>
        <time>2012-09-15T19:13:34Z</time>
      </trkpt>
      <trkpt lat="59.4606429638" lon="17.8027854553">
        <ele>123.8</ele>
        <time>2012-09-15T19:13:37Z</time>
      </trkpt>
      <trkpt lat="59.4606310616" lon="17.8028208269">
        <ele>124.2</ele>
        <time>2012-09-15T19:13:38Z</time>
      </trkpt>
      <trkpt lat="59.4606199974" lon="17.8028572882">
        <ele>125.2</ele>
        <time>2012-09-15T19:13:39Z</time>
      </trkpt>
      <trkpt lat="59.4606094362" lon="17.80288981">
        <ele>125.6</ele>
        <time>2012-09-15T19:13:40Z</time>
      </trkpt>
      <trkpt lat="59.460533161" lon="17.8030248424">
        <ele>126</ele>
        <time>2012-09-15T19:13:44Z</time>
      </trkpt>
      <trkpt lat="59.4605080991" lon="17.8030527541">
        <ele>126.4</ele>
        <time>2012-09-15T19:13:45Z</time>
      </trkpt>
      <trkpt lat="59.4604749068" lon="17.8030829289">
        <ele>127</ele>
        <time>2012-09-15T19:13:46Z</time>
      </trkpt>
      <trkpt lat="59.4604443128" lon="17.8031092481">
        <ele>127.4</ele>
        <time>2012-09-15T19:13:47Z</time>
      </trkpt>
      <trkpt lat="59.4604156467" lon="17.8031384171">
        <ele>127.8</ele>
        <time>2012-09-15T19:13:48Z</time>
      </trkpt>
      <trkpt lat="59.4603406287" lon="17.8032041312">
        <ele>127.8</ele>
        <time>2012-09-15T19:13:50Z</time>
      </trkpt>
      <trkpt lat="59.4601570651" lon="17.8033037082">
        <ele>127.8</ele>
        <time>2012-09-15T19:13:55Z</time>
      </trkpt>
      <trkpt lat="59.4600211945" lon="17.803404291">
        <ele>127.8</ele>
        <time>2012-09-15T19:13:58Z</time>
      </trkpt>
      <trkpt lat="59.4599817996" lon="17.8034590248">
        <ele>127.8</ele>
        <time>2012-09-15T19:13:59Z</time>
      </trkpt>
      <trkpt lat="59.4598817197" lon="17.8035985834">
        <ele>127.8</ele>
        <time>2012-09-15T19:14:02Z</time>
      </trkpt>
      <trkpt lat="59.4597879262" lon="17.8037503796">
        <ele>127.8</ele>
        <time>2012-09-15T19:14:05Z</time>
      </trkpt>
      <trkpt lat="59.4596397342" lon="17.8039677223">
        <ele>127.8</ele>
        <time>2012-09-15T19:14:09Z</time>
      </trkpt>
      <trkpt lat="59.4595723438" lon="17.8040854042">
        <ele>127.8</ele>
        <time>2012-09-15T19:14:11Z</time>
      </trkpt>
      <trkpt lat="59.4594234812" lon="17.8043143139">
        <ele>127.8</ele>
        <time>2012-09-15T19:14:16Z</time>
      </trkpt>
      <trkpt lat="59.4592747863" lon="17.8044433951">
        <ele>127.8</ele>
        <time>2012-09-15T19:14:20Z</time>
      </trkpt>
      <trkpt lat="59.4591825016" lon="17.8044926807">
        <ele>127.8</ele>
        <time>2012-09-15T19:14:22Z</time>
      </trkpt>
      <trkpt lat="59.4591372393" lon="17.8044796049">
        <ele>127.8</ele>
        <time>2012-09-15T19:14:23Z</time>
      </trkpt>
      <trkpt lat="59.4590586171" lon="17.8044140585">
        <ele>127.8</ele>
        <time>2012-09-15T19:14:25Z</time>
      </trkpt>
      <trkpt lat="59.4589721159" lon="17.8043155711">
        <ele>127</ele>
        <time>2012-09-15T19:14:28Z</time>
      </trkpt>
      <trkpt lat="59.4589638178" lon="17.8042621784">
        <ele>126.6</ele>
        <time>2012-09-15T19:14:29Z</time>
      </trkpt>
      <trkpt lat="59.458963734" lon="17.80423368">
        <ele>126.2</ele>
        <time>2012-09-15T19:14:30Z</time>
      </trkpt>
      <trkpt lat="59.4589632311" lon="17.8042169162">
        <ele>125.8</ele>
        <time>2012-09-15T19:14:31Z</time>
      </trkpt>
      <trkpt lat="59.4589483113" lon="17.8041910999">
        <ele>125.8</ele>
        <time>2012-09-15T19:14:33Z</time>
      </trkpt>
      <trkpt lat="59.4589261831" lon="17.8041239609">
        <ele>125.8</ele>
        <time>2012-09-15T19:14:36Z</time>
      </trkpt>
    </trkseg>
  </trk>
</gpx>